Mississippi River (Missouri), Chester (07020500)

StateMissouriLatestUnknown (267000 cfs)
RiverMississippi RiverRatingObservedEstimated
Updated2020-08-06 11:00 (20 minutes ago)Flood - The river is flooding. Obstacles can be treacherous or deadly. The river should be avoided at this stage for casual trips and definitely for the inexperienced. Trips should be attempted only with protective gear and equipment.Flood(none)(none)
Discharge267000 cfs (median: 150000 cfs)High - The river is high and potentially dangerous, especially for the young and / or inexperienced. Normal stream obstacles are sometimes difficult to navigate. Extended distances can be attempted, but canoe travel may not be advisable.High(none)(none)
Height18.29 feetGood - Conditions are ideal for a canoe or kayak. Boats typically will drag on fewer than one-quarter of riffles, if at all, and portages are unnecessary or rare. Normal float lengths can be attempted without a problem.Good(none)(none)
TrendSteady (falling over 24 hours)Low - River is low but can still be floated. Some riffles are okay but most come with significant dragging and might need a portage. Float lengths should be reduced to accommodate low flow, dragging, and portages.Low(none)(none)
USGSExternal icon USGS Site (External icon Google Maps)Poor - River is too low to float comfortably. Most or all riffles will drag or must be portaged and some obstacles (such as slick shelf rock) cause undue problems. Avoid the river at this stage for casual paddling trips.Poor(none)(none)

Trending Data

Plot Image

Trips for Mississippi River (Missouri), Chester (07020500)

DateStartEndDistanceConditionDischargeHeightFishingDetails

A total of 0 rows are displayed.

Condition Descriptions

Fishing Conditions

Fish Species

Notes

Classic Trip List

The classic River Trips application is still available for use. It is updated with the new system using a data retrofit. It is no longer maintained. The original River Trips application is no longer updated (as of 1 Dec 2016) but can be checked for errors or for the condition of the data before it was converted to the new system.

Gauge Data Table

ObservationHeightDischargeMaximum
Discharge
Minimum
Discharge
Mean
Discharge
P05P10P20P25P50
(Median)
P75P80P90P95
2020-08-06 11:00 18.29 267000 1000000 (1993) 66200 (1988) 189000 80500 83800 106000 118000 150000 215000 239000 353000 432000
2020-08-06 10:30 18.30 267000 1000000 (1993) 66200 (1988) 189000 80500 83800 106000 118000 150000 215000 239000 353000 432000
2020-08-06 10:00 18.38 269000 1000000 (1993) 66200 (1988) 189000 80500 83800 106000 118000 150000 215000 239000 353000 432000
2020-08-06 09:30 18.28 267000 1000000 (1993) 66200 (1988) 189000 80500 83800 106000 118000 150000 215000 239000 353000 432000
2020-08-06 09:00 18.38 269000 1000000 (1993) 66200 (1988) 189000 80500 83800 106000 118000 150000 215000 239000 353000 432000
2020-08-06 08:30 18.29 267000 1000000 (1993) 66200 (1988) 189000 80500 83800 106000 118000 150000 215000 239000 353000 432000
2020-08-06 08:00 18.30 267000 1000000 (1993) 66200 (1988) 189000 80500 83800 106000 118000 150000 215000 239000 353000 432000
2020-08-06 07:30 18.30 267000 1000000 (1993) 66200 (1988) 189000 80500 83800 106000 118000 150000 215000 239000 353000 432000
2020-08-06 07:00 18.41 269000 1000000 (1993) 66200 (1988) 189000 80500 83800 106000 118000 150000 215000 239000 353000 432000
2020-08-06 06:30 18.46 270000 1000000 (1993) 66200 (1988) 189000 80500 83800 106000 118000 150000 215000 239000 353000 432000
2020-08-06 06:00 18.49 270000 1000000 (1993) 66200 (1988) 189000 80500 83800 106000 118000 150000 215000 239000 353000 432000
2020-08-06 05:30 18.45 270000 1000000 (1993) 66200 (1988) 189000 80500 83800 106000 118000 150000 215000 239000 353000 432000
2020-08-06 05:00 18.48 270000 1000000 (1993) 66200 (1988) 189000 80500 83800 106000 118000 150000 215000 239000 353000 432000
2020-08-06 04:30 18.56 272000 1000000 (1993) 66200 (1988) 189000 80500 83800 106000 118000 150000 215000 239000 353000 432000
2020-08-06 04:00 18.59 272000 1000000 (1993) 66200 (1988) 189000 80500 83800 106000 118000 150000 215000 239000 353000 432000
2020-08-06 03:30 18.53 271000 1000000 (1993) 66200 (1988) 189000 80500 83800 106000 118000 150000 215000 239000 353000 432000
2020-08-06 03:00 18.59 272000 1000000 (1993) 66200 (1988) 189000 80500 83800 106000 118000 150000 215000 239000 353000 432000
2020-08-06 02:30 18.64 273000 1000000 (1993) 66200 (1988) 189000 80500 83800 106000 118000 150000 215000 239000 353000 432000
2020-08-06 02:00 18.66 273000 1000000 (1993) 66200 (1988) 189000 80500 83800 106000 118000 150000 215000 239000 353000 432000
2020-08-06 01:30 18.66 273000 1000000 (1993) 66200 (1988) 189000 80500 83800 106000 118000 150000 215000 239000 353000 432000
2020-08-06 01:00 18.70 274000 1000000 (1993) 66200 (1988) 189000 80500 83800 106000 118000 150000 215000 239000 353000 432000
2020-08-06 00:30 18.76 275000 1000000 (1993) 66200 (1988) 189000 80500 83800 106000 118000 150000 215000 239000 353000 432000
2020-08-06 00:00 18.78 275000 1000000 (1993) 66200 (1988) 189000 80500 83800 106000 118000 150000 215000 239000 353000 432000
2020-08-05 23:30 18.74 275000 991000 (1993) 65400 (1988) 191000 76800 85800 105000 119000 154000 222000 243000 365000 466000
2020-08-05 23:00 18.77 275000 991000 (1993) 65400 (1988) 191000 76800 85800 105000 119000 154000 222000 243000 365000 466000
2020-08-05 22:30 18.85 276000 991000 (1993) 65400 (1988) 191000 76800 85800 105000 119000 154000 222000 243000 365000 466000
2020-08-05 22:00 18.88 277000 991000 (1993) 65400 (1988) 191000 76800 85800 105000 119000 154000 222000 243000 365000 466000
2020-08-05 21:30 18.81 276000 991000 (1993) 65400 (1988) 191000 76800 85800 105000 119000 154000 222000 243000 365000 466000
2020-08-05 21:00 18.94 278000 991000 (1993) 65400 (1988) 191000 76800 85800 105000 119000 154000 222000 243000 365000 466000
2020-08-05 20:30 19.05 280000 991000 (1993) 65400 (1988) 191000 76800 85800 105000 119000 154000 222000 243000 365000 466000
2020-08-05 20:00 19.19 282000 991000 (1993) 65400 (1988) 191000 76800 85800 105000 119000 154000 222000 243000 365000 466000
2020-08-05 19:30 19.21 282000 991000 (1993) 65400 (1988) 191000 76800 85800 105000 119000 154000 222000 243000 365000 466000
2020-08-05 19:00 19.21 282000 991000 (1993) 65400 (1988) 191000 76800 85800 105000 119000 154000 222000 243000 365000 466000
2020-08-05 18:30 19.21 282000 991000 (1993) 65400 (1988) 191000 76800 85800 105000 119000 154000 222000 243000 365000 466000
2020-08-05 18:00 19.24 283000 991000 (1993) 65400 (1988) 191000 76800 85800 105000 119000 154000 222000 243000 365000 466000
2020-08-05 17:30 19.33 284000 991000 (1993) 65400 (1988) 191000 76800 85800 105000 119000 154000 222000 243000 365000 466000
2020-08-05 17:00 19.36 285000 991000 (1993) 65400 (1988) 191000 76800 85800 105000 119000 154000 222000 243000 365000 466000
2020-08-05 16:30 19.23 283000 991000 (1993) 65400 (1988) 191000 76800 85800 105000 119000 154000 222000 243000 365000 466000
2020-08-05 16:00 19.41 286000 991000 (1993) 65400 (1988) 191000 76800 85800 105000 119000 154000 222000 243000 365000 466000
2020-08-05 15:30 19.36 285000 991000 (1993) 65400 (1988) 191000 76800 85800 105000 119000 154000 222000 243000 365000 466000
2020-08-05 15:00 19.49 287000 991000 (1993) 65400 (1988) 191000 76800 85800 105000 119000 154000 222000 243000 365000 466000
2020-08-05 14:30 19.55 288000 991000 (1993) 65400 (1988) 191000 76800 85800 105000 119000 154000 222000 243000 365000 466000
2020-08-05 14:00 19.51 287000 991000 (1993) 65400 (1988) 191000 76800 85800 105000 119000 154000 222000 243000 365000 466000
2020-08-05 13:30 19.59 289000 991000 (1993) 65400 (1988) 191000 76800 85800 105000 119000 154000 222000 243000 365000 466000
2020-08-05 13:00 19.58 289000 991000 (1993) 65400 (1988) 191000 76800 85800 105000 119000 154000 222000 243000 365000 466000
2020-08-05 12:30 19.59 289000 991000 (1993) 65400 (1988) 191000 76800 85800 105000 119000 154000 222000 243000 365000 466000
2020-08-05 12:00 19.66 290000 991000 (1993) 65400 (1988) 191000 76800 85800 105000 119000 154000 222000 243000 365000 466000
2020-08-05 11:30 19.68 290000 991000 (1993) 65400 (1988) 191000 76800 85800 105000 119000 154000 222000 243000 365000 466000
2020-08-05 11:00 19.75 291000 991000 (1993) 65400 (1988) 191000 76800 85800 105000 119000 154000 222000 243000 365000 466000
2020-08-05 10:30 19.70 291000 991000 (1993) 65400 (1988) 191000 76800 85800 105000 119000 154000 222000 243000 365000 466000
2020-08-05 10:00 19.82 293000 991000 (1993) 65400 (1988) 191000 76800 85800 105000 119000 154000 222000 243000 365000 466000
2020-08-05 09:30 19.75 291000 991000 (1993) 65400 (1988) 191000 76800 85800 105000 119000 154000 222000 243000 365000 466000
2020-08-05 09:00 19.78 292000 991000 (1993) 65400 (1988) 191000 76800 85800 105000 119000 154000 222000 243000 365000 466000
2020-08-05 08:30 19.96 295000 991000 (1993) 65400 (1988) 191000 76800 85800 105000 119000 154000 222000 243000 365000 466000
2020-08-05 08:00 19.99 295000 991000 (1993) 65400 (1988) 191000 76800 85800 105000 119000 154000 222000 243000 365000 466000
2020-08-05 07:30 20.05 297000 991000 (1993) 65400 (1988) 191000 76800 85800 105000 119000 154000 222000 243000 365000 466000
2020-08-05 07:00 20.14 298000 991000 (1993) 65400 (1988) 191000 76800 85800 105000 119000 154000 222000 243000 365000 466000
2020-08-05 06:30 20.11 298000 991000 (1993) 65400 (1988) 191000 76800 85800 105000 119000 154000 222000 243000 365000 466000
2020-08-05 06:00 20.17 299000 991000 (1993) 65400 (1988) 191000 76800 85800 105000 119000 154000 222000 243000 365000 466000
2020-08-05 05:30 20.17 299000 991000 (1993) 65400 (1988) 191000 76800 85800 105000 119000 154000 222000 243000 365000 466000
2020-08-05 05:00 20.36 302000 991000 (1993) 65400 (1988) 191000 76800 85800 105000 119000 154000 222000 243000 365000 466000
2020-08-05 04:30 20.44 303000 991000 (1993) 65400 (1988) 191000 76800 85800 105000 119000 154000 222000 243000 365000 466000
2020-08-05 04:00 20.41 303000 991000 (1993) 65400 (1988) 191000 76800 85800 105000 119000 154000 222000 243000 365000 466000
2020-08-05 03:30 20.38 302000 991000 (1993) 65400 (1988) 191000 76800 85800 105000 119000 154000 222000 243000 365000 466000
2020-08-05 03:00 20.58 306000 991000 (1993) 65400 (1988) 191000 76800 85800 105000 119000 154000 222000 243000 365000 466000
2020-08-05 02:30 20.58 306000 991000 (1993) 65400 (1988) 191000 76800 85800 105000 119000 154000 222000 243000 365000 466000
2020-08-05 02:00 20.69 308000 991000 (1993) 65400 (1988) 191000 76800 85800 105000 119000 154000 222000 243000 365000 466000
2020-08-05 01:30 20.76 309000 991000 (1993) 65400 (1988) 191000 76800 85800 105000 119000 154000 222000 243000 365000 466000
2020-08-05 01:00 20.72 308000 991000 (1993) 65400 (1988) 191000 76800 85800 105000 119000 154000 222000 243000 365000 466000
2020-08-05 00:30 20.79 309000 991000 (1993) 65400 (1988) 191000 76800 85800 105000 119000 154000 222000 243000 365000 466000
2020-08-05 00:00 20.92 312000 991000 (1993) 65400 (1988) 191000 76800 85800 105000 119000 154000 222000 243000 365000 466000
2020-08-04 23:30 20.99 313000 955000 (1993) 64200 (1977) 195000 75900 87900 108000 123000 157000 229000 243000 373000 483000
2020-08-04 23:00 21.14 316000 955000 (1993) 64200 (1977) 195000 75900 87900 108000 123000 157000 229000 243000 373000 483000
2020-08-04 22:30 21.13 315000 955000 (1993) 64200 (1977) 195000 75900 87900 108000 123000 157000 229000 243000 373000 483000
2020-08-04 22:00 21.04 314000 955000 (1993) 64200 (1977) 195000 75900 87900 108000 123000 157000 229000 243000 373000 483000
2020-08-04 21:30 21.29 318000 955000 (1993) 64200 (1977) 195000 75900 87900 108000 123000 157000 229000 243000 373000 483000
2020-08-04 21:00 21.35 319000 955000 (1993) 64200 (1977) 195000 75900 87900 108000 123000 157000 229000 243000 373000 483000
2020-08-04 20:30 21.37 320000 955000 (1993) 64200 (1977) 195000 75900 87900 108000 123000 157000 229000 243000 373000 483000
2020-08-04 20:00 21.49 322000 955000 (1993) 64200 (1977) 195000 75900 87900 108000 123000 157000 229000 243000 373000 483000
2020-08-04 19:30 21.55 323000 955000 (1993) 64200 (1977) 195000 75900 87900 108000 123000 157000 229000 243000 373000 483000
2020-08-04 19:00 21.62 324000 955000 (1993) 64200 (1977) 195000 75900 87900 108000 123000 157000 229000 243000 373000 483000
2020-08-04 18:30 21.59 324000 955000 (1993) 64200 (1977) 195000 75900 87900 108000 123000 157000 229000 243000 373000 483000
2020-08-04 18:00 21.68 325000 955000 (1993) 64200 (1977) 195000 75900 87900 108000 123000 157000 229000 243000 373000 483000
2020-08-04 17:30 21.75 327000 955000 (1993) 64200 (1977) 195000 75900 87900 108000 123000 157000 229000 243000 373000 483000
2020-08-04 17:00 21.77 327000 955000 (1993) 64200 (1977) 195000 75900 87900 108000 123000 157000 229000 243000 373000 483000
2020-08-04 16:30 21.78 327000 955000 (1993) 64200 (1977) 195000 75900 87900 108000 123000 157000 229000 243000 373000 483000
2020-08-04 16:00 21.88 329000 955000 (1993) 64200 (1977) 195000 75900 87900 108000 123000 157000 229000 243000 373000 483000
2020-08-04 15:30 21.89 329000 955000 (1993) 64200 (1977) 195000 75900 87900 108000 123000 157000 229000 243000 373000 483000
2020-08-04 15:00 21.90 329000 955000 (1993) 64200 (1977) 195000 75900 87900 108000 123000 157000 229000 243000 373000 483000
2020-08-04 14:30 21.95 330000 955000 (1993) 64200 (1977) 195000 75900 87900 108000 123000 157000 229000 243000 373000 483000
2020-08-04 14:00 21.95 330000 955000 (1993) 64200 (1977) 195000 75900 87900 108000 123000 157000 229000 243000 373000 483000
2020-08-04 13:30 21.96 331000 955000 (1993) 64200 (1977) 195000 75900 87900 108000 123000 157000 229000 243000 373000 483000
2020-08-04 13:00 21.88 329000 955000 (1993) 64200 (1977) 195000 75900 87900 108000 123000 157000 229000 243000 373000 483000
2020-08-04 12:30 21.99 331000 955000 (1993) 64200 (1977) 195000 75900 87900 108000 123000 157000 229000 243000 373000 483000
2020-08-04 12:00 22.06 332000 955000 (1993) 64200 (1977) 195000 75900 87900 108000 123000 157000 229000 243000 373000 483000
2020-08-04 11:30 22.07 333000 955000 (1993) 64200 (1977) 195000 75900 87900 108000 123000 157000 229000 243000 373000 483000
2020-08-04 11:00 22.07 333000 955000 (1993) 64200 (1977) 195000 75900 87900 108000 123000 157000 229000 243000 373000 483000
2020-08-04 10:30 22.09 333000 955000 (1993) 64200 (1977) 195000 75900 87900 108000 123000 157000 229000 243000 373000 483000
2020-08-04 10:00 22.08 333000 955000 (1993) 64200 (1977) 195000 75900 87900 108000 123000 157000 229000 243000 373000 483000
2020-08-04 09:30 22.16 334000 955000 (1993) 64200 (1977) 195000 75900 87900 108000 123000 157000 229000 243000 373000 483000
2020-08-04 09:00 22.13 334000 955000 (1993) 64200 (1977) 195000 75900 87900 108000 123000 157000 229000 243000 373000 483000
2020-08-04 08:30 22.11 333000 955000 (1993) 64200 (1977) 195000 75900 87900 108000 123000 157000 229000 243000 373000 483000
2020-08-04 08:00 22.22 335000 955000 (1993) 64200 (1977) 195000 75900 87900 108000 123000 157000 229000 243000 373000 483000
2020-08-04 07:30 22.24 336000 955000 (1993) 64200 (1977) 195000 75900 87900 108000 123000 157000 229000 243000 373000 483000
2020-08-04 07:00 22.17 334000 955000 (1993) 64200 (1977) 195000 75900 87900 108000 123000 157000 229000 243000 373000 483000
2020-08-04 06:30 22.19 335000 955000 (1993) 64200 (1977) 195000 75900 87900 108000 123000 157000 229000 243000 373000 483000
2020-08-04 06:00 22.12 333000 955000 (1993) 64200 (1977) 195000 75900 87900 108000 123000 157000 229000 243000 373000 483000
2020-08-04 05:30 22.21 335000 955000 (1993) 64200 (1977) 195000 75900 87900 108000 123000 157000 229000 243000 373000 483000
2020-08-04 05:00 22.29 337000 955000 (1993) 64200 (1977) 195000 75900 87900 108000 123000 157000 229000 243000 373000 483000
2020-08-04 04:30 22.20 335000 955000 (1993) 64200 (1977) 195000 75900 87900 108000 123000 157000 229000 243000 373000 483000
2020-08-04 04:00 22.33 337000 955000 (1993) 64200 (1977) 195000 75900 87900 108000 123000 157000 229000 243000 373000 483000
2020-08-04 03:30 22.33 337000 955000 (1993) 64200 (1977) 195000 75900 87900 108000 123000 157000 229000 243000 373000 483000
2020-08-04 03:00 22.29 337000 955000 (1993) 64200 (1977) 195000 75900 87900 108000 123000 157000 229000 243000 373000 483000
2020-08-04 02:30 22.32 337000 955000 (1993) 64200 (1977) 195000 75900 87900 108000 123000 157000 229000 243000 373000 483000
2020-08-04 02:00 22.18 335000 955000 (1993) 64200 (1977) 195000 75900 87900 108000 123000 157000 229000 243000 373000 483000
2020-08-04 01:30 22.29 337000 955000 (1993) 64200 (1977) 195000 75900 87900 108000 123000 157000 229000 243000 373000 483000
2020-08-04 01:00 22.18 335000 955000 (1993) 64200 (1977) 195000 75900 87900 108000 123000 157000 229000 243000 373000 483000
2020-08-04 00:30 22.25 336000 955000 (1993) 64200 (1977) 195000 75900 87900 108000 123000 157000 229000 243000 373000 483000
2020-08-04 00:00 22.33 337000 955000 (1993) 64200 (1977) 195000 75900 87900 108000 123000 157000 229000 243000 373000 483000
2020-08-03 23:30 22.30 337000 938000 (1993) 64600 (1988) 200000 77900 89100 107000 126000 165000 238000 249000 399000 463000
2020-08-03 23:00 22.19 335000 938000 (1993) 64600 (1988) 200000 77900 89100 107000 126000 165000 238000 249000 399000 463000
2020-08-03 22:30 22.25 336000 938000 (1993) 64600 (1988) 200000 77900 89100 107000 126000 165000 238000 249000 399000 463000
2020-08-03 22:00 22.17 334000 938000 (1993) 64600 (1988) 200000 77900 89100 107000 126000 165000 238000 249000 399000 463000
2020-08-03 21:30 22.35 338000 938000 (1993) 64600 (1988) 200000 77900 89100 107000 126000 165000 238000 249000 399000 463000
2020-08-03 21:00 22.31 337000 938000 (1993) 64600 (1988) 200000 77900 89100 107000 126000 165000 238000 249000 399000 463000
2020-08-03 20:30 22.33 337000 938000 (1993) 64600 (1988) 200000 77900 89100 107000 126000 165000 238000 249000 399000 463000
2020-08-03 20:00 22.30 337000 938000 (1993) 64600 (1988) 200000 77900 89100 107000 126000 165000 238000 249000 399000 463000
2020-08-03 19:30 22.23 335000 938000 (1993) 64600 (1988) 200000 77900 89100 107000 126000 165000 238000 249000 399000 463000
2020-08-03 19:00 22.33 337000 938000 (1993) 64600 (1988) 200000 77900 89100 107000 126000 165000 238000 249000 399000 463000
2020-08-03 18:30 22.30 337000 938000 (1993) 64600 (1988) 200000 77900 89100 107000 126000 165000 238000 249000 399000 463000
2020-08-03 18:00 22.33 337000 938000 (1993) 64600 (1988) 200000 77900 89100 107000 126000 165000 238000 249000 399000 463000
2020-08-03 17:30 22.30 337000 938000 (1993) 64600 (1988) 200000 77900 89100 107000 126000 165000 238000 249000 399000 463000
2020-08-03 17:00 22.25 336000 938000 (1993) 64600 (1988) 200000 77900 89100 107000 126000 165000 238000 249000 399000 463000
2020-08-03 16:30 22.33 337000 938000 (1993) 64600 (1988) 200000 77900 89100 107000 126000 165000 238000 249000 399000 463000
2020-08-03 16:00 22.24 336000 938000 (1993) 64600 (1988) 200000 77900 89100 107000 126000 165000 238000 249000 399000 463000
2020-08-03 15:30 22.19 335000 938000 (1993) 64600 (1988) 200000 77900 89100 107000 126000 165000 238000 249000 399000 463000
2020-08-03 15:00 22.13 334000 938000 (1993) 64600 (1988) 200000 77900 89100 107000 126000 165000 238000 249000 399000 463000
2020-08-03 14:30 22.19 335000 938000 (1993) 64600 (1988) 200000 77900 89100 107000 126000 165000 238000 249000 399000 463000
2020-08-03 14:00 22.15 334000 938000 (1993) 64600 (1988) 200000 77900 89100 107000 126000 165000 238000 249000 399000 463000
2020-08-03 13:30 21.95 330000 938000 (1993) 64600 (1988) 200000 77900 89100 107000 126000 165000 238000 249000 399000 463000
2020-08-03 13:00 21.92 330000 938000 (1993) 64600 (1988) 200000 77900 89100 107000 126000 165000 238000 249000 399000 463000
2020-08-03 12:30 21.93 330000 938000 (1993) 64600 (1988) 200000 77900 89100 107000 126000 165000 238000 249000 399000 463000
2020-08-03 12:00 21.94 330000 938000 (1993) 64600 (1988) 200000 77900 89100 107000 126000 165000 238000 249000 399000 463000
2020-08-03 11:30 21.94 330000 938000 (1993) 64600 (1988) 200000 77900 89100 107000 126000 165000 238000 249000 399000 463000
2020-08-03 11:00 21.85 328000 938000 (1993) 64600 (1988) 200000 77900 89100 107000 126000 165000 238000 249000 399000 463000
2020-08-03 10:30 21.77 327000 938000 (1993) 64600 (1988) 200000 77900 89100 107000 126000 165000 238000 249000 399000 463000
2020-08-03 10:00 21.81 328000 938000 (1993) 64600 (1988) 200000 77900 89100 107000 126000 165000 238000 249000 399000 463000
2020-08-03 09:30 21.81 328000 938000 (1993) 64600 (1988) 200000 77900 89100 107000 126000 165000 238000 249000 399000 463000
2020-08-03 09:00 21.78 327000 938000 (1993) 64600 (1988) 200000 77900 89100 107000 126000 165000 238000 249000 399000 463000
2020-08-03 08:30 21.75 327000 938000 (1993) 64600 (1988) 200000 77900 89100 107000 126000 165000 238000 249000 399000 463000
2020-08-03 08:00 21.52 322000 938000 (1993) 64600 (1988) 200000 77900 89100 107000 126000 165000 238000 249000 399000 463000
2020-08-03 07:30 21.51 322000 938000 (1993) 64600 (1988) 200000 77900 89100 107000 126000 165000 238000 249000 399000 463000
2020-08-03 07:00 21.60 324000 938000 (1993) 64600 (1988) 200000 77900 89100 107000 126000 165000 238000 249000 399000 463000
2020-08-03 06:30 21.57 323000 938000 (1993) 64600 (1988) 200000 77900 89100 107000 126000 165000 238000 249000 399000 463000
2020-08-03 06:00 21.34 319000 938000 (1993) 64600 (1988) 200000 77900 89100 107000 126000 165000 238000 249000 399000 463000
2020-08-03 05:30 21.57 323000 938000 (1993) 64600 (1988) 200000 77900 89100 107000 126000 165000 238000 249000 399000 463000
2020-08-03 05:00 21.45 321000 938000 (1993) 64600 (1988) 200000 77900 89100 107000 126000 165000 238000 249000 399000 463000
2020-08-03 04:30 21.18 316000 938000 (1993) 64600 (1988) 200000 77900 89100 107000 126000 165000 238000 249000 399000 463000
2020-08-03 04:00 21.26 318000 938000 (1993) 64600 (1988) 200000 77900 89100 107000 126000 165000 238000 249000 399000 463000
2020-08-03 03:30 21.43 321000 938000 (1993) 64600 (1988) 200000 77900 89100 107000 126000 165000 238000 249000 399000 463000
2020-08-03 03:00 21.41 320000 938000 (1993) 64600 (1988) 200000 77900 89100 107000 126000 165000 238000 249000 399000 463000
2020-08-03 02:30 21.38 320000 938000 (1993) 64600 (1988) 200000 77900 89100 107000 126000 165000 238000 249000 399000 463000
2020-08-03 02:00 21.39 320000 938000 (1993) 64600 (1988) 200000 77900 89100 107000 126000 165000 238000 249000 399000 463000
2020-08-03 01:30 21.34 319000 938000 (1993) 64600 (1988) 200000 77900 89100 107000 126000 165000 238000 249000 399000 463000
2020-08-03 01:00 21.37 320000 938000 (1993) 64600 (1988) 200000 77900 89100 107000 126000 165000 238000 249000 399000 463000
2020-08-03 00:30 21.31 319000 938000 (1993) 64600 (1988) 200000 77900 89100 107000 126000 165000 238000 249000 399000 463000
2020-08-03 00:00 21.32 319000 938000 (1993) 64600 (1988) 200000 77900 89100 107000 126000 165000 238000 249000 399000 463000
2020-08-02 23:30 21.13 315000 947000 (1993) 63000 (1988) 205000 84100 90400 114000 124000 166000 238000 253000 412000 474000
2020-08-02 23:00 21.31 319000 947000 (1993) 63000 (1988) 205000 84100 90400 114000 124000 166000 238000 253000 412000 474000
2020-08-02 22:30 21.26 318000 947000 (1993) 63000 (1988) 205000 84100 90400 114000 124000 166000 238000 253000 412000 474000
2020-08-02 22:00 21.35 319000 947000 (1993) 63000 (1988) 205000 84100 90400 114000 124000 166000 238000 253000 412000 474000
2020-08-02 21:30 21.32 319000 947000 (1993) 63000 (1988) 205000 84100 90400 114000 124000 166000 238000 253000 412000 474000
2020-08-02 21:00 21.29 318000 947000 (1993) 63000 (1988) 205000 84100 90400 114000 124000 166000 238000 253000 412000 474000
2020-08-02 20:30 21.34 319000 947000 (1993) 63000 (1988) 205000 84100 90400 114000 124000 166000 238000 253000 412000 474000
2020-08-02 20:00 21.23 317000 947000 (1993) 63000 (1988) 205000 84100 90400 114000 124000 166000 238000 253000 412000 474000
2020-08-02 19:30 21.27 318000 947000 (1993) 63000 (1988) 205000 84100 90400 114000 124000 166000 238000 253000 412000 474000
2020-08-02 19:00 21.34 319000 947000 (1993) 63000 (1988) 205000 84100 90400 114000 124000 166000 238000 253000 412000 474000
2020-08-02 18:30 21.36 320000 947000 (1993) 63000 (1988) 205000 84100 90400 114000 124000 166000 238000 253000 412000 474000
2020-08-02 18:00 21.33 319000 947000 (1993) 63000 (1988) 205000 84100 90400 114000 124000 166000 238000 253000 412000 474000
2020-08-02 17:30 21.40 320000 947000 (1993) 63000 (1988) 205000 84100 90400 114000 124000 166000 238000 253000 412000 474000
2020-08-02 17:00 21.40 320000 947000 (1993) 63000 (1988) 205000 84100 90400 114000 124000 166000 238000 253000 412000 474000
2020-08-02 16:30 21.35 319000 947000 (1993) 63000 (1988) 205000 84100 90400 114000 124000 166000 238000 253000 412000 474000
2020-08-02 16:00 21.43 321000 947000 (1993) 63000 (1988) 205000 84100 90400 114000 124000 166000 238000 253000 412000 474000
2020-08-02 15:30 21.36 320000 947000 (1993) 63000 (1988) 205000 84100 90400 114000 124000 166000 238000 253000 412000 474000
2020-08-02 15:00 21.45 321000 947000 (1993) 63000 (1988) 205000 84100 90400 114000 124000 166000 238000 253000 412000 474000
2020-08-02 14:30 21.36 320000 947000 (1993) 63000 (1988) 205000 84100 90400 114000 124000 166000 238000 253000 412000 474000
2020-08-02 14:00 21.38 320000 947000 (1993) 63000 (1988) 205000 84100 90400 114000 124000 166000 238000 253000 412000 474000
2020-08-02 13:30 21.20 317000 947000 (1993) 63000 (1988) 205000 84100 90400 114000 124000 166000 238000 253000 412000 474000
2020-08-02 13:00 21.11 315000 947000 (1993) 63000 (1988) 205000 84100 90400 114000 124000 166000 238000 253000 412000 474000
2020-08-02 12:30 21.35 319000 947000 (1993) 63000 (1988) 205000 84100 90400 114000 124000 166000 238000 253000 412000 474000
2020-08-02 12:00 21.34 319000 947000 (1993) 63000 (1988) 205000 84100 90400 114000 124000 166000 238000 253000 412000 474000
2020-08-02 11:30 21.35 319000 947000 (1993) 63000 (1988) 205000 84100 90400 114000 124000 166000 238000 253000 412000 474000
2020-08-02 11:00 21.23 317000 947000 (1993) 63000 (1988) 205000 84100 90400 114000 124000 166000 238000 253000 412000 474000
2020-08-02 10:30 21.33 319000 947000 (1993) 63000 (1988) 205000 84100 90400 114000 124000 166000 238000 253000 412000 474000
2020-08-02 10:00 21.27 318000 947000 (1993) 63000 (1988) 205000 84100 90400 114000 124000 166000 238000 253000 412000 474000
2020-08-02 09:30 21.19 317000 947000 (1993) 63000 (1988) 205000 84100 90400 114000 124000 166000 238000 253000 412000 474000
2020-08-02 09:00 21.16 316000 947000 (1993) 63000 (1988) 205000 84100 90400 114000 124000 166000 238000 253000 412000 474000
2020-08-02 08:30 21.20 317000 947000 (1993) 63000 (1988) 205000 84100 90400 114000 124000 166000 238000 253000 412000 474000
2020-08-02 08:00 21.22 317000 947000 (1993) 63000 (1988) 205000 84100 90400 114000 124000 166000 238000 253000 412000 474000
2020-08-02 07:30 21.08 315000 947000 (1993) 63000 (1988) 205000 84100 90400 114000 124000 166000 238000 253000 412000 474000
2020-08-02 07:00 21.21 317000 947000 (1993) 63000 (1988) 205000 84100 90400 114000 124000 166000 238000 253000 412000 474000
2020-08-02 06:30 21.11 315000 947000 (1993) 63000 (1988) 205000 84100 90400 114000 124000 166000 238000 253000 412000 474000
2020-08-02 06:00 21.12 315000 947000 (1993) 63000 (1988) 205000 84100 90400 114000 124000 166000 238000 253000 412000 474000
2020-08-02 05:30 21.00 313000 947000 (1993) 63000 (1988) 205000 84100 90400 114000 124000 166000 238000 253000 412000 474000
2020-08-02 05:00 20.96 312000 947000 (1993) 63000 (1988) 205000 84100 90400 114000 124000 166000 238000 253000 412000 474000
2020-08-02 04:30 21.02 313000 947000 (1993) 63000 (1988) 205000 84100 90400 114000 124000 166000 238000 253000 412000 474000
2020-08-02 04:00 20.99 313000 947000 (1993) 63000 (1988) 205000 84100 90400 114000 124000 166000 238000 253000 412000 474000
2020-08-02 03:30 20.92 312000 947000 (1993) 63000 (1988) 205000 84100 90400 114000 124000 166000 238000 253000 412000 474000
2020-08-02 03:00 20.86 311000 947000 (1993) 63000 (1988) 205000 84100 90400 114000 124000 166000 238000 253000 412000 474000
2020-08-02 02:30 20.62 306000 947000 (1993) 63000 (1988) 205000 84100 90400 114000 124000 166000 238000 253000 412000 474000
2020-08-02 02:00 20.84 310000 947000 (1993) 63000 (1988) 205000 84100 90400 114000 124000 166000 238000 253000 412000 474000
2020-08-02 01:30 20.80 310000 947000 (1993) 63000 (1988) 205000 84100 90400 114000 124000 166000 238000 253000 412000 474000
2020-08-02 01:00 20.73 308000 947000 (1993) 63000 (1988) 205000 84100 90400 114000 124000 166000 238000 253000 412000 474000
2020-08-02 00:30 20.63 307000 947000 (1993) 63000 (1988) 205000 84100 90400 114000 124000 166000 238000 253000 412000 474000
2020-08-02 00:00 20.37 302000 947000 (1993) 63000 (1988) 205000 84100 90400 114000 124000 166000 238000 253000 412000 474000
2020-08-01 23:30 20.49 304000 950000 (1993) 63200 (1988) 209000 82100 91800 114000 131000 173000 237000 259000 417000 495000
2020-08-01 23:00 20.33 301000 950000 (1993) 63200 (1988) 209000 82100 91800 114000 131000 173000 237000 259000 417000 495000
2020-08-01 22:30 20.45 303000 950000 (1993) 63200 (1988) 209000 82100 91800 114000 131000 173000 237000 259000 417000 495000
2020-08-01 22:00 20.26 300000 950000 (1993) 63200 (1988) 209000 82100 91800 114000 131000 173000 237000 259000 417000 495000
2020-08-01 21:30 20.17 299000 950000 (1993) 63200 (1988) 209000 82100 91800 114000 131000 173000 237000 259000 417000 495000
2020-08-01 21:00 20.02 296000 950000 (1993) 63200 (1988) 209000 82100 91800 114000 131000 173000 237000 259000 417000 495000
2020-08-01 20:30 20.11 298000 950000 (1993) 63200 (1988) 209000 82100 91800 114000 131000 173000 237000 259000 417000 495000
2020-08-01 20:00 20.07 297000 950000 (1993) 63200 (1988) 209000 82100 91800 114000 131000 173000 237000 259000 417000 495000
2020-08-01 19:30 19.79 292000 950000 (1993) 63200 (1988) 209000 82100 91800 114000 131000 173000 237000 259000 417000 495000
2020-08-01 19:00 19.78 292000 950000 (1993) 63200 (1988) 209000 82100 91800 114000 131000 173000 237000 259000 417000 495000
2020-08-01 18:30 19.59 289000 950000 (1993) 63200 (1988) 209000 82100 91800 114000 131000 173000 237000 259000 417000 495000
2020-08-01 18:00 19.65 290000 950000 (1993) 63200 (1988) 209000 82100 91800 114000 131000 173000 237000 259000 417000 495000
2020-08-01 17:30 19.40 285000 950000 (1993) 63200 (1988) 209000 82100 91800 114000 131000 173000 237000 259000 417000 495000
2020-08-01 17:00 19.36 285000 950000 (1993) 63200 (1988) 209000 82100 91800 114000 131000 173000 237000 259000 417000 495000
2020-08-01 16:30 19.21 282000 950000 (1993) 63200 (1988) 209000 82100 91800 114000 131000 173000 237000 259000 417000 495000
2020-08-01 16:00 19.19 282000 950000 (1993) 63200 (1988) 209000 82100 91800 114000 131000 173000 237000 259000 417000 495000
2020-08-01 15:30 19.17 282000 950000 (1993) 63200 (1988) 209000 82100 91800 114000 131000 173000 237000 259000 417000 495000
2020-08-01 15:00 19.08 280000 950000 (1993) 63200 (1988) 209000 82100 91800 114000 131000 173000 237000 259000 417000 495000
2020-08-01 14:30 18.84 276000 950000 (1993) 63200 (1988) 209000 82100 91800 114000 131000 173000 237000 259000 417000 495000
2020-08-01 14:00 18.76 275000 950000 (1993) 63200 (1988) 209000 82100 91800 114000 131000 173000 237000 259000 417000 495000
2020-08-01 13:30 18.66 273000 950000 (1993) 63200 (1988) 209000 82100 91800 114000 131000 173000 237000 259000 417000 495000
2020-08-01 13:00 18.65 273000 950000 (1993) 63200 (1988) 209000 82100 91800 114000 131000 173000 237000 259000 417000 495000
2020-08-01 12:30 18.51 271000 950000 (1993) 63200 (1988) 209000 82100 91800 114000 131000 173000 237000 259000 417000 495000
2020-08-01 12:00 18.50 271000 950000 (1993) 63200 (1988) 209000 82100 91800 114000 131000 173000 237000 259000 417000 495000
2020-08-01 11:30 18.36 268000 950000 (1993) 63200 (1988) 209000 82100 91800 114000 131000 173000 237000 259000 417000 495000
2020-08-01 11:00 18.31 268000 950000 (1993) 63200 (1988) 209000 82100 91800 114000 131000 173000 237000 259000 417000 495000
2020-08-01 10:30 18.07 264000 950000 (1993) 63200 (1988) 209000 82100 91800 114000 131000 173000 237000 259000 417000 495000
2020-08-01 10:00 18.03 263000 950000 (1993) 63200 (1988) 209000 82100 91800 114000 131000 173000 237000 259000 417000 495000
2020-08-01 09:30 18.00 263000 950000 (1993) 63200 (1988) 209000 82100 91800 114000 131000 173000 237000 259000 417000 495000
2020-08-01 09:00 17.95 262000 950000 (1993) 63200 (1988) 209000 82100 91800 114000 131000 173000 237000 259000 417000 495000
2020-08-01 08:30 17.78 259000 950000 (1993) 63200 (1988) 209000 82100 91800 114000 131000 173000 237000 259000 417000 495000
2020-08-01 08:00 17.73 258000 950000 (1993) 63200 (1988) 209000 82100 91800 114000 131000 173000 237000 259000 417000 495000
2020-08-01 07:30 17.76 259000 950000 (1993) 63200 (1988) 209000 82100 91800 114000 131000 173000 237000 259000 417000 495000
2020-08-01 07:00 17.49 255000 950000 (1993) 63200 (1988) 209000 82100 91800 114000 131000 173000 237000 259000 417000 495000
2020-08-01 06:30 17.47 254000 950000 (1993) 63200 (1988) 209000 82100 91800 114000 131000 173000 237000 259000 417000 495000
2020-08-01 06:00 17.66 257000 950000 (1993) 63200 (1988) 209000 82100 91800 114000 131000 173000 237000 259000 417000 495000
2020-08-01 05:30 17.66 257000 950000 (1993) 63200 (1988) 209000 82100 91800 114000 131000 173000 237000 259000 417000 495000
2020-08-01 05:00 17.60 256000 950000 (1993) 63200 (1988) 209000 82100 91800 114000 131000 173000 237000 259000 417000 495000
2020-08-01 04:30 17.55 256000 950000 (1993) 63200 (1988) 209000 82100 91800 114000 131000 173000 237000 259000 417000 495000
2020-08-01 04:00 17.51 255000 950000 (1993) 63200 (1988) 209000 82100 91800 114000 131000 173000 237000 259000 417000 495000
2020-08-01 03:30 17.53 255000 950000 (1993) 63200 (1988) 209000 82100 91800 114000 131000 173000 237000 259000 417000 495000
2020-08-01 03:00 17.15 249000 950000 (1993) 63200 (1988) 209000 82100 91800 114000 131000 173000 237000 259000 417000 495000
2020-08-01 02:30 17.43 254000 950000 (1993) 63200 (1988) 209000 82100 91800 114000 131000 173000 237000 259000 417000 495000
2020-08-01 02:00 17.26 251000 950000 (1993) 63200 (1988) 209000 82100 91800 114000 131000 173000 237000 259000 417000 495000
2020-08-01 01:30 17.42 253000 950000 (1993) 63200 (1988) 209000 82100 91800 114000 131000 173000 237000 259000 417000 495000
2020-08-01 01:00 17.17 250000 950000 (1993) 63200 (1988) 209000 82100 91800 114000 131000 173000 237000 259000 417000 495000
2020-08-01 00:30 17.35 252000 950000 (1993) 63200 (1988) 209000 82100 91800 114000 131000 173000 237000 259000 417000 495000
2020-08-01 00:00 17.28 251000 950000 (1993) 63200 (1988) 209000 82100 91800 114000 131000 173000 237000 259000 417000 495000
2020-07-31 23:30 17.30 252000 930000 (1993) 65900 (1988) 212000 86900 92500 113000 128000 180000 241000 263000 418000 501000
2020-07-31 23:00 17.24 251000 930000 (1993) 65900 (1988) 212000 86900 92500 113000 128000 180000 241000 263000 418000 501000
2020-07-31 22:30 17.20 250000 930000 (1993) 65900 (1988) 212000 86900 92500 113000 128000 180000 241000 263000 418000 501000
2020-07-31 22:00 17.21 250000 930000 (1993) 65900 (1988) 212000 86900 92500 113000 128000 180000 241000 263000 418000 501000
2020-07-31 21:30 17.21 250000 930000 (1993) 65900 (1988) 212000 86900 92500 113000 128000 180000 241000 263000 418000 501000
2020-07-31 21:00 17.19 250000 930000 (1993) 65900 (1988) 212000 86900 92500 113000 128000 180000 241000 263000 418000 501000
2020-07-31 20:30 17.17 250000 930000 (1993) 65900 (1988) 212000 86900 92500 113000 128000 180000 241000 263000 418000 501000
2020-07-31 20:00 17.14 249000 930000 (1993) 65900 (1988) 212000 86900 92500 113000 128000 180000 241000 263000 418000 501000
2020-07-31 19:30 17.06 248000 930000 (1993) 65900 (1988) 212000 86900 92500 113000 128000 180000 241000 263000 418000 501000
2020-07-31 19:00 16.94 246000 930000 (1993) 65900 (1988) 212000 86900 92500 113000 128000 180000 241000 263000 418000 501000
2020-07-31 18:30 17.10 249000 930000 (1993) 65900 (1988) 212000 86900 92500 113000 128000 180000 241000 263000 418000 501000
2020-07-31 18:00 16.93 246000 930000 (1993) 65900 (1988) 212000 86900 92500 113000 128000 180000 241000 263000 418000 501000
2020-07-31 17:30 17.10 249000 930000 (1993) 65900 (1988) 212000 86900 92500 113000 128000 180000 241000 263000 418000 501000
2020-07-31 17:00 17.05 248000 930000 (1993) 65900 (1988) 212000 86900 92500 113000 128000 180000 241000 263000 418000 501000
2020-07-31 16:30 17.03 247000 930000 (1993) 65900 (1988) 212000 86900 92500 113000 128000 180000 241000 263000 418000 501000
2020-07-31 16:00 16.97 247000 930000 (1993) 65900 (1988) 212000 86900 92500 113000 128000 180000 241000 263000 418000 501000
2020-07-31 15:30 16.99 247000 930000 (1993) 65900 (1988) 212000 86900 92500 113000 128000 180000 241000 263000 418000 501000
2020-07-31 15:00 16.96 246000 930000 (1993) 65900 (1988) 212000 86900 92500 113000 128000 180000 241000 263000 418000 501000
2020-07-31 14:30 16.84 245000 930000 (1993) 65900 (1988) 212000 86900 92500 113000 128000 180000 241000 263000 418000 501000
2020-07-31 14:00 16.68 242000 930000 (1993) 65900 (1988) 212000 86900 92500 113000 128000 180000 241000 263000 418000 501000
2020-07-31 13:30 16.85 245000 930000 (1993) 65900 (1988) 212000 86900 92500 113000 128000 180000 241000 263000 418000 501000
2020-07-31 13:00 16.74 243000 930000 (1993) 65900 (1988) 212000 86900 92500 113000 128000 180000 241000 263000 418000 501000
2020-07-31 12:30 16.84 245000 930000 (1993) 65900 (1988) 212000 86900 92500 113000 128000 180000 241000 263000 418000 501000
2020-07-31 12:00 16.78 244000 930000 (1993) 65900 (1988) 212000 86900 92500 113000 128000 180000 241000 263000 418000 501000
2020-07-31 11:30 16.73 243000 930000 (1993) 65900 (1988) 212000 86900 92500 113000 128000 180000 241000 263000 418000 501000
2020-07-31 11:00 16.72 243000 930000 (1993) 65900 (1988) 212000 86900 92500 113000 128000 180000 241000 263000 418000 501000
2020-07-31 10:30 16.72 243000 930000 (1993) 65900 (1988) 212000 86900 92500 113000 128000 180000 241000 263000 418000 501000
2020-07-31 10:00 16.63 241000 930000 (1993) 65900 (1988) 212000 86900 92500 113000 128000 180000 241000 263000 418000 501000
2020-07-31 09:30 16.62 241000 930000 (1993) 65900 (1988) 212000 86900 92500 113000 128000 180000 241000 263000 418000 501000
2020-07-31 09:00 16.55 240000 930000 (1993) 65900 (1988) 212000 86900 92500 113000 128000 180000 241000 263000 418000 501000
2020-07-31 08:30 16.53 240000 930000 (1993) 65900 (1988) 212000 86900 92500 113000 128000 180000 241000 263000 418000 501000
2020-07-31 08:00 16.48 239000 930000 (1993) 65900 (1988) 212000 86900 92500 113000 128000 180000 241000 263000 418000 501000
2020-07-31 07:30 16.47 239000 930000 (1993) 65900 (1988) 212000 86900 92500 113000 128000 180000 241000 263000 418000 501000
2020-07-31 07:00 16.40 238000 930000 (1993) 65900 (1988) 212000 86900 92500 113000 128000 180000 241000 263000 418000 501000
2020-07-31 06:30 16.20 235000 930000 (1993) 65900 (1988) 212000 86900 92500 113000 128000 180000 241000 263000 418000 501000
2020-07-31 06:00 16.35 237000 930000 (1993) 65900 (1988) 212000 86900 92500 113000 128000 180000 241000 263000 418000 501000
2020-07-31 05:30 16.23 235000 930000 (1993) 65900 (1988) 212000 86900 92500 113000 128000 180000 241000 263000 418000 501000
2020-07-31 05:00 16.31 237000 930000 (1993) 65900 (1988) 212000 86900 92500 113000 128000 180000 241000 263000 418000 501000
2020-07-31 04:30 16.20 235000 930000 (1993) 65900 (1988) 212000 86900 92500 113000 128000 180000 241000 263000 418000 501000
2020-07-31 04:00 16.10 233000 930000 (1993) 65900 (1988) 212000 86900 92500 113000 128000 180000 241000 263000 418000 501000
2020-07-31 03:30 16.06 233000 930000 (1993) 65900 (1988) 212000 86900 92500 113000 128000 180000 241000 263000 418000 501000
2020-07-31 03:00 16.05 233000 930000 (1993) 65900 (1988) 212000 86900 92500 113000 128000 180000 241000 263000 418000 501000
2020-07-31 02:30 16.00 232000 930000 (1993) 65900 (1988) 212000 86900 92500 113000 128000 180000 241000 263000 418000 501000
2020-07-31 02:00 16.05 233000 930000 (1993) 65900 (1988) 212000 86900 92500 113000 128000 180000 241000 263000 418000 501000
2020-07-31 01:30 15.90 231000 930000 (1993) 65900 (1988) 212000 86900 92500 113000 128000 180000 241000 263000 418000 501000
2020-07-31 01:00 15.89 230000 930000 (1993) 65900 (1988) 212000 86900 92500 113000 128000 180000 241000 263000 418000 501000
2020-07-31 00:30 15.84 230000 930000 (1993) 65900 (1988) 212000 86900 92500 113000 128000 180000 241000 263000 418000 501000
2020-07-31 00:00 15.74 228000 930000 (1993) 65900 (1988) 212000 86900 92500 113000 128000 180000 241000 263000 418000 501000
2020-07-30 23:30 15.72 228000 911000 (1993) 65300 (1988) 215000 89300 94300 117000 125000 183000 249000 274000 416000 487000
2020-07-30 23:00 15.74 228000 911000 (1993) 65300 (1988) 215000 89300 94300 117000 125000 183000 249000 274000 416000 487000
2020-07-30 22:30 15.60 226000 911000 (1993) 65300 (1988) 215000 89300 94300 117000 125000 183000 249000 274000 416000 487000
2020-07-30 22:00 15.58 226000 911000 (1993) 65300 (1988) 215000 89300 94300 117000 125000 183000 249000 274000 416000 487000
2020-07-30 21:30 15.55 225000 911000 (1993) 65300 (1988) 215000 89300 94300 117000 125000 183000 249000 274000 416000 487000
2020-07-30 21:00 15.48 224000 911000 (1993) 65300 (1988) 215000 89300 94300 117000 125000 183000 249000 274000 416000 487000
2020-07-30 20:30 15.46 224000 911000 (1993) 65300 (1988) 215000 89300 94300 117000 125000 183000 249000 274000 416000 487000
2020-07-30 20:00 15.56 226000 911000 (1993) 65300 (1988) 215000 89300 94300 117000 125000 183000 249000 274000 416000 487000
2020-07-30 19:30 15.48 224000 911000 (1993) 65300 (1988) 215000 89300 94300 117000 125000 183000 249000 274000 416000 487000
2020-07-30 19:00 15.44 224000 911000 (1993) 65300 (1988) 215000 89300 94300 117000 125000 183000 249000 274000 416000 487000
2020-07-30 18:30 15.44 224000 911000 (1993) 65300 (1988) 215000 89300 94300 117000 125000 183000 249000 274000 416000 487000
2020-07-30 18:00 15.35 223000 911000 (1993) 65300 (1988) 215000 89300 94300 117000 125000 183000 249000 274000 416000 487000
2020-07-30 17:30 15.29 222000 911000 (1993) 65300 (1988) 215000 89300 94300 117000 125000 183000 249000 274000 416000 487000
2020-07-30 17:00 15.27 221000 911000 (1993) 65300 (1988) 215000 89300 94300 117000 125000 183000 249000 274000 416000 487000
2020-07-30 16:30 15.26 221000 911000 (1993) 65300 (1988) 215000 89300 94300 117000 125000 183000 249000 274000 416000 487000
2020-07-30 16:00 15.17 220000 911000 (1993) 65300 (1988) 215000 89300 94300 117000 125000 183000 249000 274000 416000 487000
2020-07-30 15:30 15.00 218000 911000 (1993) 65300 (1988) 215000 89300 94300 117000 125000 183000 249000 274000 416000 487000
2020-07-30 15:00 15.00 218000 911000 (1993) 65300 (1988) 215000 89300 94300 117000 125000 183000 249000 274000 416000 487000
2020-07-30 14:30 15.01 218000 911000 (1993) 65300 (1988) 215000 89300 94300 117000 125000 183000 249000 274000 416000 487000
2020-07-30 14:00 14.95 217000 911000 (1993) 65300 (1988) 215000 89300 94300 117000 125000 183000 249000 274000 416000 487000
2020-07-30 13:30 14.89 216000 911000 (1993) 65300 (1988) 215000 89300 94300 117000 125000 183000 249000 274000 416000 487000
2020-07-30 13:00 14.93 217000 911000 (1993) 65300 (1988) 215000 89300 94300 117000 125000 183000 249000 274000 416000 487000
2020-07-30 12:30 14.83 215000 911000 (1993) 65300 (1988) 215000 89300 94300 117000 125000 183000 249000 274000 416000 487000
2020-07-30 12:00 14.87 216000 911000 (1993) 65300 (1988) 215000 89300 94300 117000 125000 183000 249000 274000 416000 487000
2020-07-30 11:30 14.77 214000 911000 (1993) 65300 (1988) 215000 89300 94300 117000 125000 183000 249000 274000 416000 487000
2020-07-30 11:00 14.85 215000 911000 (1993) 65300 (1988) 215000 89300 94300 117000 125000 183000 249000 274000 416000 487000
2020-07-30 10:30 14.80 215000 911000 (1993) 65300 (1988) 215000 89300 94300 117000 125000 183000 249000 274000 416000 487000
2020-07-30 10:00 14.77 214000 911000 (1993) 65300 (1988) 215000 89300 94300 117000 125000 183000 249000 274000 416000 487000
2020-07-30 09:30 14.77 214000 911000 (1993) 65300 (1988) 215000 89300 94300 117000 125000 183000 249000 274000 416000 487000
2020-07-30 09:00 14.79 215000 911000 (1993) 65300 (1988) 215000 89300 94300 117000 125000 183000 249000 274000 416000 487000
2020-07-30 08:30 14.80 215000 911000 (1993) 65300 (1988) 215000 89300 94300 117000 125000 183000 249000 274000 416000 487000
2020-07-30 08:00 14.85 215000 911000 (1993) 65300 (1988) 215000 89300 94300 117000 125000 183000 249000 274000 416000 487000
2020-07-30 07:30 14.77 214000 911000 (1993) 65300 (1988) 215000 89300 94300 117000 125000 183000 249000 274000 416000 487000
2020-07-30 07:00 14.83 215000 911000 (1993) 65300 (1988) 215000 89300 94300 117000 125000 183000 249000 274000 416000 487000
2020-07-30 06:30 14.85 215000 911000 (1993) 65300 (1988) 215000 89300 94300 117000 125000 183000 249000 274000 416000 487000
2020-07-30 06:00 14.91 216000 911000 (1993) 65300 (1988) 215000 89300 94300 117000 125000 183000 249000 274000 416000 487000
2020-07-30 05:30 14.85 215000 911000 (1993) 65300 (1988) 215000 89300 94300 117000 125000 183000 249000 274000 416000 487000
2020-07-30 05:00 14.92 216000 911000 (1993) 65300 (1988) 215000 89300 94300 117000 125000 183000 249000 274000 416000 487000
2020-07-30 04:30 14.92 216000 911000 (1993) 65300 (1988) 215000 89300 94300 117000 125000 183000 249000 274000 416000 487000
2020-07-30 04:00 14.90 216000 911000 (1993) 65300 (1988) 215000 89300 94300 117000 125000 183000 249000 274000 416000 487000
2020-07-30 03:30 14.89 216000 911000 (1993) 65300 (1988) 215000 89300 94300 117000 125000 183000 249000 274000 416000 487000
2020-07-30 03:00 14.86 216000 911000 (1993) 65300 (1988) 215000 89300 94300 117000 125000 183000 249000 274000 416000 487000
2020-07-30 02:30 14.84 215000 911000 (1993) 65300 (1988) 215000 89300 94300 117000 125000 183000 249000 274000 416000 487000
2020-07-30 02:00 14.82 215000 911000 (1993) 65300 (1988) 215000 89300 94300 117000 125000 183000 249000 274000 416000 487000
2020-07-30 01:30 14.90 216000 911000 (1993) 65300 (1988) 215000 89300 94300 117000 125000 183000 249000 274000 416000 487000
2020-07-30 01:00 14.98 217000 911000 (1993) 65300 (1988) 215000 89300 94300 117000 125000 183000 249000 274000 416000 487000
2020-07-30 00:30 14.98 217000 911000 (1993) 65300 (1988) 215000 89300 94300 117000 125000 183000 249000 274000 416000 487000
2020-07-30 00:00 14.89 216000 911000 (1993) 65300 (1988) 215000 89300 94300 117000 125000 183000 249000 274000 416000 487000
2020-07-29 23:30 15.04 218000 906000 (1993) 68800 (1988) 218000 85500 93500 109000 129000 183000 264000 280000 412000 465000
2020-07-29 23:00 14.96 217000 906000 (1993) 68800 (1988) 218000 85500 93500 109000 129000 183000 264000 280000 412000 465000
2020-07-29 22:30 14.90 216000 906000 (1993) 68800 (1988) 218000 85500 93500 109000 129000 183000 264000 280000 412000 465000
2020-07-29 22:00 15.05 218000 906000 (1993) 68800 (1988) 218000 85500 93500 109000 129000 183000 264000 280000 412000 465000
2020-07-29 21:30 15.10 219000 906000 (1993) 68800 (1988) 218000 85500 93500 109000 129000 183000 264000 280000 412000 465000
2020-07-29 21:00 14.98 217000 906000 (1993) 68800 (1988) 218000 85500 93500 109000 129000 183000 264000 280000 412000 465000
2020-07-29 20:30 15.01 218000 906000 (1993) 68800 (1988) 218000 85500 93500 109000 129000 183000 264000 280000 412000 465000
2020-07-29 20:00 14.98 217000 906000 (1993) 68800 (1988) 218000 85500 93500 109000 129000 183000 264000 280000 412000 465000
2020-07-29 19:30 15.02 218000 906000 (1993) 68800 (1988) 218000 85500 93500 109000 129000 183000 264000 280000 412000 465000
2020-07-29 19:00 15.04 218000 906000 (1993) 68800 (1988) 218000 85500 93500 109000 129000 183000 264000 280000 412000 465000
2020-07-29 18:30 15.06 218000 906000 (1993) 68800 (1988) 218000 85500 93500 109000 129000 183000 264000 280000 412000 465000
2020-07-29 18:00 15.13 219000 906000 (1993) 68800 (1988) 218000 85500 93500 109000 129000 183000 264000 280000 412000 465000
2020-07-29 17:30 15.15 220000 906000 (1993) 68800 (1988) 218000 85500 93500 109000 129000 183000 264000 280000 412000 465000
2020-07-29 17:00 15.04 218000 906000 (1993) 68800 (1988) 218000 85500 93500 109000 129000 183000 264000 280000 412000 465000
2020-07-29 16:30 15.12 219000 906000 (1993) 68800 (1988) 218000 85500 93500 109000 129000 183000 264000 280000 412000 465000
2020-07-29 16:00 14.96 217000 906000 (1993) 68800 (1988) 218000 85500 93500 109000 129000 183000 264000 280000 412000 465000
2020-07-29 15:30 15.22 221000 906000 (1993) 68800 (1988) 218000 85500 93500 109000 129000 183000 264000 280000 412000 465000
2020-07-29 15:00 15.15 220000 906000 (1993) 68800 (1988) 218000 85500 93500 109000 129000 183000 264000 280000 412000 465000
2020-07-29 14:30 15.23 221000 906000 (1993) 68800 (1988) 218000 85500 93500 109000 129000 183000 264000 280000 412000 465000
2020-07-29 14:00 15.35 223000 906000 (1993) 68800 (1988) 218000 85500 93500 109000 129000 183000 264000 280000 412000 465000
2020-07-29 13:30 15.25 221000 906000 (1993) 68800 (1988) 218000 85500 93500 109000 129000 183000 264000 280000 412000 465000
2020-07-29 13:00 15.21 221000 906000 (1993) 68800 (1988) 218000 85500 93500 109000 129000 183000 264000 280000 412000 465000
2020-07-29 12:30 15.27 221000 906000 (1993) 68800 (1988) 218000 85500 93500 109000 129000 183000 264000 280000 412000 465000
2020-07-29 12:00 15.23 221000 906000 (1993) 68800 (1988) 218000 85500 93500 109000 129000 183000 264000 280000 412000 465000
2020-07-29 11:30 15.29 222000 906000 (1993) 68800 (1988) 218000 85500 93500 109000 129000 183000 264000 280000 412000 465000
2020-07-29 11:00 15.31 222000 906000 (1993) 68800 (1988) 218000 85500 93500 109000 129000 183000 264000 280000 412000 465000
2020-07-29 10:30 15.34 222000 906000 (1993) 68800 (1988) 218000 85500 93500 109000 129000 183000 264000 280000 412000 465000
2020-07-29 10:00 15.33 222000 906000 (1993) 68800 (1988) 218000 85500 93500 109000 129000 183000 264000 280000 412000 465000
2020-07-29 09:30 15.36 223000 906000 (1993) 68800 (1988) 218000 85500 93500 109000 129000 183000 264000 280000 412000 465000
2020-07-29 09:00 15.37 223000 906000 (1993) 68800 (1988) 218000 85500 93500 109000 129000 183000 264000 280000 412000 465000
2020-07-29 08:30 15.34 222000 906000 (1993) 68800 (1988) 218000 85500 93500 109000 129000 183000 264000 280000 412000 465000
2020-07-29 08:00 15.43 224000 906000 (1993) 68800 (1988) 218000 85500 93500 109000 129000 183000 264000 280000 412000 465000
2020-07-29 07:30 15.42 224000 906000 (1993) 68800 (1988) 218000 85500 93500 109000 129000 183000 264000 280000 412000 465000
2020-07-29 07:00 15.39 223000 906000 (1993) 68800 (1988) 218000 85500 93500 109000 129000 183000 264000 280000 412000 465000
2020-07-29 06:30 15.48 224000 906000 (1993) 68800 (1988) 218000 85500 93500 109000 129000 183000 264000 280000 412000 465000
2020-07-29 06:00 15.54 225000 906000 (1993) 68800 (1988) 218000 85500 93500 109000 129000 183000 264000 280000 412000 465000
2020-07-29 05:30 15.12 219000 906000 (1993) 68800 (1988) 218000 85500 93500 109000 129000 183000 264000 280000 412000 465000
2020-07-29 05:00 15.58 226000 906000 (1993) 68800 (1988) 218000 85500 93500 109000 129000 183000 264000 280000 412000 465000
2020-07-29 04:30 15.59 226000 906000 (1993) 68800 (1988) 218000 85500 93500 109000 129000 183000 264000 280000 412000 465000
2020-07-29 04:00 15.39 223000 906000 (1993) 68800 (1988) 218000 85500 93500 109000 129000 183000 264000 280000 412000 465000
2020-07-29 03:30 15.58 226000 906000 (1993) 68800 (1988) 218000 85500 93500 109000 129000 183000 264000 280000 412000 465000
2020-07-29 03:00 15.68 227000 906000 (1993) 68800 (1988) 218000 85500 93500 109000 129000 183000 264000 280000 412000 465000
2020-07-29 02:30 15.65 227000 906000 (1993) 68800 (1988) 218000 85500 93500 109000 129000 183000 264000 280000 412000 465000
2020-07-29 02:00 15.72 228000 906000 (1993) 68800 (1988) 218000 85500 93500 109000 129000 183000 264000 280000 412000 465000
2020-07-29 01:30 15.70 228000 906000 (1993) 68800 (1988) 218000 85500 93500 109000 129000 183000 264000 280000 412000 465000
2020-07-29 01:00 15.74 228000 906000 (1993) 68800 (1988) 218000 85500 93500 109000 129000 183000 264000 280000 412000 465000
2020-07-29 00:30 15.74 228000 906000 (1993) 68800 (1988) 218000 85500 93500 109000 129000 183000 264000 280000 412000 465000
2020-07-29 00:00 15.76 228000 906000 (1993) 68800 (1988) 218000 85500 93500 109000 129000 183000 264000 280000 412000 465000
2020-07-28 23:30 15.83 230000 911000 (1993) 73700 (1988) 220000 86100 96700 107000 132000 185000 263000 285000 420000 452000
2020-07-28 23:00 15.77 229000 911000 (1993) 73700 (1988) 220000 86100 96700 107000 132000 185000 263000 285000 420000 452000
2020-07-28 22:30 15.83 230000 911000 (1993) 73700 (1988) 220000 86100 96700 107000 132000 185000 263000 285000 420000 452000
2020-07-28 22:00 15.88 230000 911000 (1993) 73700 (1988) 220000 86100 96700 107000 132000 185000 263000 285000 420000 452000
2020-07-28 21:30 15.87 230000 911000 (1993) 73700 (1988) 220000 86100 96700 107000 132000 185000 263000 285000 420000 452000
2020-07-28 21:00 15.94 231000 911000 (1993) 73700 (1988) 220000 86100 96700 107000 132000 185000 263000 285000 420000 452000
2020-07-28 20:30 15.97 232000 911000 (1993) 73700 (1988) 220000 86100 96700 107000 132000 185000 263000 285000 420000 452000
2020-07-28 20:00 16.00 232000 911000 (1993) 73700 (1988) 220000 86100 96700 107000 132000 185000 263000 285000 420000 452000
2020-07-28 19:30 16.01 232000 911000 (1993) 73700 (1988) 220000 86100 96700 107000 132000 185000 263000 285000 420000 452000
2020-07-28 19:00 15.99 232000 911000 (1993) 73700 (1988) 220000 86100 96700 107000 132000 185000 263000 285000 420000 452000
2020-07-28 18:30 15.99 232000 911000 (1993) 73700 (1988) 220000 86100 96700 107000 132000 185000 263000 285000 420000 452000
2020-07-28 18:00 16.03 232000 911000 (1993) 73700 (1988) 220000 86100 96700 107000 132000 185000 263000 285000 420000 452000
2020-07-28 17:30 16.06 233000 911000 (1993) 73700 (1988) 220000 86100 96700 107000 132000 185000 263000 285000 420000 452000
2020-07-28 17:00 15.99 232000 911000 (1993) 73700 (1988) 220000 86100 96700 107000 132000 185000 263000 285000 420000 452000
2020-07-28 16:30 16.06 233000 911000 (1993) 73700 (1988) 220000 86100 96700 107000 132000 185000 263000 285000 420000 452000
2020-07-28 16:00 16.02 232000 911000 (1993) 73700 (1988) 220000 86100 96700 107000 132000 185000 263000 285000 420000 452000
2020-07-28 15:30 16.04 233000 911000 (1993) 73700 (1988) 220000 86100 96700 107000 132000 185000 263000 285000 420000 452000
2020-07-28 15:00 16.04 233000 911000 (1993) 73700 (1988) 220000 86100 96700 107000 132000 185000 263000 285000 420000 452000
2020-07-28 14:30 16.07 233000 911000 (1993) 73700 (1988) 220000 86100 96700 107000 132000 185000 263000 285000 420000 452000
2020-07-28 14:00 16.01 232000 911000 (1993) 73700 (1988) 220000 86100 96700 107000 132000 185000 263000 285000 420000 452000
2020-07-28 13:30 16.05 233000 911000 (1993) 73700 (1988) 220000 86100 96700 107000 132000 185000 263000 285000 420000 452000
2020-07-28 13:00 16.06 233000 911000 (1993) 73700 (1988) 220000 86100 96700 107000 132000 185000 263000 285000 420000 452000
2020-07-28 12:30 16.00 232000 911000 (1993) 73700 (1988) 220000 86100 96700 107000 132000 185000 263000 285000 420000 452000
2020-07-28 12:00 16.01 232000 911000 (1993) 73700 (1988) 220000 86100 96700 107000 132000 185000 263000 285000 420000 452000
2020-07-28 11:30 16.09 233000 911000 (1993) 73700 (1988) 220000 86100 96700 107000 132000 185000 263000 285000 420000 452000
2020-07-28 11:00 16.10 233000 911000 (1993) 73700 (1988) 220000 86100 96700 107000 132000 185000 263000 285000 420000 452000
2020-07-28 10:30 16.07 233000 911000 (1993) 73700 (1988) 220000 86100 96700 107000 132000 185000 263000 285000 420000 452000
2020-07-28 10:00 16.10 233000 911000 (1993) 73700 (1988) 220000 86100 96700 107000 132000 185000 263000 285000 420000 452000
2020-07-28 09:30 16.08 233000 911000 (1993) 73700 (1988) 220000 86100 96700 107000 132000 185000 263000 285000 420000 452000
2020-07-28 09:00 16.11 234000 911000 (1993) 73700 (1988) 220000 86100 96700 107000 132000 185000 263000 285000 420000 452000
2020-07-28 08:30 16.13 234000 911000 (1993) 73700 (1988) 220000 86100 96700 107000 132000 185000 263000 285000 420000 452000
2020-07-28 08:00 16.06 233000 911000 (1993) 73700 (1988) 220000 86100 96700 107000 132000 185000 263000 285000 420000 452000
2020-07-28 07:30 16.11 234000 911000 (1993) 73700 (1988) 220000 86100 96700 107000 132000 185000 263000 285000 420000 452000
2020-07-28 07:00 16.14 234000 911000 (1993) 73700 (1988) 220000 86100 96700 107000 132000 185000 263000 285000 420000 452000
2020-07-28 06:30 16.21 235000 911000 (1993) 73700 (1988) 220000 86100 96700 107000 132000 185000 263000 285000 420000 452000
2020-07-28 06:00 16.16 234000 911000 (1993) 73700 (1988) 220000 86100 96700 107000 132000 185000 263000 285000 420000 452000
2020-07-28 05:30 16.22 235000 911000 (1993) 73700 (1988) 220000 86100 96700 107000 132000 185000 263000 285000 420000 452000
2020-07-28 05:00 16.21 235000 911000 (1993) 73700 (1988) 220000 86100 96700 107000 132000 185000 263000 285000 420000 452000
2020-07-28 04:30 16.25 236000 911000 (1993) 73700 (1988) 220000 86100 96700 107000 132000 185000 263000 285000 420000 452000
2020-07-28 04:00 16.30 236000 911000 (1993) 73700 (1988) 220000 86100 96700 107000 132000 185000 263000 285000 420000 452000
2020-07-28 03:30 16.32 237000 911000 (1993) 73700 (1988) 220000 86100 96700 107000 132000 185000 263000 285000 420000 452000
2020-07-28 03:00 16.32 237000 911000 (1993) 73700 (1988) 220000 86100 96700 107000 132000 185000 263000 285000 420000 452000
2020-07-28 02:30 16.34 237000 911000 (1993) 73700 (1988) 220000 86100 96700 107000 132000 185000 263000 285000 420000 452000
2020-07-28 02:00 16.36 237000 911000 (1993) 73700 (1988) 220000 86100 96700 107000 132000 185000 263000 285000 420000 452000
2020-07-28 01:30 16.41 238000 911000 (1993) 73700 (1988) 220000 86100 96700 107000 132000 185000 263000 285000 420000 452000
2020-07-28 01:00 16.32 237000 911000 (1993) 73700 (1988) 220000 86100 96700 107000 132000 185000 263000 285000 420000 452000
2020-07-28 00:30 16.40 238000 911000 (1993) 73700 (1988) 220000 86100 96700 107000 132000 185000 263000 285000 420000 452000
2020-07-28 00:00 16.41 238000 911000 (1993) 73700 (1988) 220000 86100 96700 107000 132000 185000 263000 285000 420000 452000
2020-07-27 23:30 16.33 237000 916000 (1993) 78500 (1988) 225000 90000 96100 116000 135000 188000 269000 297000 395000 464000
2020-07-27 23:00 16.38 238000 916000 (1993) 78500 (1988) 225000 90000 96100 116000 135000 188000 269000 297000 395000 464000
2020-07-27 22:30 16.38 238000 916000 (1993) 78500 (1988) 225000 90000 96100 116000 135000 188000 269000 297000 395000 464000
2020-07-27 22:00 16.40 238000 916000 (1993) 78500 (1988) 225000 90000 96100 116000 135000 188000 269000 297000 395000 464000
2020-07-27 21:30 16.52 240000 916000 (1993) 78500 (1988) 225000 90000 96100 116000 135000 188000 269000 297000 395000 464000
2020-07-27 21:00 16.42 238000 916000 (1993) 78500 (1988) 225000 90000 96100 116000 135000 188000 269000 297000 395000 464000
2020-07-27 20:30 16.55 240000 916000 (1993) 78500 (1988) 225000 90000 96100 116000 135000 188000 269000 297000 395000 464000
2020-07-27 20:00 16.51 240000 916000 (1993) 78500 (1988) 225000 90000 96100 116000 135000 188000 269000 297000 395000 464000
2020-07-27 19:30 16.55 240000 916000 (1993) 78500 (1988) 225000 90000 96100 116000 135000 188000 269000 297000 395000 464000
2020-07-27 19:00 16.59 241000 916000 (1993) 78500 (1988) 225000 90000 96100 116000 135000 188000 269000 297000 395000 464000
2020-07-27 18:30 16.65 242000 916000 (1993) 78500 (1988) 225000 90000 96100 116000 135000 188000 269000 297000 395000 464000
2020-07-27 18:00 16.61 241000 916000 (1993) 78500 (1988) 225000 90000 96100 116000 135000 188000 269000 297000 395000 464000
2020-07-27 17:30 16.70 242000 916000 (1993) 78500 (1988) 225000 90000 96100 116000 135000 188000 269000 297000 395000 464000
2020-07-27 17:00 16.77 243000 916000 (1993) 78500 (1988) 225000 90000 96100 116000 135000 188000 269000 297000 395000 464000
2020-07-27 16:30 16.79 244000 916000 (1993) 78500 (1988) 225000 90000 96100 116000 135000 188000 269000 297000 395000 464000
2020-07-27 16:00 16.74 243000 916000 (1993) 78500 (1988) 225000 90000 96100 116000 135000 188000 269000 297000 395000 464000
2020-07-27 15:30 16.81 244000 916000 (1993) 78500 (1988) 225000 90000 96100 116000 135000 188000 269000 297000 395000 464000
2020-07-27 15:00 16.84 245000 916000 (1993) 78500 (1988) 225000 90000 96100 116000 135000 188000 269000 297000 395000 464000
2020-07-27 14:30 16.86 245000 916000 (1993) 78500 (1988) 225000 90000 96100 116000 135000 188000 269000 297000 395000 464000
2020-07-27 14:00 16.84 245000 916000 (1993) 78500 (1988) 225000 90000 96100 116000 135000 188000 269000 297000 395000 464000
2020-07-27 13:30 16.84 245000 916000 (1993) 78500 (1988) 225000 90000 96100 116000 135000 188000 269000 297000 395000 464000
2020-07-27 13:00 16.85 245000 916000 (1993) 78500 (1988) 225000 90000 96100 116000 135000 188000 269000 297000 395000 464000
2020-07-27 12:30 16.86 245000 916000 (1993) 78500 (1988) 225000 90000 96100 116000 135000 188000 269000 297000 395000 464000
2020-07-27 12:00 16.87 245000 916000 (1993) 78500 (1988) 225000 90000 96100 116000 135000 188000 269000 297000 395000 464000
2020-07-27 11:30 16.90 245000 916000 (1993) 78500 (1988) 225000 90000 96100 116000 135000 188000 269000 297000 395000 464000
2020-07-27 11:00 16.91 246000 916000 (1993) 78500 (1988) 225000 90000 96100 116000 135000 188000 269000 297000 395000 464000
2020-07-27 10:30 16.97 247000 916000 (1993) 78500 (1988) 225000 90000 96100 116000 135000 188000 269000 297000 395000 464000
2020-07-27 10:00 16.91 246000 916000 (1993) 78500 (1988) 225000 90000 96100 116000 135000 188000 269000 297000 395000 464000
2020-07-27 09:30 16.93 246000 916000 (1993) 78500 (1988) 225000 90000 96100 116000 135000 188000 269000 297000 395000 464000
2020-07-27 09:00 17.07 248000 916000 (1993) 78500 (1988) 225000 90000 96100 116000 135000 188000 269000 297000 395000 464000
2020-07-27 08:30 16.91 246000 916000 (1993) 78500 (1988) 225000 90000 96100 116000 135000 188000 269000 297000 395000 464000
2020-07-27 08:00 17.07 248000 916000 (1993) 78500 (1988) 225000 90000 96100 116000 135000 188000 269000 297000 395000 464000
2020-07-27 07:30 17.14 249000 916000 (1993) 78500 (1988) 225000 90000 96100 116000 135000 188000 269000 297000 395000 464000
2020-07-27 07:00 17.17 250000 916000 (1993) 78500 (1988) 225000 90000 96100 116000 135000 188000 269000 297000 395000 464000
2020-07-27 06:30 17.16 249000 916000 (1993) 78500 (1988) 225000 90000 96100 116000 135000 188000 269000 297000 395000 464000
2020-07-27 06:00 17.11 249000 916000 (1993) 78500 (1988) 225000 90000 96100 116000 135000 188000 269000 297000 395000 464000
2020-07-27 05:30 17.22 250000 916000 (1993) 78500 (1988) 225000 90000 96100 116000 135000 188000 269000 297000 395000 464000
2020-07-27 05:00 17.25 251000 916000 (1993) 78500 (1988) 225000 90000 96100 116000 135000 188000 269000 297000 395000 464000
2020-07-27 04:30 17.26 251000 916000 (1993) 78500 (1988) 225000 90000 96100 116000 135000 188000 269000 297000 395000 464000
2020-07-27 04:00 17.21 250000 916000 (1993) 78500 (1988) 225000 90000 96100 116000 135000 188000 269000 297000 395000 464000
2020-07-27 03:30 17.35 252000 916000 (1993) 78500 (1988) 225000 90000 96100 116000 135000 188000 269000 297000 395000 464000
2020-07-27 03:00 17.33 252000 916000 (1993) 78500 (1988) 225000 90000 96100 116000 135000 188000 269000 297000 395000 464000
2020-07-27 02:30 17.35 252000 916000 (1993) 78500 (1988) 225000 90000 96100 116000 135000 188000 269000 297000 395000 464000
2020-07-27 02:00 17.43 254000 916000 (1993) 78500 (1988) 225000 90000 96100 116000 135000 188000 269000 297000 395000 464000
2020-07-27 01:30 17.44 254000 916000 (1993) 78500 (1988) 225000 90000 96100 116000 135000 188000 269000 297000 395000 464000
2020-07-27 01:00 17.46 254000 916000 (1993) 78500 (1988) 225000 90000 96100 116000 135000 188000 269000 297000 395000 464000
2020-07-27 00:30 17.50 255000 916000 (1993) 78500 (1988) 225000 90000 96100 116000 135000 188000 269000 297000 395000 464000
2020-07-27 00:00 17.57 256000 916000 (1993) 78500 (1988) 225000 90000 96100 116000 135000 188000 269000 297000 395000 464000
2020-07-26 23:30 17.56 256000 908000 (1993) 76200 (1988) 231000 89400 99300 126000 140000 189000 281000 305000 389000 496000
2020-07-26 23:00 17.57 256000 908000 (1993) 76200 (1988) 231000 89400 99300 126000 140000 189000 281000 305000 389000 496000
2020-07-26 22:30 17.64 257000 908000 (1993) 76200 (1988) 231000 89400 99300 126000 140000 189000 281000 305000 389000 496000
2020-07-26 22:00 17.69 258000 908000 (1993) 76200 (1988) 231000 89400 99300 126000 140000 189000 281000 305000 389000 496000
2020-07-26 21:30 17.75 259000 908000 (1993) 76200 (1988) 231000 89400 99300 126000 140000 189000 281000 305000 389000 496000
2020-07-26 21:00 17.82 260000 908000 (1993) 76200 (1988) 231000 89400 99300 126000 140000 189000 281000 305000 389000 496000
2020-07-26 20:30 17.80 259000 908000 (1993) 76200 (1988) 231000 89400 99300 126000 140000 189000 281000 305000 389000 496000
2020-07-26 20:00 17.94 262000 908000 (1993) 76200 (1988) 231000 89400 99300 126000 140000 189000 281000 305000 389000 496000
2020-07-26 19:30 18.00 263000 908000 (1993) 76200 (1988) 231000 89400 99300 126000 140000 189000 281000 305000 389000 496000
2020-07-26 19:00 17.98 262000 908000 (1993) 76200 (1988) 231000 89400 99300 126000 140000 189000 281000 305000 389000 496000
2020-07-26 18:30 18.09 264000 908000 (1993) 76200 (1988) 231000 89400 99300 126000 140000 189000 281000 305000 389000 496000
2020-07-26 18:00 18.11 264000 908000 (1993) 76200 (1988) 231000 89400 99300 126000 140000 189000 281000 305000 389000 496000
2020-07-26 17:30 18.14 265000 908000 (1993) 76200 (1988) 231000 89400 99300 126000 140000 189000 281000 305000 389000 496000
2020-07-26 17:00 18.15 265000 908000 (1993) 76200 (1988) 231000 89400 99300 126000 140000 189000 281000 305000 389000 496000
2020-07-26 16:30 18.15 265000 908000 (1993) 76200 (1988) 231000 89400 99300 126000 140000 189000 281000 305000 389000 496000
2020-07-26 16:00 18.10 264000 908000 (1993) 76200 (1988) 231000 89400 99300 126000 140000 189000 281000 305000 389000 496000
2020-07-26 15:30 18.14 265000 908000 (1993) 76200 (1988) 231000 89400 99300 126000 140000 189000 281000 305000 389000 496000
2020-07-26 15:00 18.23 266000 908000 (1993) 76200 (1988) 231000 89400 99300 126000 140000 189000 281000 305000 389000 496000
2020-07-26 14:30 18.19 266000 908000 (1993) 76200 (1988) 231000 89400 99300 126000 140000 189000 281000 305000 389000 496000
2020-07-26 14:00 18.22 266000 908000 (1993) 76200 (1988) 231000 89400 99300 126000 140000 189000 281000 305000 389000 496000
2020-07-26 13:30 18.23 266000 908000 (1993) 76200 (1988) 231000 89400 99300 126000 140000 189000 281000 305000 389000 496000
2020-07-26 13:00 18.20 266000 908000 (1993) 76200 (1988) 231000 89400 99300 126000 140000 189000 281000 305000 389000 496000
2020-07-26 12:30 18.26 267000 908000 (1993) 76200 (1988) 231000 89400 99300 126000 140000 189000 281000 305000 389000 496000
2020-07-26 12:00 18.25 267000 908000 (1993) 76200 (1988) 231000 89400 99300 126000 140000 189000 281000 305000 389000 496000
2020-07-26 11:30 18.29 267000 908000 (1993) 76200 (1988) 231000 89400 99300 126000 140000 189000 281000 305000 389000 496000
2020-07-26 11:00 18.26 267000 908000 (1993) 76200 (1988) 231000 89400 99300 126000 140000 189000 281000 305000 389000 496000
2020-07-26 10:30 18.15 265000 908000 (1993) 76200 (1988) 231000 89400 99300 126000 140000 189000 281000 305000 389000 496000
2020-07-26 10:00 18.22 266000 908000 (1993) 76200 (1988) 231000 89400 99300 126000 140000 189000 281000 305000 389000 496000
2020-07-26 09:30 18.38 269000 908000 (1993) 76200 (1988) 231000 89400 99300 126000 140000 189000 281000 305000 389000 496000
2020-07-26 09:00 18.34 268000 908000 (1993) 76200 (1988) 231000 89400 99300 126000 140000 189000 281000 305000 389000 496000
2020-07-26 08:30 18.42 269000 908000 (1993) 76200 (1988) 231000 89400 99300 126000 140000 189000 281000 305000 389000 496000
2020-07-26 08:00 18.39 269000 908000 (1993) 76200 (1988) 231000 89400 99300 126000 140000 189000 281000 305000 389000 496000
2020-07-26 07:30 18.48 270000 908000 (1993) 76200 (1988) 231000 89400 99300 126000 140000 189000 281000 305000 389000 496000
2020-07-26 07:00 18.52 271000 908000 (1993) 76200 (1988) 231000 89400 99300 126000 140000 189000 281000 305000 389000 496000
2020-07-26 06:30 18.50 271000 908000 (1993) 76200 (1988) 231000 89400 99300 126000 140000 189000 281000 305000 389000 496000
2020-07-26 06:00 18.52 271000 908000 (1993) 76200 (1988) 231000 89400 99300 126000 140000 189000 281000 305000 389000 496000
2020-07-26 05:30 18.49 270000 908000 (1993) 76200 (1988) 231000 89400 99300 126000 140000 189000 281000 305000 389000 496000
2020-07-26 05:00 18.62 273000 908000 (1993) 76200 (1988) 231000 89400 99300 126000 140000 189000 281000 305000 389000 496000
2020-07-26 04:30 18.55 271000 908000 (1993) 76200 (1988) 231000 89400 99300 126000 140000 189000 281000 305000 389000 496000
2020-07-26 04:00 18.66 273000 908000 (1993) 76200 (1988) 231000 89400 99300 126000 140000 189000 281000 305000 389000 496000
2020-07-26 03:30 18.66 273000 908000 (1993) 76200 (1988) 231000 89400 99300 126000 140000 189000 281000 305000 389000 496000
2020-07-26 03:00 18.73 274000 908000 (1993) 76200 (1988) 231000 89400 99300 126000 140000 189000 281000 305000 389000 496000
2020-07-26 02:30 18.57 272000 908000 (1993) 76200 (1988) 231000 89400 99300 126000 140000 189000 281000 305000 389000 496000
2020-07-26 02:00 18.76 275000 908000 (1993) 76200 (1988) 231000 89400 99300 126000 140000 189000 281000 305000 389000 496000
2020-07-26 01:30 18.57 272000 908000 (1993) 76200 (1988) 231000 89400 99300 126000 140000 189000 281000 305000 389000 496000
2020-07-26 01:00 18.72 274000 908000 (1993) 76200 (1988) 231000 89400 99300 126000 140000 189000 281000 305000 389000 496000
2020-07-26 00:30 18.66 273000 908000 (1993) 76200 (1988) 231000 89400 99300 126000 140000 189000 281000 305000 389000 496000
2020-07-26 00:00 18.84 276000 908000 (1993) 76200 (1988) 231000 89400 99300 126000 140000 189000 281000 305000 389000 496000
2020-07-25 23:30 18.73 274000 905000 (1993) 71600 (1988) 234000 92700 99300 116000 144000 195000 278000 307000 400000 521000
2020-07-25 23:00 18.88 277000 905000 (1993) 71600 (1988) 234000 92700 99300 116000 144000 195000 278000 307000 400000 521000
2020-07-25 22:30 18.88 277000 905000 (1993) 71600 (1988) 234000 92700 99300 116000 144000 195000 278000 307000 400000 521000
2020-07-25 22:00 18.86 277000 905000 (1993) 71600 (1988) 234000 92700 99300 116000 144000 195000 278000 307000 400000 521000
2020-07-25 21:30 18.80 276000 905000 (1993) 71600 (1988) 234000 92700 99300 116000 144000 195000 278000 307000 400000 521000
2020-07-25 21:00 18.91 277000 905000 (1993) 71600 (1988) 234000 92700 99300 116000 144000 195000 278000 307000 400000 521000
2020-07-25 20:30 18.95 278000 905000 (1993) 71600 (1988) 234000 92700 99300 116000 144000 195000 278000 307000 400000 521000
2020-07-25 20:00 18.93 278000 905000 (1993) 71600 (1988) 234000 92700 99300 116000 144000 195000 278000 307000 400000 521000
2020-07-25 19:30 18.89 277000 905000 (1993) 71600 (1988) 234000 92700 99300 116000 144000 195000 278000 307000 400000 521000
2020-07-25 19:00 19.03 279000 905000 (1993) 71600 (1988) 234000 92700 99300 116000 144000 195000 278000 307000 400000 521000
2020-07-25 18:30 18.96 278000 905000 (1993) 71600 (1988) 234000 92700 99300 116000 144000 195000 278000 307000 400000 521000
2020-07-25 18:00 18.92 278000 905000 (1993) 71600 (1988) 234000 92700 99300 116000 144000 195000 278000 307000 400000 521000
2020-07-25 17:30 18.87 277000 905000 (1993) 71600 (1988) 234000 92700 99300 116000 144000 195000 278000 307000 400000 521000
2020-07-25 17:00 18.87 277000 905000 (1993) 71600 (1988) 234000 92700 99300 116000 144000 195000 278000 307000 400000 521000
2020-07-25 16:30 18.96 278000 905000 (1993) 71600 (1988) 234000 92700 99300 116000 144000 195000 278000 307000 400000 521000
2020-07-25 16:00 19.01 279000 905000 (1993) 71600 (1988) 234000 92700 99300 116000 144000 195000 278000 307000 400000 521000
2020-07-25 15:30 18.98 278000 905000 (1993) 71600 (1988) 234000 92700 99300 116000 144000 195000 278000 307000 400000 521000
2020-07-25 15:00 18.95 278000 905000 (1993) 71600 (1988) 234000 92700 99300 116000 144000 195000 278000 307000 400000 521000
2020-07-25 14:30 18.97 278000 905000 (1993) 71600 (1988) 234000 92700 99300 116000 144000 195000 278000 307000 400000 521000
2020-07-25 14:00 18.86 277000 905000 (1993) 71600 (1988) 234000 92700 99300 116000 144000 195000 278000 307000 400000 521000
2020-07-25 13:30 18.89 277000 905000 (1993) 71600 (1988) 234000 92700 99300 116000 144000 195000 278000 307000 400000 521000
2020-07-25 13:00 18.94 278000 905000 (1993) 71600 (1988) 234000 92700 99300 116000 144000 195000 278000 307000 400000 521000
2020-07-25 12:30 18.77 275000 905000 (1993) 71600 (1988) 234000 92700 99300 116000 144000 195000 278000 307000 400000 521000
2020-07-25 12:00 18.84 276000 905000 (1993) 71600 (1988) 234000 92700 99300 116000 144000 195000 278000 307000 400000 521000
2020-07-25 11:30 18.75 275000 905000 (1993) 71600 (1988) 234000 92700 99300 116000 144000 195000 278000 307000 400000 521000
2020-07-25 11:00 18.80 276000 905000 (1993) 71600 (1988) 234000 92700 99300 116000 144000 195000 278000 307000 400000 521000
2020-07-25 10:30 18.74 275000 905000 (1993) 71600 (1988) 234000 92700 99300 116000 144000 195000 278000 307000 400000 521000
2020-07-25 10:00 18.76 275000 905000 (1993) 71600 (1988) 234000 92700 99300 116000 144000 195000 278000 307000 400000 521000
2020-07-25 09:30 18.74 275000 905000 (1993) 71600 (1988) 234000 92700 99300 116000 144000 195000 278000 307000 400000 521000
2020-07-25 09:00 18.70 274000 905000 (1993) 71600 (1988) 234000 92700 99300 116000 144000 195000 278000 307000 400000 521000
2020-07-25 08:30 18.73 274000 905000 (1993) 71600 (1988) 234000 92700 99300 116000 144000 195000 278000 307000 400000 521000
2020-07-25 08:00 18.72 274000 905000 (1993) 71600 (1988) 234000 92700 99300 116000 144000 195000 278000 307000 400000 521000
2020-07-25 07:30 18.65 273000 905000 (1993) 71600 (1988) 234000 92700 99300 116000 144000 195000 278000 307000 400000 521000
2020-07-25 07:00 18.52 271000 905000 (1993) 71600 (1988) 234000 92700 99300 116000 144000 195000 278000 307000 400000 521000
2020-07-25 06:30 18.57 272000 905000 (1993) 71600 (1988) 234000 92700 99300 116000 144000 195000 278000 307000 400000 521000
2020-07-25 06:00 18.60 272000 905000 (1993) 71600 (1988) 234000 92700 99300 116000 144000 195000 278000 307000 400000 521000
2020-07-25 05:30 18.56 272000 905000 (1993) 71600 (1988) 234000 92700 99300 116000 144000 195000 278000 307000 400000 521000
2020-07-25 05:00 18.53 271000 905000 (1993) 71600 (1988) 234000 92700 99300 116000 144000 195000 278000 307000 400000 521000
2020-07-25 04:30 18.51 271000 905000 (1993) 71600 (1988) 234000 92700 99300 116000 144000 195000 278000 307000 400000 521000
2020-07-25 04:00 18.52 271000 905000 (1993) 71600 (1988) 234000 92700 99300 116000 144000 195000 278000 307000 400000 521000
2020-07-25 03:30 18.52 271000 905000 (1993) 71600 (1988) 234000 92700 99300 116000 144000 195000 278000 307000 400000 521000
2020-07-25 03:00 18.49 270000 905000 (1993) 71600 (1988) 234000 92700 99300 116000 144000 195000 278000 307000 400000 521000
2020-07-25 02:30 18.50 271000 905000 (1993) 71600 (1988) 234000 92700 99300 116000 144000 195000 278000 307000 400000 521000
2020-07-25 02:00 18.45 270000 905000 (1993) 71600 (1988) 234000 92700 99300 116000 144000 195000 278000 307000 400000 521000
2020-07-25 01:30 18.40 269000 905000 (1993) 71600 (1988) 234000 92700 99300 116000 144000 195000 278000 307000 400000 521000
2020-07-25 01:00 18.32 268000 905000 (1993) 71600 (1988) 234000 92700 99300 116000 144000 195000 278000 307000 400000 521000
2020-07-25 00:30 18.31 268000 905000 (1993) 71600 (1988) 234000 92700 99300 116000 144000 195000 278000 307000 400000 521000
2020-07-25 00:00 18.17 265000 905000 (1993) 71600 (1988) 234000 92700 99300 116000 144000 195000 278000 307000 400000 521000
2020-07-24 23:30 18.33 268000 929000 (1993) 69600 (1988) 234000 93900 103000 120000 141000 194000 272000 284000 389000 530000
2020-07-24 23:00 18.26 267000 929000 (1993) 69600 (1988) 234000 93900 103000 120000 141000 194000 272000 284000 389000 530000
2020-07-24 22:30 18.34 268000 929000 (1993) 69600 (1988) 234000 93900 103000 120000 141000 194000 272000 284000 389000 530000
2020-07-24 22:00 18.22 266000 929000 (1993) 69600 (1988) 234000 93900 103000 120000 141000 194000 272000 284000 389000 530000
2020-07-24 21:30 18.32 268000 929000 (1993) 69600 (1988) 234000 93900 103000 120000 141000 194000 272000 284000 389000 530000
2020-07-24 21:00 18.16 265000 929000 (1993) 69600 (1988) 234000 93900 103000 120000 141000 194000 272000 284000 389000 530000
2020-07-24 20:30 18.36 268000 929000 (1993) 69600 (1988) 234000 93900 103000 120000 141000 194000 272000 284000 389000 530000
2020-07-24 20:00 18.32 268000 929000 (1993) 69600 (1988) 234000 93900 103000 120000 141000 194000 272000 284000 389000 530000
2020-07-24 19:30 18.38 269000 929000 (1993) 69600 (1988) 234000 93900 103000 120000 141000 194000 272000 284000 389000 530000
2020-07-24 19:00 18.39 269000 929000 (1993) 69600 (1988) 234000 93900 103000 120000 141000 194000 272000 284000 389000 530000
2020-07-24 18:30 18.43 270000 929000 (1993) 69600 (1988) 234000 93900 103000 120000 141000 194000 272000 284000 389000 530000
2020-07-24 18:00 18.41 269000 929000 (1993) 69600 (1988) 234000 93900 103000 120000 141000 194000 272000 284000 389000 530000
2020-07-24 17:30 18.20 266000 929000 (1993) 69600 (1988) 234000 93900 103000 120000 141000 194000 272000 284000 389000 530000
2020-07-24 17:00 18.35 268000 929000 (1993) 69600 (1988) 234000 93900 103000 120000 141000 194000 272000 284000 389000 530000
2020-07-24 16:30 18.35 268000 929000 (1993) 69600 (1988) 234000 93900 103000 120000 141000 194000 272000 284000 389000 530000
2020-07-24 16:00 18.38 269000 929000 (1993) 69600 (1988) 234000 93900 103000 120000 141000 194000 272000 284000 389000 530000
2020-07-24 15:30 18.16 265000 929000 (1993) 69600 (1988) 234000 93900 103000 120000 141000 194000 272000 284000 389000 530000
2020-07-24 15:00 18.07 264000 929000 (1993) 69600 (1988) 234000 93900 103000 120000 141000 194000 272000 284000 389000 530000
2020-07-24 14:30 18.33 268000 929000 (1993) 69600 (1988) 234000 93900 103000 120000 141000 194000 272000 284000 389000 530000
2020-07-24 14:00 18.25 267000 929000 (1993) 69600 (1988) 234000 93900 103000 120000 141000 194000 272000 284000 389000 530000
2020-07-24 13:30 18.23 266000 929000 (1993) 69600 (1988) 234000 93900 103000 120000 141000 194000 272000 284000 389000 530000
2020-07-24 13:00 18.19 266000 929000 (1993) 69600 (1988) 234000 93900 103000 120000 141000 194000 272000 284000 389000 530000
2020-07-24 12:30 18.15 265000 929000 (1993) 69600 (1988) 234000 93900 103000 120000 141000 194000 272000 284000 389000 530000
2020-07-24 12:00 18.17 265000 929000 (1993) 69600 (1988) 234000 93900 103000 120000 141000 194000 272000 284000 389000 530000
2020-07-24 11:30 18.00 263000 929000 (1993) 69600 (1988) 234000 93900 103000 120000 141000 194000 272000 284000 389000 530000
2020-07-24 11:00 18.06 264000 929000 (1993) 69600 (1988) 234000 93900 103000 120000 141000 194000 272000 284000 389000 530000
2020-07-24 10:30 17.96 262000 929000 (1993) 69600 (1988) 234000 93900 103000 120000 141000 194000 272000 284000 389000 530000
2020-07-24 10:00 17.95 262000 929000 (1993) 69600 (1988) 234000 93900 103000 120000 141000 194000 272000 284000 389000 530000
2020-07-24 09:30 17.89 261000 929000 (1993) 69600 (1988) 234000 93900 103000 120000 141000 194000 272000 284000 389000 530000
2020-07-24 09:00 17.89 261000 929000 (1993) 69600 (1988) 234000 93900 103000 120000 141000 194000 272000 284000 389000 530000
2020-07-24 08:30 17.86 260000 929000 (1993) 69600 (1988) 234000 93900 103000 120000 141000 194000 272000 284000 389000 530000
2020-07-24 08:00 17.96 262000 929000 (1993) 69600 (1988) 234000 93900 103000 120000 141000 194000 272000 284000 389000 530000
2020-07-24 07:30 17.79 259000 929000 (1993) 69600 (1988) 234000 93900 103000 120000 141000 194000 272000 284000 389000 530000
2020-07-24 07:00 17.91 261000 929000 (1993) 69600 (1988) 234000 93900 103000 120000 141000 194000 272000 284000 389000 530000
2020-07-24 06:30 17.90 261000 929000 (1993) 69600 (1988) 234000 93900 103000 120000 141000 194000 272000 284000 389000 530000
2020-07-24 06:00 17.72 258000 929000 (1993) 69600 (1988) 234000 93900 103000 120000 141000 194000 272000 284000 389000 530000
2020-07-24 05:30 17.78 259000 929000 (1993) 69600 (1988) 234000 93900 103000 120000 141000 194000 272000 284000 389000 530000
2020-07-24 05:00 17.78 259000 929000 (1993) 69600 (1988) 234000 93900 103000 120000 141000 194000 272000 284000 389000 530000
2020-07-24 04:30 17.74 258000 929000 (1993) 69600 (1988) 234000 93900 103000 120000 141000 194000 272000 284000 389000 530000
2020-07-24 04:00 17.64 257000 929000 (1993) 69600 (1988) 234000 93900 103000 120000 141000 194000 272000 284000 389000 530000
2020-07-24 03:30 17.69 258000 929000 (1993) 69600 (1988) 234000 93900 103000 120000 141000 194000 272000 284000 389000 530000
2020-07-24 03:00 17.68 258000 929000 (1993) 69600 (1988) 234000 93900 103000 120000 141000 194000 272000 284000 389000 530000
2020-07-24 02:30 17.65 257000 929000 (1993) 69600 (1988) 234000 93900 103000 120000 141000 194000 272000 284000 389000 530000
2020-07-24 02:00 17.78 259000 929000 (1993) 69600 (1988) 234000 93900 103000 120000 141000 194000 272000 284000 389000 530000
2020-07-24 01:30 17.78 259000 929000 (1993) 69600 (1988) 234000 93900 103000 120000 141000 194000 272000 284000 389000 530000
2020-07-24 01:00 17.76 259000 929000 (1993) 69600 (1988) 234000 93900 103000 120000 141000 194000 272000 284000 389000 530000
2020-07-24 00:30 17.74 258000 929000 (1993) 69600 (1988) 234000 93900 103000 120000 141000 194000 272000 284000 389000 530000
2020-07-24 00:00 17.82 260000 929000 (1993) 69600 (1988) 234000 93900 103000 120000 141000 194000 272000 284000 389000 530000
2020-07-23 23:30 17.78 259000 907000 (1993) 70100 (1988) 233000 93600 103000 130000 142000 198000 262000 289000 387000 511000
2020-07-23 23:00 17.76 259000 907000 (1993) 70100 (1988) 233000 93600 103000 130000 142000 198000 262000 289000 387000 511000
2020-07-23 22:30 17.80 259000 907000 (1993) 70100 (1988) 233000 93600 103000 130000 142000 198000 262000 289000 387000 511000
2020-07-23 22:00 17.69 258000 907000 (1993) 70100 (1988) 233000 93600 103000 130000 142000 198000 262000 289000 387000 511000
2020-07-23 21:30 17.87 261000 907000 (1993) 70100 (1988) 233000 93600 103000 130000 142000 198000 262000 289000 387000 511000
2020-07-23 21:00 17.78 259000 907000 (1993) 70100 (1988) 233000 93600 103000 130000 142000 198000 262000 289000 387000 511000
2020-07-23 20:30 17.93 261000 907000 (1993) 70100 (1988) 233000 93600 103000 130000 142000 198000 262000 289000 387000 511000
2020-07-23 20:00 18.01 263000 907000 (1993) 70100 (1988) 233000 93600 103000 130000 142000 198000 262000 289000 387000 511000
2020-07-23 19:30 18.00 263000 907000 (1993) 70100 (1988) 233000 93600 103000 130000 142000 198000 262000 289000 387000 511000
2020-07-23 19:00 17.83 260000 907000 (1993) 70100 (1988) 233000 93600 103000 130000 142000 198000 262000 289000 387000 511000
2020-07-23 18:30 17.90 261000 907000 (1993) 70100 (1988) 233000 93600 103000 130000 142000 198000 262000 289000 387000 511000
2020-07-23 18:00 17.80 259000 907000 (1993) 70100 (1988) 233000 93600 103000 130000 142000 198000 262000 289000 387000 511000
2020-07-23 17:30 17.89 261000 907000 (1993) 70100 (1988) 233000 93600 103000 130000 142000 198000 262000 289000 387000 511000
2020-07-23 17:00 17.91 261000 907000 (1993) 70100 (1988) 233000 93600 103000 130000 142000 198000 262000 289000 387000 511000
2020-07-23 16:30 17.94 262000 907000 (1993) 70100 (1988) 233000 93600 103000 130000 142000 198000 262000 289000 387000 511000
2020-07-23 16:00 17.91 261000 907000 (1993) 70100 (1988) 233000 93600 103000 130000 142000 198000 262000 289000 387000 511000
2020-07-23 15:30 18.03 263000 907000 (1993) 70100 (1988) 233000 93600 103000 130000 142000 198000 262000 289000 387000 511000
2020-07-23 15:00 17.93 261000 907000 (1993) 70100 (1988) 233000 93600 103000 130000 142000 198000 262000 289000 387000 511000
2020-07-23 14:30 18.02 263000 907000 (1993) 70100 (1988) 233000 93600 103000 130000 142000 198000 262000 289000 387000 511000
2020-07-23 14:00 17.94 262000 907000 (1993) 70100 (1988) 233000 93600 103000 130000 142000 198000 262000 289000 387000 511000
2020-07-23 13:30 18.00 263000 907000 (1993) 70100 (1988) 233000 93600 103000 130000 142000 198000 262000 289000 387000 511000
2020-07-23 13:00 18.07 264000 907000 (1993) 70100 (1988) 233000 93600 103000 130000 142000 198000 262000 289000 387000 511000
2020-07-23 12:30 18.04 263000 907000 (1993) 70100 (1988) 233000 93600 103000 130000 142000 198000 262000 289000 387000 511000
2020-07-23 12:00 18.03 263000 907000 (1993) 70100 (1988) 233000 93600 103000 130000 142000 198000 262000 289000 387000 511000
2020-07-23 11:30 18.09 264000 907000 (1993) 70100 (1988) 233000 93600 103000 130000 142000 198000 262000 289000 387000 511000
2020-07-23 11:00 18.03 263000 907000 (1993) 70100 (1988) 233000 93600 103000 130000 142000 198000 262000 289000 387000 511000
2020-07-23 10:30 18.05 263000 907000 (1993) 70100 (1988) 233000 93600 103000 130000 142000 198000 262000 289000 387000 511000
2020-07-23 10:00 18.01 263000 907000 (1993) 70100 (1988) 233000 93600 103000 130000 142000 198000 262000 289000 387000 511000
2020-07-23 09:30 18.06 264000 907000 (1993) 70100 (1988) 233000 93600 103000 130000 142000 198000 262000 289000 387000 511000
2020-07-23 09:00 18.11 264000 907000 (1993) 70100 (1988) 233000 93600 103000 130000 142000 198000 262000 289000 387000 511000
2020-07-23 08:30 18.09 264000 907000 (1993) 70100 (1988) 233000 93600 103000 130000 142000 198000 262000 289000 387000 511000
2020-07-23 08:00 18.01 263000 907000 (1993) 70100 (1988) 233000 93600 103000 130000 142000 198000 262000 289000 387000 511000
2020-07-23 07:30 17.89 261000 907000 (1993) 70100 (1988) 233000 93600 103000 130000 142000 198000 262000 289000 387000 511000
2020-07-23 07:00 18.04 263000 907000 (1993) 70100 (1988) 233000 93600 103000 130000 142000 198000 262000 289000 387000 511000
2020-07-23 06:30 18.03 263000 907000 (1993) 70100 (1988) 233000 93600 103000 130000 142000 198000 262000 289000 387000 511000
2020-07-23 06:00 18.02 263000 907000 (1993) 70100 (1988) 233000 93600 103000 130000 142000 198000 262000 289000 387000 511000
2020-07-23 05:30 18.08 264000 907000 (1993) 70100 (1988) 233000 93600 103000 130000 142000 198000 262000 289000 387000 511000
2020-07-23 05:00 18.18 265000 907000 (1993) 70100 (1988) 233000 93600 103000 130000 142000 198000 262000 289000 387000 511000
2020-07-23 04:30 18.19 266000 907000 (1993) 70100 (1988) 233000 93600 103000 130000 142000 198000 262000 289000 387000 511000
2020-07-23 04:00 18.02 263000 907000 (1993) 70100 (1988) 233000 93600 103000 130000 142000 198000 262000 289000 387000 511000
2020-07-23 03:30 18.24 266000 907000 (1993) 70100 (1988) 233000 93600 103000 130000 142000 198000 262000 289000 387000 511000
2020-07-23 03:00 18.18 265000 907000 (1993) 70100 (1988) 233000 93600 103000 130000 142000 198000 262000 289000 387000 511000
2020-07-23 02:30 18.13 265000 907000 (1993) 70100 (1988) 233000 93600 103000 130000 142000 198000 262000 289000 387000 511000
2020-07-23 02:00 18.35 268000 907000 (1993) 70100 (1988) 233000 93600 103000 130000 142000 198000 262000 289000 387000 511000
2020-07-23 01:30 18.23 266000 907000 (1993) 70100 (1988) 233000 93600 103000 130000 142000 198000 262000 289000 387000 511000
2020-07-23 01:00 18.38 269000 907000 (1993) 70100 (1988) 233000 93600 103000 130000 142000 198000 262000 289000 387000 511000
2020-07-23 00:30 18.37 269000 907000 (1993) 70100 (1988) 233000 93600 103000 130000 142000 198000 262000 289000 387000 511000
2020-07-23 00:00 18.36 268000 907000 (1993) 70100 (1988) 233000 93600 103000 130000 142000 198000 262000 289000 387000 511000
2020-07-22 23:30 18.49 270000 898000 (1993) 72800 (1988) 235000 93100 101000 129000 143000 200000 269000 297000 394000 491000
2020-07-22 23:00 18.62 273000 898000 (1993) 72800 (1988) 235000 93100 101000 129000 143000 200000 269000 297000 394000 491000
2020-07-22 22:30 18.56 272000 898000 (1993) 72800 (1988) 235000 93100 101000 129000 143000 200000 269000 297000 394000 491000
2020-07-22 22:00 18.67 273000 898000 (1993) 72800 (1988) 235000 93100 101000 129000 143000 200000 269000 297000 394000 491000
2020-07-22 21:30 18.47 270000 898000 (1993) 72800 (1988) 235000 93100 101000 129000 143000 200000 269000 297000 394000 491000
2020-07-22 21:00 18.62 273000 898000 (1993) 72800 (1988) 235000 93100 101000 129000 143000 200000 269000 297000 394000 491000
2020-07-22 20:30 18.67 273000 898000 (1993) 72800 (1988) 235000 93100 101000 129000 143000 200000 269000 297000 394000 491000
2020-07-22 20:00 18.70 274000 898000 (1993) 72800 (1988) 235000 93100 101000 129000 143000 200000 269000 297000 394000 491000
2020-07-22 19:30 18.77 275000 898000 (1993) 72800 (1988) 235000 93100 101000 129000 143000 200000 269000 297000 394000 491000
2020-07-22 19:00 18.83 276000 898000 (1993) 72800 (1988) 235000 93100 101000 129000 143000 200000 269000 297000 394000 491000
2020-07-22 18:30 18.75 275000 898000 (1993) 72800 (1988) 235000 93100 101000 129000 143000 200000 269000 297000 394000 491000
2020-07-22 18:00 18.64 273000 898000 (1993) 72800 (1988) 235000 93100 101000 129000 143000 200000 269000 297000 394000 491000
2020-07-22 17:30 18.84 276000 898000 (1993) 72800 (1988) 235000 93100 101000 129000 143000 200000 269000 297000 394000 491000
2020-07-22 17:00 18.76 275000 898000 (1993) 72800 (1988) 235000 93100 101000 129000 143000 200000 269000 297000 394000 491000
2020-07-22 16:30 18.86 277000 898000 (1993) 72800 (1988) 235000 93100 101000 129000 143000 200000 269000 297000 394000 491000
2020-07-22 16:00 18.84 276000 898000 (1993) 72800 (1988) 235000 93100 101000 129000 143000 200000 269000 297000 394000 491000
2020-07-22 15:30 18.90 277000 898000 (1993) 72800 (1988) 235000 93100 101000 129000 143000 200000 269000 297000 394000 491000
2020-07-22 15:00 18.86 277000 898000 (1993) 72800 (1988) 235000 93100 101000 129000 143000 200000 269000 297000 394000 491000
2020-07-22 14:30 18.88 277000 898000 (1993) 72800 (1988) 235000 93100 101000 129000 143000 200000 269000 297000 394000 491000
2020-07-22 14:00 18.95 278000 898000 (1993) 72800 (1988) 235000 93100 101000 129000 143000 200000 269000 297000 394000 491000
2020-07-22 13:30 18.84 276000 898000 (1993) 72800 (1988) 235000 93100 101000 129000 143000 200000 269000 297000 394000 491000
2020-07-22 13:00 18.95 278000 898000 (1993) 72800 (1988) 235000 93100 101000 129000 143000 200000 269000 297000 394000 491000
2020-07-22 12:30 18.96 278000 898000 (1993) 72800 (1988) 235000 93100 101000 129000 143000 200000 269000 297000 394000 491000
2020-07-22 12:00 18.95 278000 898000 (1993) 72800 (1988) 235000 93100 101000 129000 143000 200000 269000 297000 394000 491000
2020-07-22 11:30 18.87 277000 898000 (1993) 72800 (1988) 235000 93100 101000 129000 143000 200000 269000 297000 394000 491000
2020-07-22 11:00 18.88 277000 898000 (1993) 72800 (1988) 235000 93100 101000 129000 143000 200000 269000 297000 394000 491000
2020-07-22 10:30 18.70 274000 898000 (1993) 72800 (1988) 235000 93100 101000 129000 143000 200000 269000 297000 394000 491000
2020-07-22 10:00 18.71 274000 898000 (1993) 72800 (1988) 235000 93100 101000 129000 143000 200000 269000 297000 394000 491000
2020-07-22 09:30 18.76 275000 898000 (1993) 72800 (1988) 235000 93100 101000 129000 143000 200000 269000 297000 394000 491000
2020-07-22 09:00 18.79 275000 898000 (1993) 72800 (1988) 235000 93100 101000 129000 143000 200000 269000 297000 394000 491000
2020-07-22 08:30 18.67 273000 898000 (1993) 72800 (1988) 235000 93100 101000 129000 143000 200000 269000 297000 394000 491000
2020-07-22 08:00 18.65 273000 898000 (1993) 72800 (1988) 235000 93100 101000 129000 143000 200000 269000 297000 394000 491000
2020-07-22 07:30 18.51 271000 898000 (1993) 72800 (1988) 235000 93100 101000 129000 143000 200000 269000 297000 394000 491000
2020-07-22 07:00 18.74 275000 898000 (1993) 72800 (1988) 235000 93100 101000 129000 143000 200000 269000 297000 394000 491000
2020-07-22 06:30 18.73 274000 898000 (1993) 72800 (1988) 235000 93100 101000 129000 143000 200000 269000 297000 394000 491000
2020-07-22 06:00 18.76 275000 898000 (1993) 72800 (1988) 235000 93100 101000 129000 143000 200000 269000 297000 394000 491000
2020-07-22 05:30 18.61 272000 898000 (1993) 72800 (1988) 235000 93100 101000 129000 143000 200000 269000 297000 394000 491000
2020-07-22 05:00 18.72 274000 898000 (1993) 72800 (1988) 235000 93100 101000 129000 143000 200000 269000 297000 394000 491000
2020-07-22 04:30 18.81 276000 898000 (1993) 72800 (1988) 235000 93100 101000 129000 143000 200000 269000 297000 394000 491000
2020-07-22 04:00 18.80 276000 898000 (1993) 72800 (1988) 235000 93100 101000 129000 143000 200000 269000 297000 394000 491000
2020-07-22 03:30 18.72 274000 898000 (1993) 72800 (1988) 235000 93100 101000 129000 143000 200000 269000 297000 394000 491000
2020-07-22 03:00 18.75 275000 898000 (1993) 72800 (1988) 235000 93100 101000 129000 143000 200000 269000 297000 394000 491000
2020-07-22 02:30 18.79 275000 898000 (1993) 72800 (1988) 235000 93100 101000 129000 143000 200000 269000 297000 394000 491000
2020-07-22 02:00 18.78 275000 898000 (1993) 72800 (1988) 235000 93100 101000 129000 143000 200000 269000 297000 394000 491000
2020-07-22 01:30 18.77 275000 898000 (1993) 72800 (1988) 235000 93100 101000 129000 143000 200000 269000 297000 394000 491000
2020-07-22 01:00 18.76 275000 898000 (1993) 72800 (1988) 235000 93100 101000 129000 143000 200000 269000 297000 394000 491000
2020-07-22 00:30 18.69 274000 898000 (1993) 72800 (1988) 235000 93100 101000 129000 143000 200000 269000 297000 394000 491000
2020-07-22 00:00 18.75 275000 898000 (1993) 72800 (1988) 235000 93100 101000 129000 143000 200000 269000 297000 394000 491000
2020-07-21 23:30 18.79 275000 929000 (1993) 74000 (1988) 237000 86100 103000 127000 151000 201000 284000 304000 414000 494000
2020-07-21 23:00 18.89 277000 929000 (1993) 74000 (1988) 237000 86100 103000 127000 151000 201000 284000 304000 414000 494000
2020-07-21 22:30 18.73 274000 929000 (1993) 74000 (1988) 237000 86100 103000 127000 151000 201000 284000 304000 414000 494000
2020-07-21 22:00 18.73 274000 929000 (1993) 74000 (1988) 237000 86100 103000 127000 151000 201000 284000 304000 414000 494000
2020-07-21 21:30 18.89 277000 929000 (1993) 74000 (1988) 237000 86100 103000 127000 151000 201000 284000 304000 414000 494000
2020-07-21 21:00 18.84 276000 929000 (1993) 74000 (1988) 237000 86100 103000 127000 151000 201000 284000 304000 414000 494000
2020-07-21 20:30 18.77 275000 929000 (1993) 74000 (1988) 237000 86100 103000 127000 151000 201000 284000 304000 414000 494000
2020-07-21 20:00 18.85 276000 929000 (1993) 74000 (1988) 237000 86100 103000 127000 151000 201000 284000 304000 414000 494000
2020-07-21 19:30 18.95 278000 929000 (1993) 74000 (1988) 237000 86100 103000 127000 151000 201000 284000 304000 414000 494000
2020-07-21 19:00 18.99 279000 929000 (1993) 74000 (1988) 237000 86100 103000 127000 151000 201000 284000 304000 414000 494000
2020-07-21 18:30 18.97 278000 929000 (1993) 74000 (1988) 237000 86100 103000 127000 151000 201000 284000 304000 414000 494000
2020-07-21 18:00 18.96 278000 929000 (1993) 74000 (1988) 237000 86100 103000 127000 151000 201000 284000 304000 414000 494000
2020-07-21 17:30 19.11 281000 929000 (1993) 74000 (1988) 237000 86100 103000 127000 151000 201000 284000 304000 414000 494000
2020-07-21 17:00 19.07 280000 929000 (1993) 74000 (1988) 237000 86100 103000 127000 151000 201000 284000 304000 414000 494000
2020-07-21 16:30 19.02 279000 929000 (1993) 74000 (1988) 237000 86100 103000 127000 151000 201000 284000 304000 414000 494000
2020-07-21 16:00 19.13 281000 929000 (1993) 74000 (1988) 237000 86100 103000 127000 151000 201000 284000 304000 414000 494000
2020-07-21 15:30 19.05 280000 929000 (1993) 74000 (1988) 237000 86100 103000 127000 151000 201000 284000 304000 414000 494000
2020-07-21 15:00 19.09 280000 929000 (1993) 74000 (1988) 237000 86100 103000 127000 151000 201000 284000 304000 414000 494000
2020-07-21 14:30 19.12 281000 929000 (1993) 74000 (1988) 237000 86100 103000 127000 151000 201000 284000 304000 414000 494000
2020-07-21 14:00 19.05 280000 929000 (1993) 74000 (1988) 237000 86100 103000 127000 151000 201000 284000 304000 414000 494000
2020-07-21 13:30 19.18 282000 929000 (1993) 74000 (1988) 237000 86100 103000 127000 151000 201000 284000 304000 414000 494000
2020-07-21 13:00 19.14 281000 929000 (1993) 74000 (1988) 237000 86100 103000 127000 151000 201000 284000 304000 414000 494000
2020-07-21 12:30 19.15 281000 929000 (1993) 74000 (1988) 237000 86100 103000 127000 151000 201000 284000 304000 414000 494000
2020-07-21 12:00 19.18 282000 929000 (1993) 74000 (1988) 237000 86100 103000 127000 151000 201000 284000 304000 414000 494000
2020-07-21 11:30 19.03 279000 929000 (1993) 74000 (1988) 237000 86100 103000 127000 151000 201000 284000 304000 414000 494000
2020-07-21 11:00 19.02 279000 929000 (1993) 74000 (1988) 237000 86100 103000 127000 151000 201000 284000 304000 414000 494000
2020-07-21 10:30 19.09 280000 929000 (1993) 74000 (1988) 237000 86100 103000 127000 151000 201000 284000 304000 414000 494000
2020-07-21 10:00 19.01 279000 929000 (1993) 74000 (1988) 237000 86100 103000 127000 151000 201000 284000 304000 414000 494000
2020-07-21 09:30 19.04 279000 929000 (1993) 74000 (1988) 237000 86100 103000 127000 151000 201000 284000 304000 414000 494000
2020-07-21 09:00 19.20 282000 929000 (1993) 74000 (1988) 237000 86100 103000 127000 151000 201000 284000 304000 414000 494000
2020-07-21 08:30 19.28 283000 929000 (1993) 74000 (1988) 237000 86100 103000 127000 151000 201000 284000 304000 414000 494000
2020-07-21 08:00 19.20 282000 929000 (1993) 74000 (1988) 237000 86100 103000 127000 151000 201000 284000 304000 414000 494000
2020-07-21 07:30 19.23 283000 929000 (1993) 74000 (1988) 237000 86100 103000 127000 151000 201000 284000 304000 414000 494000
2020-07-21 07:00 19.23 283000 929000 (1993) 74000 (1988) 237000 86100 103000 127000 151000 201000 284000 304000 414000 494000
2020-07-21 06:30 19.28 283000 929000 (1993) 74000 (1988) 237000 86100 103000 127000 151000 201000 284000 304000 414000 494000
2020-07-21 06:00 19.27 283000 929000 (1993) 74000 (1988) 237000 86100 103000 127000 151000 201000 284000 304000 414000 494000
2020-07-21 05:30 19.23 283000 929000 (1993) 74000 (1988) 237000 86100 103000 127000 151000 201000 284000 304000 414000 494000
2020-07-21 05:00 19.30 284000 929000 (1993) 74000 (1988) 237000 86100 103000 127000 151000 201000 284000 304000 414000 494000
2020-07-21 04:30 19.40 285000 929000 (1993) 74000 (1988) 237000 86100 103000 127000 151000 201000 284000 304000 414000 494000
2020-07-21 04:00 19.43 286000 929000 (1993) 74000 (1988) 237000 86100 103000 127000 151000 201000 284000 304000 414000 494000
2020-07-21 03:30 19.35 285000 929000 (1993) 74000 (1988) 237000 86100 103000 127000 151000 201000 284000 304000 414000 494000
2020-07-21 03:00 19.30 284000 929000 (1993) 74000 (1988) 237000 86100 103000 127000 151000 201000 284000 304000 414000 494000
2020-07-21 02:30 19.51 287000 929000 (1993) 74000 (1988) 237000 86100 103000 127000 151000 201000 284000 304000 414000 494000
2020-07-21 02:00 19.47 287000 929000 (1993) 74000 (1988) 237000 86100 103000 127000 151000 201000 284000 304000 414000 494000
2020-07-21 01:30 19.48 287000 929000 (1993) 74000 (1988) 237000 86100 103000 127000 151000 201000 284000 304000 414000 494000
2020-07-21 01:00 19.35 285000 929000 (1993) 74000 (1988) 237000 86100 103000 127000 151000 201000 284000 304000 414000 494000
2020-07-21 00:30 19.21 282000 929000 (1993) 74000 (1988) 237000 86100 103000 127000 151000 201000 284000 304000 414000 494000
2020-07-21 00:00 19.56 288000 929000 (1993) 74000 (1988) 237000 86100 103000 127000 151000 201000 284000 304000 414000 494000
2020-07-20 23:30 19.39 285000 928000 (1993) 68700 (1989) 238000 88100 107000 132000 153000 203000 281000 304000 433000 505000
2020-07-20 23:00 19.48 287000 928000 (1993) 68700 (1989) 238000 88100 107000 132000 153000 203000 281000 304000 433000 505000
2020-07-20 22:30 19.55 288000 928000 (1993) 68700 (1989) 238000 88100 107000 132000 153000 203000 281000 304000 433000 505000
2020-07-20 22:00 19.50 287000 928000 (1993) 68700 (1989) 238000 88100 107000 132000 153000 203000 281000 304000 433000 505000
2020-07-20 21:30 19.43 286000 928000 (1993) 68700 (1989) 238000 88100 107000 132000 153000 203000 281000 304000 433000 505000
2020-07-20 21:00 19.53 288000 928000 (1993) 68700 (1989) 238000 88100 107000 132000 153000 203000 281000 304000 433000 505000
2020-07-20 20:30 19.68 290000 928000 (1993) 68700 (1989) 238000 88100 107000 132000 153000 203000 281000 304000 433000 505000
2020-07-20 20:00 19.61 289000 928000 (1993) 68700 (1989) 238000 88100 107000 132000 153000 203000 281000 304000 433000 505000
2020-07-20 19:30 19.69 290000 928000 (1993) 68700 (1989) 238000 88100 107000 132000 153000 203000 281000 304000 433000 505000
2020-07-20 19:00 19.54 288000 928000 (1993) 68700 (1989) 238000 88100 107000 132000 153000 203000 281000 304000 433000 505000
2020-07-20 18:30 19.63 289000 928000 (1993) 68700 (1989) 238000 88100 107000 132000 153000 203000 281000 304000 433000 505000
2020-07-20 18:00 19.66 290000 928000 (1993) 68700 (1989) 238000 88100 107000 132000 153000 203000 281000 304000 433000 505000
2020-07-20 17:30 19.63 289000 928000 (1993) 68700 (1989) 238000 88100 107000 132000 153000 203000 281000 304000 433000 505000
2020-07-20 17:00 19.69 290000 928000 (1993) 68700 (1989) 238000 88100 107000 132000 153000 203000 281000 304000 433000 505000
2020-07-20 16:30 19.65 290000 928000 (1993) 68700 (1989) 238000 88100 107000 132000 153000 203000 281000 304000 433000 505000
2020-07-20 16:00 19.68 290000 928000 (1993) 68700 (1989) 238000 88100 107000 132000 153000 203000 281000 304000 433000 505000
2020-07-20 15:30 19.61 289000 928000 (1993) 68700 (1989) 238000 88100 107000 132000 153000 203000 281000 304000 433000 505000
2020-07-20 15:00 19.63 289000 928000 (1993) 68700 (1989) 238000 88100 107000 132000 153000 203000 281000 304000 433000 505000
2020-07-20 14:30 19.60 289000 928000 (1993) 68700 (1989) 238000 88100 107000 132000 153000 203000 281000 304000 433000 505000
2020-07-20 14:00 19.58 289000 928000 (1993) 68700 (1989) 238000 88100 107000 132000 153000 203000 281000 304000 433000 505000
2020-07-20 13:30 19.61 289000 928000 (1993) 68700 (1989) 238000 88100 107000 132000 153000 203000 281000 304000 433000 505000
2020-07-20 13:00 19.53 288000 928000 (1993) 68700 (1989) 238000 88100 107000 132000 153000 203000 281000 304000 433000 505000
2020-07-20 12:30 19.55 288000 928000 (1993) 68700 (1989) 238000 88100 107000 132000 153000 203000 281000 304000 433000 505000
2020-07-20 12:00 19.46 286000 928000 (1993) 68700 (1989) 238000 88100 107000 132000 153000 203000 281000 304000 433000 505000
2020-07-20 11:30 19.44 286000 928000 (1993) 68700 (1989) 238000 88100 107000 132000 153000 203000 281000 304000 433000 505000
2020-07-20 11:00 19.23 283000 928000 (1993) 68700 (1989) 238000 88100 107000 132000 153000 203000 281000 304000 433000 505000
2020-07-20 10:30 19.45 286000 928000 (1993) 68700 (1989) 238000 88100 107000 132000 153000 203000 281000 304000 433000 505000
2020-07-20 10:00 19.40 285000 928000 (1993) 68700 (1989) 238000 88100 107000 132000 153000 203000 281000 304000 433000 505000
2020-07-20 09:30 19.35 285000 928000 (1993) 68700 (1989) 238000 88100 107000 132000 153000 203000 281000 304000 433000 505000
2020-07-20 09:00 19.22 282000 928000 (1993) 68700 (1989) 238000 88100 107000 132000 153000 203000 281000 304000 433000 505000
2020-07-20 08:30 19.25 283000 928000 (1993) 68700 (1989) 238000 88100 107000 132000 153000 203000 281000 304000 433000 505000
2020-07-20 08:00 19.25 283000 928000 (1993) 68700 (1989) 238000 88100 107000 132000 153000 203000 281000 304000 433000 505000
2020-07-20 07:30 19.18 282000 928000 (1993) 68700 (1989) 238000 88100 107000 132000 153000 203000 281000 304000 433000 505000
2020-07-20 07:00 19.12 281000 928000 (1993) 68700 (1989) 238000 88100 107000 132000 153000 203000 281000 304000 433000 505000
2020-07-20 06:30 19.05 280000 928000 (1993) 68700 (1989) 238000 88100 107000 132000 153000 203000 281000 304000 433000 505000
2020-07-20 06:00 19.10 280000 928000 (1993) 68700 (1989) 238000 88100 107000 132000 153000 203000 281000 304000 433000 505000
2020-07-20 05:30 19.04 279000 928000 (1993) 68700 (1989) 238000 88100 107000 132000 153000 203000 281000 304000 433000 505000
2020-07-20 05:00 18.99 279000 928000 (1993) 68700 (1989) 238000 88100 107000 132000 153000 203000 281000 304000 433000 505000
2020-07-20 04:30 19.07 280000 928000 (1993) 68700 (1989) 238000 88100 107000 132000 153000 203000 281000 304000 433000 505000
2020-07-20 04:00 19.02 279000 928000 (1993) 68700 (1989) 238000 88100 107000 132000 153000 203000 281000 304000 433000 505000
2020-07-20 03:30 18.97 278000 928000 (1993) 68700 (1989) 238000 88100 107000 132000 153000 203000 281000 304000 433000 505000
2020-07-20 03:00 18.88 277000 928000 (1993) 68700 (1989) 238000 88100 107000 132000 153000 203000 281000 304000 433000 505000
2020-07-20 02:30 18.95 278000 928000 (1993) 68700 (1989) 238000 88100 107000 132000 153000 203000 281000 304000 433000 505000
2020-07-20 02:00 18.90 277000 928000 (1993) 68700 (1989) 238000 88100 107000 132000 153000 203000 281000 304000 433000 505000
2020-07-20 01:30 18.81 276000 928000 (1993) 68700 (1989) 238000 88100 107000 132000 153000 203000 281000 304000 433000 505000
2020-07-20 01:00 18.86 277000 928000 (1993) 68700 (1989) 238000 88100 107000 132000 153000 203000 281000 304000 433000 505000
2020-07-20 00:30 18.86 277000 928000 (1993) 68700 (1989) 238000 88100 107000 132000 153000 203000 281000 304000 433000 505000
2020-07-20 00:00 18.77 275000 928000 (1993) 68700 (1989) 238000 88100 107000 132000 153000 203000 281000 304000 433000 505000
2020-07-19 23:30 18.77 275000 909000 (1993) 68500 (1989) 243000 91000 108000 132000 155000 208000 284000 315000 440000 520000
2020-07-19 23:00 18.75 275000 909000 (1993) 68500 (1989) 243000 91000 108000 132000 155000 208000 284000 315000 440000 520000
2020-07-19 22:30 18.75 275000 909000 (1993) 68500 (1989) 243000 91000 108000 132000 155000 208000 284000 315000 440000 520000
2020-07-19 22:00 18.75 275000 909000 (1993) 68500 (1989) 243000 91000 108000 132000 155000 208000 284000 315000 440000 520000
2020-07-19 21:30 18.82 276000 909000 (1993) 68500 (1989) 243000 91000 108000 132000 155000 208000 284000 315000 440000 520000
2020-07-19 21:00 18.54 271000 909000 (1993) 68500 (1989) 243000 91000 108000 132000 155000 208000 284000 315000 440000 520000
2020-07-19 20:30 18.70 274000 909000 (1993) 68500 (1989) 243000 91000 108000 132000 155000 208000 284000 315000 440000 520000
2020-07-19 20:00 18.64 273000 909000 (1993) 68500 (1989) 243000 91000 108000 132000 155000 208000 284000 315000 440000 520000
2020-07-19 19:30 18.65 273000 909000 (1993) 68500 (1989) 243000 91000 108000 132000 155000 208000 284000 315000 440000 520000
2020-07-19 19:00 18.64 273000 909000 (1993) 68500 (1989) 243000 91000 108000 132000 155000 208000 284000 315000 440000 520000
2020-07-19 18:30 18.70 274000 909000 (1993) 68500 (1989) 243000 91000 108000 132000 155000 208000 284000 315000 440000 520000
2020-07-19 18:00 18.62 273000 909000 (1993) 68500 (1989) 243000 91000 108000 132000 155000 208000 284000 315000 440000 520000
2020-07-19 17:30 18.63 273000 909000 (1993) 68500 (1989) 243000 91000 108000 132000 155000 208000 284000 315000 440000 520000
2020-07-19 17:00 18.58 272000 909000 (1993) 68500 (1989) 243000 91000 108000 132000 155000 208000 284000 315000 440000 520000
2020-07-19 16:30 18.47 270000 909000 (1993) 68500 (1989) 243000 91000 108000 132000 155000 208000 284000 315000 440000 520000
2020-07-19 16:00 18.58 272000 909000 (1993) 68500 (1989) 243000 91000 108000 132000 155000 208000 284000 315000 440000 520000
2020-07-19 15:30 18.45 270000 909000 (1993) 68500 (1989) 243000 91000 108000 132000 155000 208000 284000 315000 440000 520000
2020-07-19 15:00 18.31 268000 909000 (1993) 68500 (1989) 243000 91000 108000 132000 155000 208000 284000 315000 440000 520000
2020-07-19 14:30 18.30 267000 909000 (1993) 68500 (1989) 243000 91000 108000 132000 155000 208000 284000 315000 440000 520000
2020-07-19 14:00 18.28 267000 909000 (1993) 68500 (1989) 243000 91000 108000 132000 155000 208000 284000 315000 440000 520000
2020-07-19 13:30 18.20 266000 909000 (1993) 68500 (1989) 243000 91000 108000 132000 155000 208000 284000 315000 440000 520000
2020-07-19 13:00 18.09 264000 909000 (1993) 68500 (1989) 243000 91000 108000 132000 155000 208000 284000 315000 440000 520000
2020-07-19 12:30 18.19 266000 909000 (1993) 68500 (1989) 243000 91000 108000 132000 155000 208000 284000 315000 440000 520000
2020-07-19 12:00 18.10 264000 909000 (1993) 68500 (1989) 243000 91000 108000 132000 155000 208000 284000 315000 440000 520000
2020-07-19 11:30 18.00 263000 909000 (1993) 68500 (1989) 243000 91000 108000 132000 155000 208000 284000 315000 440000 520000
2020-07-19 11:00 18.06 264000 909000 (1993) 68500 (1989) 243000 91000 108000 132000 155000 208000 284000 315000 440000 520000
2020-07-19 10:30 18.03 263000 909000 (1993) 68500 (1989) 243000 91000 108000 132000 155000 208000 284000 315000 440000 520000
2020-07-19 10:00 17.98 262000 909000 (1993) 68500 (1989) 243000 91000 108000 132000 155000 208000 284000 315000 440000 520000
2020-07-19 09:30 17.81 260000 909000 (1993) 68500 (1989) 243000 91000 108000 132000 155000 208000 284000 315000 440000 520000
2020-07-19 09:00 17.93 261000 909000 (1993) 68500 (1989) 243000 91000 108000 132000 155000 208000 284000 315000 440000 520000
2020-07-19 08:30 17.90 261000 909000 (1993) 68500 (1989) 243000 91000 108000 132000 155000 208000 284000 315000 440000 520000
2020-07-19 08:00 17.81 260000 909000 (1993) 68500 (1989) 243000 91000 108000 132000 155000 208000 284000 315000 440000 520000
2020-07-19 07:30 17.65 257000 909000 (1993) 68500 (1989) 243000 91000 108000 132000 155000 208000 284000 315000 440000 520000
2020-07-19 07:00 17.63 257000 909000 (1993) 68500 (1989) 243000 91000 108000 132000 155000 208000 284000 315000 440000 520000
2020-07-19 06:30 17.68 258000 909000 (1993) 68500 (1989) 243000 91000 108000 132000 155000 208000 284000 315000 440000 520000
2020-07-19 06:00 17.72 258000 909000 (1993) 68500 (1989) 243000 91000 108000 132000 155000 208000 284000 315000 440000 520000
2020-07-19 05:30 17.66 257000 909000 (1993) 68500 (1989) 243000 91000 108000 132000 155000 208000 284000 315000 440000 520000
2020-07-19 05:00 17.66 257000 909000 (1993) 68500 (1989) 243000 91000 108000 132000 155000 208000 284000 315000 440000 520000
2020-07-19 04:30 17.62 257000 909000 (1993) 68500 (1989) 243000 91000 108000 132000 155000 208000 284000 315000 440000 520000
2020-07-19 04:00 17.68 258000 909000 (1993) 68500 (1989) 243000 91000 108000 132000 155000 208000 284000 315000 440000 520000
2020-07-19 03:30 17.70 258000 909000 (1993) 68500 (1989) 243000 91000 108000 132000 155000 208000 284000 315000 440000 520000
2020-07-19 03:00 17.72 258000 909000 (1993) 68500 (1989) 243000 91000 108000 132000 155000 208000 284000 315000 440000 520000
2020-07-19 02:30 17.68 258000 909000 (1993) 68500 (1989) 243000 91000 108000 132000 155000 208000 284000 315000 440000 520000
2020-07-19 02:00 17.56 256000 909000 (1993) 68500 (1989) 243000 91000 108000 132000 155000 208000 284000 315000 440000 520000
2020-07-19 01:30 17.68 258000 909000 (1993) 68500 (1989) 243000 91000 108000 132000 155000 208000 284000 315000 440000 520000
2020-07-19 01:00 17.66 257000 909000 (1993) 68500 (1989) 243000 91000 108000 132000 155000 208000 284000 315000 440000 520000
2020-07-19 00:30 17.58 256000 909000 (1993) 68500 (1989) 243000 91000 108000 132000 155000 208000 284000 315000 440000 520000
2020-07-19 00:00 17.54 255000 909000 (1993) 68500 (1989) 243000 91000 108000 132000 155000 208000 284000 315000 440000 520000
2020-07-18 23:30 17.64 257000 874000 (1993) 69200 (1989) 250000 95300 110000 135000 159000 212000 299000 324000 459000 551000
2020-07-18 23:00 17.54 255000 874000 (1993) 69200 (1989) 250000 95300 110000 135000 159000 212000 299000 324000 459000 551000
2020-07-18 22:30 17.59 256000 874000 (1993) 69200 (1989) 250000 95300 110000 135000 159000 212000 299000 324000 459000 551000
2020-07-18 22:00 17.59 256000 874000 (1993) 69200 (1989) 250000 95300 110000 135000 159000 212000 299000 324000 459000 551000
2020-07-18 21:30 17.48 254000 874000 (1993) 69200 (1989) 250000 95300 110000 135000 159000 212000 299000 324000 459000 551000
2020-07-18 21:00 17.54 255000 874000 (1993) 69200 (1989) 250000 95300 110000 135000 159000 212000 299000 324000 459000 551000
2020-07-18 20:30 17.54 255000 874000 (1993) 69200 (1989) 250000 95300 110000 135000 159000 212000 299000 324000 459000 551000
2020-07-18 20:00 17.61 256000 874000 (1993) 69200 (1989) 250000 95300 110000 135000 159000 212000 299000 324000 459000 551000
2020-07-18 19:30 17.67 257000 874000 (1993) 69200 (1989) 250000 95300 110000 135000 159000 212000 299000 324000 459000 551000
2020-07-18 19:00 17.57 256000 874000 (1993) 69200 (1989) 250000 95300 110000 135000 159000 212000 299000 324000 459000 551000
2020-07-18 18:30 17.52 255000 874000 (1993) 69200 (1989) 250000 95300 110000 135000 159000 212000 299000 324000 459000 551000
2020-07-18 18:00 17.41 253000 874000 (1993) 69200 (1989) 250000 95300 110000 135000 159000 212000 299000 324000 459000 551000
2020-07-18 17:30 17.61 256000 874000 (1993) 69200 (1989) 250000 95300 110000 135000 159000 212000 299000 324000 459000 551000
2020-07-18 17:00 17.46 254000 874000 (1993) 69200 (1989) 250000 95300 110000 135000 159000 212000 299000 324000 459000 551000
2020-07-18 16:30 17.49 255000 874000 (1993) 69200 (1989) 250000 95300 110000 135000 159000 212000 299000 324000 459000 551000
2020-07-18 16:00 17.48 254000 874000 (1993) 69200 (1989) 250000 95300 110000 135000 159000 212000 299000 324000 459000 551000
2020-07-18 15:30 17.45 254000 874000 (1993) 69200 (1989) 250000 95300 110000 135000 159000 212000 299000 324000 459000 551000
2020-07-18 15:00 17.44 254000 874000 (1993) 69200 (1989) 250000 95300 110000 135000 159000 212000 299000 324000 459000 551000
2020-07-18 14:30 17.41 253000 874000 (1993) 69200 (1989) 250000 95300 110000 135000 159000 212000 299000 324000 459000 551000
2020-07-18 14:00 17.33 252000 874000 (1993) 69200 (1989) 250000 95300 110000 135000 159000 212000 299000 324000 459000 551000
2020-07-18 13:30 17.31 252000 874000 (1993) 69200 (1989) 250000 95300 110000 135000 159000 212000 299000 324000 459000 551000
2020-07-18 13:00 17.30 252000 874000 (1993) 69200 (1989) 250000 95300 110000 135000 159000 212000 299000 324000 459000 551000
2020-07-18 12:30 17.34 252000 874000 (1993) 69200 (1989) 250000 95300 110000 135000 159000 212000 299000 324000 459000 551000
2020-07-18 12:00 17.10 249000 874000 (1993) 69200 (1989) 250000 95300 110000 135000 159000 212000 299000 324000 459000 551000
2020-07-18 11:30 17.28 251000 874000 (1993) 69200 (1989) 250000 95300 110000 135000 159000 212000 299000 324000 459000 551000
2020-07-18 11:00 17.14 249000 874000 (1993) 69200 (1989) 250000 95300 110000 135000 159000 212000 299000 324000 459000 551000
2020-07-18 10:30 17.20 250000 874000 (1993) 69200 (1989) 250000 95300 110000 135000 159000 212000 299000 324000 459000 551000
2020-07-18 10:00 17.10 249000 874000 (1993) 69200 (1989) 250000 95300 110000 135000 159000 212000 299000 324000 459000 551000
2020-07-18 09:30 17.00 247000 874000 (1993) 69200 (1989) 250000 95300 110000 135000 159000 212000 299000 324000 459000 551000
2020-07-18 09:00 17.08 248000 874000 (1993) 69200 (1989) 250000 95300 110000 135000 159000 212000 299000 324000 459000 551000
2020-07-18 08:30 17.12 249000 874000 (1993) 69200 (1989) 250000 95300 110000 135000 159000 212000 299000 324000 459000 551000
2020-07-18 08:00 17.14 249000 874000 (1993) 69200 (1989) 250000 95300 110000 135000 159000 212000 299000 324000 459000 551000
2020-07-18 07:30 17.04 248000 874000 (1993) 69200 (1989) 250000 95300 110000 135000 159000 212000 299000 324000 459000 551000
2020-07-18 07:00 17.03 247000 874000 (1993) 69200 (1989) 250000 95300 110000 135000 159000 212000 299000 324000 459000 551000
2020-07-18 06:30 16.96 246000 874000 (1993) 69200 (1989) 250000 95300 110000 135000 159000 212000 299000 324000 459000 551000
2020-07-18 06:00 16.94 246000 874000 (1993) 69200 (1989) 250000 95300 110000 135000 159000 212000 299000 324000 459000 551000
2020-07-18 05:30 16.98 247000 874000 (1993) 69200 (1989) 250000 95300 110000 135000 159000 212000 299000 324000 459000 551000
2020-07-18 05:00 16.93 246000 874000 (1993) 69200 (1989) 250000 95300 110000 135000 159000 212000 299000 324000 459000 551000
2020-07-18 04:30 16.95 246000 874000 (1993) 69200 (1989) 250000 95300 110000 135000 159000 212000 299000 324000 459000 551000
2020-07-18 04:00 16.95 246000 874000 (1993) 69200 (1989) 250000 95300 110000 135000 159000 212000 299000 324000 459000 551000
2020-07-18 03:30 16.92 246000 874000 (1993) 69200 (1989) 250000 95300 110000 135000 159000 212000 299000 324000 459000 551000
2020-07-18 03:00 16.94 246000 874000 (1993) 69200 (1989) 250000 95300 110000 135000 159000 212000 299000 324000 459000 551000
2020-07-18 02:30 16.80 244000 874000 (1993) 69200 (1989) 250000 95300 110000 135000 159000 212000 299000 324000 459000 551000
2020-07-18 02:00 16.93 246000 874000 (1993) 69200 (1989) 250000 95300 110000 135000 159000 212000 299000 324000 459000 551000
2020-07-18 01:30 16.85 245000 874000 (1993) 69200 (1989) 250000 95300 110000 135000 159000 212000 299000 324000 459000 551000
2020-07-18 01:00 16.93 246000 874000 (1993) 69200 (1989) 250000 95300 110000 135000 159000 212000 299000 324000 459000 551000
2020-07-18 00:30 16.81 244000 874000 (1993) 69200 (1989) 250000 95300 110000 135000 159000 212000 299000 324000 459000 551000
2020-07-18 00:00 16.80 244000 874000 (1993) 69200 (1989) 250000 95300 110000 135000 159000 212000 299000 324000 459000 551000
2020-07-17 23:30 16.77 243000 845000 (1993) 72600 (1988) 254000 94000 112000 133000 165000 220000 304000 321000 462000 579000
2020-07-17 23:00 16.85 245000 845000 (1993) 72600 (1988) 254000 94000 112000 133000 165000 220000 304000 321000 462000 579000
2020-07-17 22:30 16.81 244000 845000 (1993) 72600 (1988) 254000 94000 112000 133000 165000 220000 304000 321000 462000 579000
2020-07-17 22:00 16.85 245000 845000 (1993) 72600 (1988) 254000 94000 112000 133000 165000 220000 304000 321000 462000 579000
2020-07-17 21:30 16.79 244000 845000 (1993) 72600 (1988) 254000 94000 112000 133000 165000 220000 304000 321000 462000 579000
2020-07-17 21:00 16.84 245000 845000 (1993) 72600 (1988) 254000 94000 112000 133000 165000 220000 304000 321000 462000 579000
2020-07-17 20:30 16.80 244000 845000 (1993) 72600 (1988) 254000 94000 112000 133000 165000 220000 304000 321000 462000 579000
2020-07-17 20:00 16.79 244000 845000 (1993) 72600 (1988) 254000 94000 112000 133000 165000 220000 304000 321000 462000 579000
2020-07-17 19:30 16.65 242000 845000 (1993) 72600 (1988) 254000 94000 112000 133000 165000 220000 304000 321000 462000 579000
2020-07-17 19:00 16.63 241000 845000 (1993) 72600 (1988) 254000 94000 112000 133000 165000 220000 304000 321000 462000 579000
2020-07-17 18:30 16.82 244000 845000 (1993) 72600 (1988) 254000 94000 112000 133000 165000 220000 304000 321000 462000 579000
2020-07-17 18:00 16.67 242000 845000 (1993) 72600 (1988) 254000 94000 112000 133000 165000 220000 304000 321000 462000 579000
2020-07-17 17:30 16.74 243000 845000 (1993) 72600 (1988) 254000 94000 112000 133000 165000 220000 304000 321000 462000 579000
2020-07-17 17:00 16.68 242000 845000 (1993) 72600 (1988) 254000 94000 112000 133000 165000 220000 304000 321000 462000 579000
2020-07-17 16:30 16.78 244000 845000 (1993) 72600 (1988) 254000 94000 112000 133000 165000 220000 304000 321000 462000 579000
2020-07-17 16:00 16.76 243000 845000 (1993) 72600 (1988) 254000 94000 112000 133000 165000 220000 304000 321000 462000 579000
2020-07-17 15:30 16.79 244000 845000 (1993) 72600 (1988) 254000 94000 112000 133000 165000 220000 304000 321000 462000 579000
2020-07-17 15:00 16.81 244000 845000 (1993) 72600 (1988) 254000 94000 112000 133000 165000 220000 304000 321000 462000 579000
2020-07-17 14:30 16.75 243000 845000 (1993) 72600 (1988) 254000 94000 112000 133000 165000 220000 304000 321000 462000 579000
2020-07-17 14:00 16.68 242000 845000 (1993) 72600 (1988) 254000 94000 112000 133000 165000 220000 304000 321000 462000 579000
2020-07-17 13:30 16.73 243000 845000 (1993) 72600 (1988) 254000 94000 112000 133000 165000 220000 304000 321000 462000 579000
2020-07-17 13:00 16.73 243000 845000 (1993) 72600 (1988) 254000 94000 112000 133000 165000 220000 304000 321000 462000 579000
2020-07-17 12:30 16.68 242000 845000 (1993) 72600 (1988) 254000 94000 112000 133000 165000 220000 304000 321000 462000 579000
2020-07-17 12:00 16.63 241000 845000 (1993) 72600 (1988) 254000 94000 112000 133000 165000 220000 304000 321000 462000 579000
2020-07-17 11:30 16.63 241000 845000 (1993) 72600 (1988) 254000 94000 112000 133000 165000 220000 304000 321000 462000 579000
2020-07-17 11:00 16.53 240000 845000 (1993) 72600 (1988) 254000 94000 112000 133000 165000 220000 304000 321000 462000 579000
2020-07-17 10:30 16.62 241000 845000 (1993) 72600 (1988) 254000 94000 112000 133000 165000 220000 304000 321000 462000 579000
2020-07-17 10:00 16.59 241000 845000 (1993) 72600 (1988) 254000 94000 112000 133000 165000 220000 304000 321000 462000 579000
2020-07-17 09:30 16.61 241000 845000 (1993) 72600 (1988) 254000 94000 112000 133000 165000 220000 304000 321000 462000 579000
2020-07-17 09:00 16.49 239000 845000 (1993) 72600 (1988) 254000 94000 112000 133000 165000 220000 304000 321000 462000 579000
2020-07-17 08:30 16.56 240000 845000 (1993) 72600 (1988) 254000 94000 112000 133000 165000 220000 304000 321000 462000 579000
2020-07-17 08:00 16.53 240000 845000 (1993) 72600 (1988) 254000 94000 112000 133000 165000 220000 304000 321000 462000 579000
2020-07-17 07:30 16.43 238000 845000 (1993) 72600 (1988) 254000 94000 112000 133000 165000 220000 304000 321000 462000 579000
2020-07-17 07:00 16.50 239000 845000 (1993) 72600 (1988) 254000 94000 112000 133000 165000 220000 304000 321000 462000 579000
2020-07-17 06:30 16.47 239000 845000 (1993) 72600 (1988) 254000 94000 112000 133000 165000 220000 304000 321000 462000 579000
2020-07-17 06:00 16.57 240000 845000 (1993) 72600 (1988) 254000 94000 112000 133000 165000 220000 304000 321000 462000 579000
2020-07-17 05:30 16.58 241000 845000 (1993) 72600 (1988) 254000 94000 112000 133000 165000 220000 304000 321000 462000 579000
2020-07-17 05:00 16.42 238000 845000 (1993) 72600 (1988) 254000 94000 112000 133000 165000 220000 304000 321000 462000 579000
2020-07-17 04:30 16.47 239000 845000 (1993) 72600 (1988) 254000 94000 112000 133000 165000 220000 304000 321000 462000 579000
2020-07-17 04:00 16.54 240000 845000 (1993) 72600 (1988) 254000 94000 112000 133000 165000 220000 304000 321000 462000 579000
2020-07-17 03:30 16.59 241000 845000 (1993) 72600 (1988) 254000 94000 112000 133000 165000 220000 304000 321000 462000 579000
2020-07-17 03:00 16.56 240000 845000 (1993) 72600 (1988) 254000 94000 112000 133000 165000 220000 304000 321000 462000 579000
2020-07-17 02:30 16.56 240000 845000 (1993) 72600 (1988) 254000 94000 112000 133000 165000 220000 304000 321000 462000 579000
2020-07-17 02:00 16.55 240000 845000 (1993) 72600 (1988) 254000 94000 112000 133000 165000 220000 304000 321000 462000 579000
2020-07-17 01:30 16.62 241000 845000 (1993) 72600 (1988) 254000 94000 112000 133000 165000 220000 304000 321000 462000 579000
2020-07-17 01:00 16.66 242000 845000 (1993) 72600 (1988) 254000 94000 112000 133000 165000 220000 304000 321000 462000 579000
2020-07-17 00:30 16.61 241000 845000 (1993) 72600 (1988) 254000 94000 112000 133000 165000 220000 304000 321000 462000 579000
2020-07-17 00:00 16.64 242000 845000 (1993) 72600 (1988) 254000 94000 112000 133000 165000 220000 304000 321000 462000 579000
2020-07-16 23:30 16.53 240000 823000 (1993) 73200 (1988) 256000 95200 105000 136000 166000 222000 295000 322000 470000 593000
2020-07-16 23:00 16.64 242000 823000 (1993) 73200 (1988) 256000 95200 105000 136000 166000 222000 295000 322000 470000 593000
2020-07-16 22:30 16.64 242000 823000 (1993) 73200 (1988) 256000 95200 105000 136000 166000 222000 295000 322000 470000 593000
2020-07-16 22:00 16.73 243000 823000 (1993) 73200 (1988) 256000 95200 105000 136000 166000 222000 295000 322000 470000 593000
2020-07-16 21:30 16.59 241000 823000 (1993) 73200 (1988) 256000 95200 105000 136000 166000 222000 295000 322000 470000 593000
2020-07-16 21:00 16.83 244000 823000 (1993) 73200 (1988) 256000 95200 105000 136000 166000 222000 295000 322000 470000 593000
2020-07-16 20:30 16.63 241000 823000 (1993) 73200 (1988) 256000 95200 105000 136000 166000 222000 295000 322000 470000 593000
2020-07-16 20:00 16.85 245000 823000 (1993) 73200 (1988) 256000 95200 105000 136000 166000 222000 295000 322000 470000 593000
2020-07-16 19:30 16.85 245000 823000 (1993) 73200 (1988) 256000 95200 105000 136000 166000 222000 295000 322000 470000 593000
2020-07-16 19:00 16.88 245000 823000 (1993) 73200 (1988) 256000 95200 105000 136000 166000 222000 295000 322000 470000 593000
2020-07-16 18:30 16.84 245000 823000 (1993) 73200 (1988) 256000 95200 105000 136000 166000 222000 295000 322000 470000 593000
2020-07-16 18:00 16.89 245000 823000 (1993) 73200 (1988) 256000 95200 105000 136000 166000 222000 295000 322000 470000 593000
2020-07-16 17:30 16.89 245000 823000 (1993) 73200 (1988) 256000 95200 105000 136000 166000 222000 295000 322000 470000 593000
2020-07-16 17:00 16.90 245000 823000 (1993) 73200 (1988) 256000 95200 105000 136000 166000 222000 295000 322000 470000 593000
2020-07-16 16:30 16.88 245000 823000 (1993) 73200 (1988) 256000 95200 105000 136000 166000 222000 295000 322000 470000 593000
2020-07-16 16:00 16.98 247000 823000 (1993) 73200 (1988) 256000 95200 105000 136000 166000 222000 295000 322000 470000 593000
2020-07-16 15:30 16.91 246000 823000 (1993) 73200 (1988) 256000 95200 105000 136000 166000 222000 295000 322000 470000 593000
2020-07-16 15:00 16.95 246000 823000 (1993) 73200 (1988) 256000 95200 105000 136000 166000 222000 295000 322000 470000 593000
2020-07-16 14:30 16.94 246000 823000 (1993) 73200 (1988) 256000 95200 105000 136000 166000 222000 295000 322000 470000 593000
2020-07-16 14:00 16.90 245000 823000 (1993) 73200 (1988) 256000 95200 105000 136000 166000 222000 295000 322000 470000 593000
2020-07-16 13:30 16.91 246000 823000 (1993) 73200 (1988) 256000 95200 105000 136000 166000 222000 295000 322000 470000 593000
2020-07-16 13:00 16.91 246000 823000 (1993) 73200 (1988) 256000 95200 105000 136000 166000 222000 295000 322000 470000 593000
2020-07-16 12:30 16.92 246000 823000 (1993) 73200 (1988) 256000 95200 105000 136000 166000 222000 295000 322000 470000 593000
2020-07-16 12:00 16.93 246000 823000 (1993) 73200 (1988) 256000 95200 105000 136000 166000 222000 295000 322000 470000 593000
2020-07-16 11:30 16.90 245000 823000 (1993) 73200 (1988) 256000 95200 105000 136000 166000 222000 295000 322000 470000 593000
2020-07-16 11:00 16.92 246000 823000 (1993) 73200 (1988) 256000 95200 105000 136000 166000 222000 295000 322000 470000 593000
2020-07-16 10:30 16.95 246000 823000 (1993) 73200 (1988) 256000 95200 105000 136000 166000 222000 295000 322000 470000 593000
2020-07-16 10:00 16.90 245000 823000 (1993) 73200 (1988) 256000 95200 105000 136000 166000 222000 295000 322000 470000 593000
2020-07-16 09:30 16.91 246000 823000 (1993) 73200 (1988) 256000 95200 105000 136000 166000 222000 295000 322000 470000 593000
2020-07-16 09:00 16.80 244000 823000 (1993) 73200 (1988) 256000 95200 105000 136000 166000 222000 295000 322000 470000 593000
2020-07-16 08:30 16.85 245000 823000 (1993) 73200 (1988) 256000 95200 105000 136000 166000 222000 295000 322000 470000 593000
2020-07-16 08:00 16.86 245000 823000 (1993) 73200 (1988) 256000 95200 105000 136000 166000 222000 295000 322000 470000 593000
2020-07-16 07:30 16.68 242000 823000 (1993) 73200 (1988) 256000 95200 105000 136000 166000 222000 295000 322000 470000 593000
2020-07-16 07:00 16.84 245000 823000 (1993) 73200 (1988) 256000 95200 105000 136000 166000 222000 295000 322000 470000 593000
2020-07-16 06:30 16.90 245000 823000 (1993) 73200 (1988) 256000 95200 105000 136000 166000 222000 295000 322000 470000 593000
2020-07-16 05:30 16.97 247000 823000 (1993) 73200 (1988) 256000 95200 105000 136000 166000 222000 295000 322000 470000 593000
2020-07-16 05:00 16.87 245000 823000 (1993) 73200 (1988) 256000 95200 105000 136000 166000 222000 295000 322000 470000 593000
2020-07-16 04:30 16.92 246000 823000 (1993) 73200 (1988) 256000 95200 105000 136000 166000 222000 295000 322000 470000 593000
2020-07-16 04:00 16.83 244000 823000 (1993) 73200 (1988) 256000 95200 105000 136000 166000 222000 295000 322000 470000 593000
2020-07-16 03:30 16.96 246000 823000 (1993) 73200 (1988) 256000 95200 105000 136000 166000 222000 295000 322000 470000 593000
2020-07-16 03:00 16.92 246000 823000 (1993) 73200 (1988) 256000 95200 105000 136000 166000 222000 295000 322000 470000 593000
2020-07-16 02:30 16.90 245000 823000 (1993) 73200 (1988) 256000 95200 105000 136000 166000 222000 295000 322000 470000 593000
2020-07-16 02:00 16.82 244000 823000 (1993) 73200 (1988) 256000 95200 105000 136000 166000 222000 295000 322000 470000 593000
2020-07-16 01:30 16.87 245000 823000 (1993) 73200 (1988) 256000 95200 105000 136000 166000 222000 295000 322000 470000 593000
2020-07-16 01:00 16.84 245000 823000 (1993) 73200 (1988) 256000 95200 105000 136000 166000 222000 295000 322000 470000 593000
2020-07-16 00:30 16.87 245000 823000 (1993) 73200 (1988) 256000 95200 105000 136000 166000 222000 295000 322000 470000 593000
2020-07-16 00:00 16.76 243000 823000 (1993) 73200 (1988) 256000 95200 105000 136000 166000 222000 295000 322000 470000 593000
2020-07-15 23:30 16.82 244000 813000 (1993) 75200 (1988) 259000 97000 106000 138000 166000 227000 290000 327000 480000 597000
2020-07-15 23:00 16.73 243000 813000 (1993) 75200 (1988) 259000 97000 106000 138000 166000 227000 290000 327000 480000 597000
2020-07-15 22:30 16.70 242000 813000 (1993) 75200 (1988) 259000 97000 106000 138000 166000 227000 290000 327000 480000 597000
2020-07-15 22:00 16.71 243000 813000 (1993) 75200 (1988) 259000 97000 106000 138000 166000 227000 290000 327000 480000 597000
2020-07-15 21:30 16.64 242000 813000 (1993) 75200 (1988) 259000 97000 106000 138000 166000 227000 290000 327000 480000 597000
2020-07-15 21:00 16.65 813000 (1993) 75200 (1988) 259000 97000 106000 138000 166000 227000 290000 327000 480000 597000
2020-07-15 20:30 240000 813000 (1993) 75200 (1988) 259000 97000 106000 138000 166000 227000 290000 327000 480000 597000
2020-07-15 20:00 16.59 241000 813000 (1993) 75200 (1988) 259000 97000 106000 138000 166000 227000 290000 327000 480000 597000
2020-07-15 19:30 16.54 240000 813000 (1993) 75200 (1988) 259000 97000 106000 138000 166000 227000 290000 327000 480000 597000
2020-07-15 19:00 16.51 240000 813000 (1993) 75200 (1988) 259000 97000 106000 138000 166000 227000 290000 327000 480000 597000
2020-07-15 18:30 16.44 239000 813000 (1993) 75200 (1988) 259000 97000 106000 138000 166000 227000 290000 327000 480000 597000
2020-07-15 18:00 16.50 239000 813000 (1993) 75200 (1988) 259000 97000 106000 138000 166000 227000 290000 327000 480000 597000
2020-07-15 17:30 16.39 238000 813000 (1993) 75200 (1988) 259000 97000 106000 138000 166000 227000 290000 327000 480000 597000
2020-07-15 17:00 16.53 240000 813000 (1993) 75200 (1988) 259000 97000 106000 138000 166000 227000 290000 327000 480000 597000
2020-07-15 16:30 16.51 240000 813000 (1993) 75200 (1988) 259000 97000 106000 138000 166000 227000 290000 327000 480000 597000
2020-07-15 16:00 16.49 239000 813000 (1993) 75200 (1988) 259000 97000 106000 138000 166000 227000 290000 327000 480000 597000
2020-07-15 15:30 16.44 239000 813000 (1993) 75200 (1988) 259000 97000 106000 138000 166000 227000 290000 327000 480000 597000
2020-07-15 15:00 16.54 240000 813000 (1993) 75200 (1988) 259000 97000 106000 138000 166000 227000 290000 327000 480000 597000
2020-07-15 14:30 16.48 239000 813000 (1993) 75200 (1988) 259000 97000 106000 138000 166000 227000 290000 327000 480000 597000
2020-07-15 14:00 16.49 239000 813000 (1993) 75200 (1988) 259000 97000 106000 138000 166000 227000 290000 327000 480000 597000
2020-07-15 13:30 16.47 239000 813000 (1993) 75200 (1988) 259000 97000 106000 138000 166000 227000 290000 327000 480000 597000
2020-07-15 09:30 16.95 246000 813000 (1993) 75200 (1988) 259000 97000 106000 138000 166000 227000 290000 327000 480000 597000
2020-07-15 09:00 16.93 246000 813000 (1993) 75200 (1988) 259000 97000 106000 138000 166000 227000 290000 327000 480000 597000
2020-07-15 08:30 17.01 247000 813000 (1993) 75200 (1988) 259000 97000 106000 138000 166000 227000 290000 327000 480000 597000
2020-07-15 08:00 16.97 247000 813000 (1993) 75200 (1988) 259000 97000 106000 138000 166000 227000 290000 327000 480000 597000
2020-07-15 07:30 17.01 247000 813000 (1993) 75200 (1988) 259000 97000 106000 138000 166000 227000 290000 327000 480000 597000
2020-07-15 07:00 17.00 247000 813000 (1993) 75200 (1988) 259000 97000 106000 138000 166000 227000 290000 327000 480000 597000
2020-07-15 06:30 17.05 248000 813000 (1993) 75200 (1988) 259000 97000 106000 138000 166000 227000 290000 327000 480000 597000
2020-07-15 06:00 17.04 248000 813000 (1993) 75200 (1988) 259000 97000 106000 138000 166000 227000 290000 327000 480000 597000
2020-07-15 05:30 17.03 247000 813000 (1993) 75200 (1988) 259000 97000 106000 138000 166000 227000 290000 327000 480000 597000
2020-07-15 05:00 16.98 247000 813000 (1993) 75200 (1988) 259000 97000 106000 138000 166000 227000 290000 327000 480000 597000
2020-07-15 04:30 17.03 247000 813000 (1993) 75200 (1988) 259000 97000 106000 138000 166000 227000 290000 327000 480000 597000
2020-07-15 04:00 17.05 248000 813000 (1993) 75200 (1988) 259000 97000 106000 138000 166000 227000 290000 327000 480000 597000
2020-07-15 03:30 17.10 249000 813000 (1993) 75200 (1988) 259000 97000 106000 138000 166000 227000 290000 327000 480000 597000
2020-07-15 03:00 17.04 248000 813000 (1993) 75200 (1988) 259000 97000 106000 138000 166000 227000 290000 327000 480000 597000
2020-07-15 02:30 17.06 248000 813000 (1993) 75200 (1988) 259000 97000 106000 138000 166000 227000 290000 327000 480000 597000
2020-07-15 02:00 17.03 247000 813000 (1993) 75200 (1988) 259000 97000 106000 138000 166000 227000 290000 327000 480000 597000
2020-07-15 01:30 17.06 248000 813000 (1993) 75200 (1988) 259000 97000 106000 138000 166000 227000 290000 327000 480000 597000
2020-07-15 01:00 17.09 248000 813000 (1993) 75200 (1988) 259000 97000 106000 138000 166000 227000 290000 327000 480000 597000
2020-07-15 00:30 17.10 249000 813000 (1993) 75200 (1988) 259000 97000 106000 138000 166000 227000 290000 327000 480000 597000
2020-07-15 00:00 17.07 248000 813000 (1993) 75200 (1988) 259000 97000 106000 138000 166000 227000 290000 327000 480000 597000
2020-07-14 23:30 17.19 250000 814000 (1993) 71800 (1988) 262000 90700 114000 142000 160000 227000 304000 345000 512000 601000
2020-07-14 23:00 17.12 249000 814000 (1993) 71800 (1988) 262000 90700 114000 142000 160000 227000 304000 345000 512000 601000
2020-07-14 22:30 17.07 248000 814000 (1993) 71800 (1988) 262000 90700 114000 142000 160000 227000 304000 345000 512000 601000
2020-07-14 22:00 17.13 249000 814000 (1993) 71800 (1988) 262000 90700 114000 142000 160000 227000 304000 345000 512000 601000
2020-07-14 21:30 17.12 249000 814000 (1993) 71800 (1988) 262000 90700 114000 142000 160000 227000 304000 345000 512000 601000
2020-07-14 21:00 17.08 248000 814000 (1993) 71800 (1988) 262000 90700 114000 142000 160000 227000 304000 345000 512000 601000
2020-07-14 20:30 17.12 249000 814000 (1993) 71800 (1988) 262000 90700 114000 142000 160000 227000 304000 345000 512000 601000
2020-07-14 20:00 17.19 250000 814000 (1993) 71800 (1988) 262000 90700 114000 142000 160000 227000 304000 345000 512000 601000
2020-07-14 19:30 17.18 250000 814000 (1993) 71800 (1988) 262000 90700 114000 142000 160000 227000 304000 345000 512000 601000
2020-07-14 19:00 17.17 250000 814000 (1993) 71800 (1988) 262000 90700 114000 142000 160000 227000 304000 345000 512000 601000
2020-07-14 18:30 17.21 250000 814000 (1993) 71800 (1988) 262000 90700 114000 142000 160000 227000 304000 345000 512000 601000
2020-07-14 18:00 17.20 250000 814000 (1993) 71800 (1988) 262000 90700 114000 142000 160000 227000 304000 345000 512000 601000
2020-07-14 17:30 17.28 251000 814000 (1993) 71800 (1988) 262000 90700 114000 142000 160000 227000 304000 345000 512000 601000
2020-07-14 17:00 17.25 251000 814000 (1993) 71800 (1988) 262000 90700 114000 142000 160000 227000 304000 345000 512000 601000
2020-07-14 16:30 17.17 250000 814000 (1993) 71800 (1988) 262000 90700 114000 142000 160000 227000 304000 345000 512000 601000
2020-07-14 16:00 17.23 251000 814000 (1993) 71800 (1988) 262000 90700 114000 142000 160000 227000 304000 345000 512000 601000
2020-07-14 15:30 17.15 249000 814000 (1993) 71800 (1988) 262000 90700 114000 142000 160000 227000 304000 345000 512000 601000
2020-07-14 15:00 17.25 251000 814000 (1993) 71800 (1988) 262000 90700 114000 142000 160000 227000 304000 345000 512000 601000
2020-07-14 14:30 17.22 250000 814000 (1993) 71800 (1988) 262000 90700 114000 142000 160000 227000 304000 345000 512000 601000
2020-07-14 14:00 17.26 251000 814000 (1993) 71800 (1988) 262000 90700 114000 142000 160000 227000 304000 345000 512000 601000
2020-07-14 13:30 17.24 251000 814000 (1993) 71800 (1988) 262000 90700 114000 142000 160000 227000 304000 345000 512000 601000
2020-07-14 13:00 17.23 251000 814000 (1993) 71800 (1988) 262000 90700 114000 142000 160000 227000 304000 345000 512000 601000
2020-07-14 12:30 17.08 248000 814000 (1993) 71800 (1988) 262000 90700 114000 142000 160000 227000 304000 345000 512000 601000
2020-07-14 12:00 17.26 251000 814000 (1993) 71800 (1988) 262000 90700 114000 142000 160000 227000 304000 345000 512000 601000
2020-07-14 11:30 17.19 250000 814000 (1993) 71800 (1988) 262000 90700 114000 142000 160000 227000 304000 345000 512000 601000
2020-07-14 11:00 17.22 250000 814000 (1993) 71800 (1988) 262000 90700 114000 142000 160000 227000 304000 345000 512000 601000
2020-07-14 10:30 17.22 250000 814000 (1993) 71800 (1988) 262000 90700 114000 142000 160000 227000 304000 345000 512000 601000
2020-07-14 10:00 17.30 252000 814000 (1993) 71800 (1988) 262000 90700 114000 142000 160000 227000 304000 345000 512000 601000
2020-07-14 09:30 17.27 251000 814000 (1993) 71800 (1988) 262000 90700 114000 142000 160000 227000 304000 345000 512000 601000
2020-07-14 09:00 17.30 252000 814000 (1993) 71800 (1988) 262000 90700 114000 142000 160000 227000 304000 345000 512000 601000
2020-07-14 08:30 17.25 251000 814000 (1993) 71800 (1988) 262000 90700 114000 142000 160000 227000 304000 345000 512000 601000
2020-07-14 08:00 17.22 250000 814000 (1993) 71800 (1988) 262000 90700 114000 142000 160000 227000 304000 345000 512000 601000
2020-07-14 07:30 17.14 249000 814000 (1993) 71800 (1988) 262000 90700 114000 142000 160000 227000 304000 345000 512000 601000
2020-07-14 07:00 17.12 249000 814000 (1993) 71800 (1988) 262000 90700 114000 142000 160000 227000 304000 345000 512000 601000
2020-07-14 06:30 17.19 250000 814000 (1993) 71800 (1988) 262000 90700 114000 142000 160000 227000 304000 345000 512000 601000
2020-07-14 06:00 17.22 250000 814000 (1993) 71800 (1988) 262000 90700 114000 142000 160000 227000 304000 345000 512000 601000
2020-07-14 05:30 17.27 251000 814000 (1993) 71800 (1988) 262000 90700 114000 142000 160000 227000 304000 345000 512000 601000
2020-07-14 05:00 17.15 249000 814000 (1993) 71800 (1988) 262000 90700 114000 142000 160000 227000 304000 345000 512000 601000
2020-07-14 04:30 17.13 249000 814000 (1993) 71800 (1988) 262000 90700 114000 142000 160000 227000 304000 345000 512000 601000
2020-07-14 04:00 17.16 249000 814000 (1993) 71800 (1988) 262000 90700 114000 142000 160000 227000 304000 345000 512000 601000
2020-07-14 03:30 17.28 251000 814000 (1993) 71800 (1988) 262000 90700 114000 142000 160000 227000 304000 345000 512000 601000
2020-07-14 03:00 17.30 252000 814000 (1993) 71800 (1988) 262000 90700 114000 142000 160000 227000 304000 345000 512000 601000
2020-07-14 02:30 17.33 252000 814000 (1993) 71800 (1988) 262000 90700 114000 142000 160000 227000 304000 345000 512000 601000
2020-07-14 02:00 17.40 253000 814000 (1993) 71800 (1988) 262000 90700 114000 142000 160000 227000 304000 345000 512000 601000
2020-07-14 01:30 17.38 253000 814000 (1993) 71800 (1988) 262000 90700 114000 142000 160000 227000 304000 345000 512000 601000
2020-07-14 01:00 17.29 251000 814000 (1993) 71800 (1988) 262000 90700 114000 142000 160000 227000 304000 345000 512000 601000
2020-07-14 00:30 17.37 253000 814000 (1993) 71800 (1988) 262000 90700 114000 142000 160000 227000 304000 345000 512000 601000
2020-07-14 00:00 17.36 253000 814000 (1993) 71800 (1988) 262000 90700 114000 142000 160000 227000 304000 345000 512000 601000
2020-07-13 23:30 17.45 254000 813000 (1993) 62500 (1988) 268000 88400 117000 146000 157000 229000 315000 370000 534000 613000
2020-07-13 23:00 17.47 254000 813000 (1993) 62500 (1988) 268000 88400 117000 146000 157000 229000 315000 370000 534000 613000
2020-07-13 22:30 17.35 252000 813000 (1993) 62500 (1988) 268000 88400 117000 146000 157000 229000 315000 370000 534000 613000
2020-07-13 22:00 17.47 254000 813000 (1993) 62500 (1988) 268000 88400 117000 146000 157000 229000 315000 370000 534000 613000
2020-07-13 21:30 17.54 255000 813000 (1993) 62500 (1988) 268000 88400 117000 146000 157000 229000 315000 370000 534000 613000
2020-07-13 21:00 17.38 253000 813000 (1993) 62500 (1988) 268000 88400 117000 146000 157000 229000 315000 370000 534000 613000
2020-07-13 20:30 17.44 254000 813000 (1993) 62500 (1988) 268000 88400 117000 146000 157000 229000 315000 370000 534000 613000
2020-07-13 20:00 17.64 257000 813000 (1993) 62500 (1988) 268000 88400 117000 146000 157000 229000 315000 370000 534000 613000
2020-07-13 19:30 17.68 258000 813000 (1993) 62500 (1988) 268000 88400 117000 146000 157000 229000 315000 370000 534000 613000
2020-07-13 19:00 17.70 258000 813000 (1993) 62500 (1988) 268000 88400 117000 146000 157000 229000 315000 370000 534000 613000
2020-07-13 18:30 17.66 257000 813000 (1993) 62500 (1988) 268000 88400 117000 146000 157000 229000 315000 370000 534000 613000
2020-07-13 18:00 17.74 258000 813000 (1993) 62500 (1988) 268000 88400 117000 146000 157000 229000 315000 370000 534000 613000
2020-07-13 17:30 17.81 260000 813000 (1993) 62500 (1988) 268000 88400 117000 146000 157000 229000 315000 370000 534000 613000
2020-07-13 17:00 17.63 257000 813000 (1993) 62500 (1988) 268000 88400 117000 146000 157000 229000 315000 370000 534000 613000
2020-07-13 16:30 17.79 259000 813000 (1993) 62500 (1988) 268000 88400 117000 146000 157000 229000 315000 370000 534000 613000
2020-07-13 16:00 17.78 259000 813000 (1993) 62500 (1988) 268000 88400 117000 146000 157000 229000 315000 370000 534000 613000
2020-07-13 15:30 17.75 255000 813000 (1993) 62500 (1988) 268000 88400 117000 146000 157000 229000 315000 370000 534000 613000
2020-07-13 15:00 17.75 255000 813000 (1993) 62500 (1988) 268000 88400 117000 146000 157000 229000 315000 370000 534000 613000
2020-07-13 14:30 17.72 254000 813000 (1993) 62500 (1988) 268000 88400 117000 146000 157000 229000 315000 370000 534000 613000
2020-07-13 14:00 17.76 255000 813000 (1993) 62500 (1988) 268000 88400 117000 146000 157000 229000 315000 370000 534000 613000
2020-07-13 13:30 17.79 255000 813000 (1993) 62500 (1988) 268000 88400 117000 146000 157000 229000 315000 370000 534000 613000
2020-07-13 13:00 17.88 257000 813000 (1993) 62500 (1988) 268000 88400 117000 146000 157000 229000 315000 370000 534000 613000
2020-07-13 12:30 17.72 254000 813000 (1993) 62500 (1988) 268000 88400 117000 146000 157000 229000 315000 370000 534000 613000
2020-07-13 12:00 17.75 255000 813000 (1993) 62500 (1988) 268000 88400 117000 146000 157000 229000 315000 370000 534000 613000
2020-07-13 11:30 17.77 255000 813000 (1993) 62500 (1988) 268000 88400 117000 146000 157000 229000 315000 370000 534000 613000
2020-07-13 11:00 17.74 255000 813000 (1993) 62500 (1988) 268000 88400 117000 146000 157000 229000 315000 370000 534000 613000
2020-07-13 10:30 17.64 253000 813000 (1993) 62500 (1988) 268000 88400 117000 146000 157000 229000 315000 370000 534000 613000
2020-07-13 10:00 17.78 255000 813000 (1993) 62500 (1988) 268000 88400 117000 146000 157000 229000 315000 370000 534000 613000
2020-07-13 09:30 17.81 256000 813000 (1993) 62500 (1988) 268000 88400 117000 146000 157000 229000 315000 370000 534000 613000
2020-07-13 09:00 17.71 254000 813000 (1993) 62500 (1988) 268000 88400 117000 146000 157000 229000 315000 370000 534000 613000
2020-07-13 08:30 17.84 256000 813000 (1993) 62500 (1988) 268000 88400 117000 146000 157000 229000 315000 370000 534000 613000
2020-07-13 08:00 17.73 254000 813000 (1993) 62500 (1988) 268000 88400 117000 146000 157000 229000 315000 370000 534000 613000
2020-07-13 07:30 17.82 256000 813000 (1993) 62500 (1988) 268000 88400 117000 146000 157000 229000 315000 370000 534000 613000
2020-07-13 07:00 17.87 257000 813000 (1993) 62500 (1988) 268000 88400 117000 146000 157000 229000 315000 370000 534000 613000
2020-07-13 06:30 17.74 255000 813000 (1993) 62500 (1988) 268000 88400 117000 146000 157000 229000 315000 370000 534000 613000
2020-07-13 06:00 17.81 256000 813000 (1993) 62500 (1988) 268000 88400 117000 146000 157000 229000 315000 370000 534000 613000
2020-07-13 05:30 17.88 257000 813000 (1993) 62500 (1988) 268000 88400 117000 146000 157000 229000 315000 370000 534000 613000
2020-07-13 05:00 17.88 257000 813000 (1993) 62500 (1988) 268000 88400 117000 146000 157000 229000 315000 370000 534000 613000
2020-07-13 04:30 17.88 257000 813000 (1993) 62500 (1988) 268000 88400 117000 146000 157000 229000 315000 370000 534000 613000
2020-07-13 04:00 17.79 255000 813000 (1993) 62500 (1988) 268000 88400 117000 146000 157000 229000 315000 370000 534000 613000
2020-07-13 03:30 17.77 255000 813000 (1993) 62500 (1988) 268000 88400 117000 146000 157000 229000 315000 370000 534000 613000
2020-07-13 03:00 17.90 257000 813000 (1993) 62500 (1988) 268000 88400 117000 146000 157000 229000 315000 370000 534000 613000
2020-07-13 02:30 17.89 257000 813000 (1993) 62500 (1988) 268000 88400 117000 146000 157000 229000 315000 370000 534000 613000
2020-07-13 02:00 17.90 257000 813000 (1993) 62500 (1988) 268000 88400 117000 146000 157000 229000 315000 370000 534000 613000
2020-07-13 01:30 17.95 258000 813000 (1993) 62500 (1988) 268000 88400 117000 146000 157000 229000 315000 370000 534000 613000
2020-07-13 01:00 17.91 257000 813000 (1993) 62500 (1988) 268000 88400 117000 146000 157000 229000 315000 370000 534000 613000
2020-07-13 00:30 18.04 259000 813000 (1993) 62500 (1988) 268000 88400 117000 146000 157000 229000 315000 370000 534000 613000
2020-07-13 00:00 17.98 258000 813000 (1993) 62500 (1988) 268000 88400 117000 146000 157000 229000 315000 370000 534000 613000
2020-07-12 23:30 18.06 260000 808000 (1993) 59600 (1988) 273000 93200 121000 151000 168000 235000 332000 387000 538000 611000
2020-07-12 23:00 17.93 258000 808000 (1993) 59600 (1988) 273000 93200 121000 151000 168000 235000 332000 387000 538000 611000
2020-07-12 22:30 18.08 260000 808000 (1993) 59600 (1988) 273000 93200 121000 151000 168000 235000 332000 387000 538000 611000
2020-07-12 22:00 17.95 258000 808000 (1993) 59600 (1988) 273000 93200 121000 151000 168000 235000 332000 387000 538000 611000
2020-07-12 21:30 18.11 260000 808000 (1993) 59600 (1988) 273000 93200 121000 151000 168000 235000 332000 387000 538000 611000
2020-07-12 21:00 18.06 260000 808000 (1993) 59600 (1988) 273000 93200 121000 151000 168000 235000 332000 387000 538000 611000
2020-07-12 20:30 18.00 259000 808000 (1993) 59600 (1988) 273000 93200 121000 151000 168000 235000 332000 387000 538000 611000
2020-07-12 20:00 18.14 261000 808000 (1993) 59600 (1988) 273000 93200 121000 151000 168000 235000 332000 387000 538000 611000
2020-07-12 19:30 18.19 262000 808000 (1993) 59600 (1988) 273000 93200 121000 151000 168000 235000 332000 387000 538000 611000
2020-07-12 19:00 18.20 262000 808000 (1993) 59600 (1988) 273000 93200 121000 151000 168000 235000 332000 387000 538000 611000
2020-07-12 18:30 18.19 262000 808000 (1993) 59600 (1988) 273000 93200 121000 151000 168000 235000 332000 387000 538000 611000
2020-07-12 18:00 18.24 262000 808000 (1993) 59600 (1988) 273000 93200 121000 151000 168000 235000 332000 387000 538000 611000
2020-07-12 17:30 18.29 263000 808000 (1993) 59600 (1988) 273000 93200 121000 151000 168000 235000 332000 387000 538000 611000
2020-07-12 17:00 18.28 263000 808000 (1993) 59600 (1988) 273000 93200 121000 151000 168000 235000 332000 387000 538000 611000
2020-07-12 16:30 18.33 264000 808000 (1993) 59600 (1988) 273000 93200 121000 151000 168000 235000 332000 387000 538000 611000
2020-07-12 16:00 18.34 264000 808000 (1993) 59600 (1988) 273000 93200 121000 151000 168000 235000 332000 387000 538000 611000
2020-07-12 15:30 18.30 263000 808000 (1993) 59600 (1988) 273000 93200 121000 151000 168000 235000 332000 387000 538000 611000
2020-07-12 15:00 18.26 263000 808000 (1993) 59600 (1988) 273000 93200 121000 151000 168000 235000 332000 387000 538000 611000
2020-07-12 14:30 18.20 262000 808000 (1993) 59600 (1988) 273000 93200 121000 151000 168000 235000 332000 387000 538000 611000
2020-07-12 14:00 18.24 262000 808000 (1993) 59600 (1988) 273000 93200 121000 151000 168000 235000 332000 387000 538000 611000
2020-07-12 13:30 18.32 264000 808000 (1993) 59600 (1988) 273000 93200 121000 151000 168000 235000 332000 387000 538000 611000
2020-07-12 13:00 18.36 264000 808000 (1993) 59600 (1988) 273000 93200 121000 151000 168000 235000 332000 387000 538000 611000
2020-07-12 12:30 18.35 264000 808000 (1993) 59600 (1988) 273000 93200 121000 151000 168000 235000 332000 387000 538000 611000
2020-07-12 12:00 18.26 263000 808000 (1993) 59600 (1988) 273000 93200 121000 151000 168000 235000 332000 387000 538000 611000
2020-07-12 11:30 18.36 264000 808000 (1993) 59600 (1988) 273000 93200 121000 151000 168000 235000 332000 387000 538000 611000
2020-07-12 11:00 18.39 265000 808000 (1993) 59600 (1988) 273000 93200 121000 151000 168000 235000 332000 387000 538000 611000
2020-07-12 10:30 18.47 266000 808000 (1993) 59600 (1988) 273000 93200 121000 151000 168000 235000 332000 387000 538000 611000
2020-07-12 10:00 18.32 264000 808000 (1993) 59600 (1988) 273000 93200 121000 151000 168000 235000 332000 387000 538000 611000
2020-07-12 09:30 18.47 266000 808000 (1993) 59600 (1988) 273000 93200 121000 151000 168000 235000 332000 387000 538000 611000
2020-07-12 09:00 18.43 265000 808000 (1993) 59600 (1988) 273000 93200 121000 151000 168000 235000 332000 387000 538000 611000
2020-07-12 08:30 18.43 265000 808000 (1993) 59600 (1988) 273000 93200 121000 151000 168000 235000 332000 387000 538000 611000
2020-07-12 08:00 18.39 265000 808000 (1993) 59600 (1988) 273000 93200 121000 151000 168000 235000 332000 387000 538000 611000
2020-07-12 07:30 18.47 266000 808000 (1993) 59600 (1988) 273000 93200 121000 151000 168000 235000 332000 387000 538000 611000
2020-07-12 07:00 18.45 266000 808000 (1993) 59600 (1988) 273000 93200 121000 151000 168000 235000 332000 387000 538000 611000
2020-07-12 06:30 18.35 264000 808000 (1993) 59600 (1988) 273000 93200 121000 151000 168000 235000 332000 387000 538000 611000
2020-07-12 06:00 18.52 267000 808000 (1993) 59600 (1988) 273000 93200 121000 151000 168000 235000 332000 387000 538000 611000
2020-07-12 05:30 18.55 267000 808000 (1993) 59600 (1988) 273000 93200 121000 151000 168000 235000 332000 387000 538000 611000
2020-07-12 05:00 18.53 267000 808000 (1993) 59600 (1988) 273000 93200 121000 151000 168000 235000 332000 387000 538000 611000
2020-07-12 04:30 18.62 269000 808000 (1993) 59600 (1988) 273000 93200 121000 151000 168000 235000 332000 387000 538000 611000
2020-07-12 04:00 18.57 268000 808000 (1993) 59600 (1988) 273000 93200 121000 151000 168000 235000 332000 387000 538000 611000
2020-07-12 03:30 18.49 266000 808000 (1993) 59600 (1988) 273000 93200 121000 151000 168000 235000 332000 387000 538000 611000
2020-07-12 03:00 18.59 268000 808000 (1993) 59600 (1988) 273000 93200 121000 151000 168000 235000 332000 387000 538000 611000
2020-07-12 02:30 18.69 270000 808000 (1993) 59600 (1988) 273000 93200 121000 151000 168000 235000 332000 387000 538000 611000
2020-07-12 02:00 18.53 267000 808000 (1993) 59600 (1988) 273000 93200 121000 151000 168000 235000 332000 387000 538000 611000
2020-07-12 01:30 18.68 270000 808000 (1993) 59600 (1988) 273000 93200 121000 151000 168000 235000 332000 387000 538000 611000
2020-07-12 01:00 18.61 268000 808000 (1993) 59600 (1988) 273000 93200 121000 151000 168000 235000 332000 387000 538000 611000
2020-07-12 00:30 18.66 269000 808000 (1993) 59600 (1988) 273000 93200 121000 151000 168000 235000 332000 387000 538000 611000
2020-07-12 00:00 18.85 272000 808000 (1993) 59600 (1988) 273000 93200 121000 151000 168000 235000 332000 387000 538000 611000
2020-07-11 23:30 18.74 270000 786000 (1993) 60500 (1988) 278000 90700 123000 152000 168000 239000 358000 396000 527000 599000
2020-07-11 23:00 18.90 273000 786000 (1993) 60500 (1988) 278000 90700 123000 152000 168000 239000 358000 396000 527000 599000
2020-07-11 22:30 18.85 272000 786000 (1993) 60500 (1988) 278000 90700 123000 152000 168000 239000 358000 396000 527000 599000
2020-07-11 22:00 18.93 274000 786000 (1993) 60500 (1988) 278000 90700 123000 152000 168000 239000 358000 396000 527000 599000
2020-07-11 21:30 18.88 273000 786000 (1993) 60500 (1988) 278000 90700 123000 152000 168000 239000 358000 396000 527000 599000
2020-07-11 21:00 18.94 274000 786000 (1993) 60500 (1988) 278000 90700 123000 152000 168000 239000 358000 396000 527000 599000
2020-07-11 20:30 18.98 274000 786000 (1993) 60500 (1988) 278000 90700 123000 152000 168000 239000 358000 396000 527000 599000
2020-07-11 20:00 18.99 275000 786000 (1993) 60500 (1988) 278000 90700 123000 152000 168000 239000 358000 396000 527000 599000
2020-07-11 19:30 19.08 276000 786000 (1993) 60500 (1988) 278000 90700 123000 152000 168000 239000 358000 396000 527000 599000
2020-07-11 19:00 19.14 277000 786000 (1993) 60500 (1988) 278000 90700 123000 152000 168000 239000 358000 396000 527000 599000
2020-07-11 18:30 19.19 278000 786000 (1993) 60500 (1988) 278000 90700 123000 152000 168000 239000 358000 396000 527000 599000
2020-07-11 18:00 19.16 277000 786000 (1993) 60500 (1988) 278000 90700 123000 152000 168000 239000 358000 396000 527000 599000
2020-07-11 17:30 18.97 274000 786000 (1993) 60500 (1988) 278000 90700 123000 152000 168000 239000 358000 396000 527000 599000
2020-07-11 17:00 19.09 276000 786000 (1993) 60500 (1988) 278000 90700 123000 152000 168000 239000 358000 396000 527000 599000
2020-07-11 16:30 19.02 275000 786000 (1993) 60500 (1988) 278000 90700 123000 152000 168000 239000 358000 396000 527000 599000
2020-07-11 16:00 19.19 278000 786000 (1993) 60500 (1988) 278000 90700 123000 152000 168000 239000 358000 396000 527000 599000
2020-07-11 15:30 19.17 278000 786000 (1993) 60500 (1988) 278000 90700 123000 152000 168000 239000 358000 396000 527000 599000
2020-07-11 15:00 19.18 278000 786000 (1993) 60500 (1988) 278000 90700 123000 152000 168000 239000 358000 396000 527000 599000
2020-07-11 14:30 19.11 277000 786000 (1993) 60500 (1988) 278000 90700 123000 152000 168000 239000 358000 396000 527000 599000
2020-07-11 14:00 19.16 277000 786000 (1993) 60500 (1988) 278000 90700 123000 152000 168000 239000 358000 396000 527000 599000
2020-07-11 13:30 19.13 277000 786000 (1993) 60500 (1988) 278000 90700 123000 152000 168000 239000 358000 396000 527000 599000
2020-07-11 13:00 19.16 277000 786000 (1993) 60500 (1988) 278000 90700 123000 152000 168000 239000 358000 396000 527000 599000
2020-07-11 12:30 19.14 277000 786000 (1993) 60500 (1988) 278000 90700 123000 152000 168000 239000 358000 396000 527000 599000
2020-07-11 12:00 19.08 276000 786000 (1993) 60500 (1988) 278000 90700 123000 152000 168000 239000 358000 396000 527000 599000
2020-07-11 11:30 19.16 277000 786000 (1993) 60500 (1988) 278000 90700 123000 152000 168000 239000 358000 396000 527000 599000
2020-07-11 11:00 19.27 279000 786000 (1993) 60500 (1988) 278000 90700 123000 152000 168000 239000 358000 396000 527000 599000
2020-07-11 10:30 19.17 278000 786000 (1993) 60500 (1988) 278000 90700 123000 152000 168000 239000 358000 396000 527000 599000
2020-07-11 10:00 19.15 277000 786000 (1993) 60500 (1988) 278000 90700 123000 152000 168000 239000 358000 396000 527000 599000
2020-07-11 09:30 19.11 277000 786000 (1993) 60500 (1988) 278000 90700 123000 152000 168000 239000 358000 396000 527000 599000
2020-07-11 09:00 19.26 279000 786000 (1993) 60500 (1988) 278000 90700 123000 152000 168000 239000 358000 396000 527000 599000
2020-07-11 08:30 19.16 277000 786000 (1993) 60500 (1988) 278000 90700 123000 152000 168000 239000 358000 396000 527000 599000
2020-07-11 08:00 19.23 278000 786000 (1993) 60500 (1988) 278000 90700 123000 152000 168000 239000 358000 396000 527000 599000
2020-07-11 07:30 19.09 276000 786000 (1993) 60500 (1988) 278000 90700 123000 152000 168000 239000 358000 396000 527000 599000
2020-07-11 07:00 19.07 276000 786000 (1993) 60500 (1988) 278000 90700 123000 152000 168000 239000 358000 396000 527000 599000
2020-07-11 06:30 19.20 278000 786000 (1993) 60500 (1988) 278000 90700 123000 152000 168000 239000 358000 396000 527000 599000
2020-07-11 06:00 19.26 279000 786000 (1993) 60500 (1988) 278000 90700 123000 152000 168000 239000 358000 396000 527000 599000
2020-07-11 05:30 19.15 277000 786000 (1993) 60500 (1988) 278000 90700 123000 152000 168000 239000 358000 396000 527000 599000
2020-07-11 05:00 19.14 277000 786000 (1993) 60500 (1988) 278000 90700 123000 152000 168000 239000 358000 396000 527000 599000
2020-07-11 04:30 19.19 278000 786000 (1993) 60500 (1988) 278000 90700 123000 152000 168000 239000 358000 396000 527000 599000
2020-07-11 04:00 19.42 282000 786000 (1993) 60500 (1988) 278000 90700 123000 152000 168000 239000 358000 396000 527000 599000
2020-07-11 03:30 19.33 280000 786000 (1993) 60500 (1988) 278000 90700 123000 152000 168000 239000 358000 396000 527000 599000
2020-07-11 03:00 19.31 280000 786000 (1993) 60500 (1988) 278000 90700 123000 152000 168000 239000 358000 396000 527000 599000
2020-07-11 02:30 19.52 283000 786000 (1993) 60500 (1988) 278000 90700 123000 152000 168000 239000 358000 396000 527000 599000
2020-07-11 02:00 19.42 282000 786000 (1993) 60500 (1988) 278000 90700 123000 152000 168000 239000 358000 396000 527000 599000
2020-07-11 01:30 19.51 283000 786000 (1993) 60500 (1988) 278000 90700 123000 152000 168000 239000 358000 396000 527000 599000
2020-07-11 01:00 19.45 282000 786000 (1993) 60500 (1988) 278000 90700 123000 152000 168000 239000 358000 396000 527000 599000
2020-07-11 00:30 19.54 284000 786000 (1993) 60500 (1988) 278000 90700 123000 152000 168000 239000 358000 396000 527000 599000
2020-07-11 00:00 19.49 283000 786000 (1993) 60500 (1988) 278000 90700 123000 152000 168000 239000 358000 396000 527000 599000
2020-07-10 23:30 19.68 286000 751000 (1993) 60800 (1988) 281000 91600 124000 146000 167000 247000 351000 407000 544000 582000
2020-07-10 23:00 19.66 286000 751000 (1993) 60800 (1988) 281000 91600 124000 146000 167000 247000 351000 407000 544000 582000
2020-07-10 22:30 19.57 284000 751000 (1993) 60800 (1988) 281000 91600 124000 146000 167000 247000 351000 407000 544000 582000
2020-07-10 22:00 19.68 286000 751000 (1993) 60800 (1988) 281000 91600 124000 146000 167000 247000 351000 407000 544000 582000
2020-07-10 21:30 19.70 286000 751000 (1993) 60800 (1988) 281000 91600 124000 146000 167000 247000 351000 407000 544000 582000
2020-07-10 21:00 19.81 288000 751000 (1993) 60800 (1988) 281000 91600 124000 146000 167000 247000 351000 407000 544000 582000
2020-07-10 20:30 19.72 287000 751000 (1993) 60800 (1988) 281000 91600 124000 146000 167000 247000 351000 407000 544000 582000
2020-07-10 20:00 19.93 290000 751000 (1993) 60800 (1988) 281000 91600 124000 146000 167000 247000 351000 407000 544000 582000
2020-07-10 19:30 19.94 290000 751000 (1993) 60800 (1988) 281000 91600 124000 146000 167000 247000 351000 407000 544000 582000
2020-07-10 19:00 19.91 290000 751000 (1993) 60800 (1988) 281000 91600 124000 146000 167000 247000 351000 407000 544000 582000
2020-07-10 18:30 19.97 291000 751000 (1993) 60800 (1988) 281000 91600 124000 146000 167000 247000 351000 407000 544000 582000
2020-07-10 18:00 19.96 291000 751000 (1993) 60800 (1988) 281000 91600 124000 146000 167000 247000 351000 407000 544000 582000
2020-07-10 17:30 20.08 293000 751000 (1993) 60800 (1988) 281000 91600 124000 146000 167000 247000 351000 407000 544000 582000
2020-07-10 17:00 19.92 290000 751000 (1993) 60800 (1988) 281000 91600 124000 146000 167000 247000 351000 407000 544000 582000
2020-07-10 16:30 20.08 293000 751000 (1993) 60800 (1988) 281000 91600 124000 146000 167000 247000 351000 407000 544000 582000
2020-07-10 16:00 19.95 291000 751000 (1993) 60800 (1988) 281000 91600 124000 146000 167000 247000 351000 407000 544000 582000
2020-07-10 15:30 20.04 292000 751000 (1993) 60800 (1988) 281000 91600 124000 146000 167000 247000 351000 407000 544000 582000
2020-07-10 15:00 20.08 293000 751000 (1993) 60800 (1988) 281000 91600 124000 146000 167000 247000 351000 407000 544000 582000
2020-07-10 14:30 19.98 291000 751000 (1993) 60800 (1988) 281000 91600 124000 146000 167000 247000 351000 407000 544000 582000
2020-07-10 14:00 20.10 293000 751000 (1993) 60800 (1988) 281000 91600 124000 146000 167000 247000 351000 407000 544000 582000
2020-07-10 13:30 20.13 294000 751000 (1993) 60800 (1988) 281000 91600 124000 146000 167000 247000 351000 407000 544000 582000
2020-07-10 13:00 19.96 291000 751000 (1993) 60800 (1988) 281000 91600 124000 146000 167000 247000 351000 407000 544000 582000
2020-07-10 12:30 20.11 293000 751000 (1993) 60800 (1988) 281000 91600 124000 146000 167000 247000 351000 407000 544000 582000
2020-07-10 12:00 20.12 293000 751000 (1993) 60800 (1988) 281000 91600 124000 146000 167000 247000 351000 407000 544000 582000
2020-07-10 11:30 20.18 294000 751000 (1993) 60800 (1988) 281000 91600 124000 146000 167000 247000 351000 407000 544000 582000
2020-07-10 11:00 20.14 294000 751000 (1993) 60800 (1988) 281000 91600 124000 146000 167000 247000 351000 407000 544000 582000
2020-07-10 10:30 20.17 294000 751000 (1993) 60800 (1988) 281000 91600 124000 146000 167000 247000 351000 407000 544000 582000
2020-07-10 10:00 20.17 294000 751000 (1993) 60800 (1988) 281000 91600 124000 146000 167000 247000 351000 407000 544000 582000
2020-07-10 09:30 20.25 296000 751000 (1993) 60800 (1988) 281000 91600 124000 146000 167000 247000 351000 407000 544000 582000
2020-07-10 09:00 20.33 297000 751000 (1993) 60800 (1988) 281000 91600 124000 146000 167000 247000 351000 407000 544000 582000
2020-07-10 08:30 20.33 297000 751000 (1993) 60800 (1988) 281000 91600 124000 146000 167000 247000 351000 407000 544000 582000
2020-07-10 08:00 20.25 296000 751000 (1993) 60800 (1988) 281000 91600 124000 146000 167000 247000 351000 407000 544000 582000
2020-07-10 07:30 20.45 299000 751000 (1993) 60800 (1988) 281000 91600 124000 146000 167000 247000 351000 407000 544000 582000
2020-07-10 07:00 20.34 297000 751000 (1993) 60800 (1988) 281000 91600 124000 146000 167000 247000 351000 407000 544000 582000
2020-07-10 06:30 20.49 300000 751000 (1993) 60800 (1988) 281000 91600 124000 146000 167000 247000 351000 407000 544000 582000
2020-07-10 06:00 20.36 298000 751000 (1993) 60800 (1988) 281000 91600 124000 146000 167000 247000 351000 407000 544000 582000
2020-07-10 05:30 20.49 300000 751000 (1993) 60800 (1988) 281000 91600 124000 146000 167000 247000 351000 407000 544000 582000
2020-07-10 05:00 20.55 301000 751000 (1993) 60800 (1988) 281000 91600 124000 146000 167000 247000 351000 407000 544000 582000
2020-07-10 04:30 20.44 299000 751000 (1993) 60800 (1988) 281000 91600 124000 146000 167000 247000 351000 407000 544000 582000
2020-07-10 04:00 20.59 302000 751000 (1993) 60800 (1988) 281000 91600 124000 146000 167000 247000 351000 407000 544000 582000
2020-07-10 03:30 20.65 303000 751000 (1993) 60800 (1988) 281000 91600 124000 146000 167000 247000 351000 407000 544000 582000
2020-07-10 03:00 20.70 303000 751000 (1993) 60800 (1988) 281000 91600 124000 146000 167000 247000 351000 407000 544000 582000
2020-07-10 02:30 20.57 301000 751000 (1993) 60800 (1988) 281000 91600 124000 146000 167000 247000 351000 407000 544000 582000
2020-07-10 02:00 20.59 302000 751000 (1993) 60800 (1988) 281000 91600 124000 146000 167000 247000 351000 407000 544000 582000
2020-07-10 01:30 20.81 305000 751000 (1993) 60800 (1988) 281000 91600 124000 146000 167000 247000 351000 407000 544000 582000
2020-07-10 01:00 20.84 306000 751000 (1993) 60800 (1988) 281000 91600 124000 146000 167000 247000 351000 407000 544000 582000
2020-07-10 00:30 20.81 305000 751000 (1993) 60800 (1988) 281000 91600 124000 146000 167000 247000 351000 407000 544000 582000
2020-07-10 00:00 20.85 306000 751000 (1993) 60800 (1988) 281000 91600 124000 146000 167000 247000 351000 407000 544000 582000
2020-07-09 23:30 20.91 307000 734000 (1993) 66000 (1988) 286000 99800 129000 157000 170000 244000 359000 417000 546000 593000
2020-07-09 23:00 20.92 307000 734000 (1993) 66000 (1988) 286000 99800 129000 157000 170000 244000 359000 417000 546000 593000
2020-07-09 22:30 20.99 309000 734000 (1993) 66000 (1988) 286000 99800 129000 157000 170000 244000 359000 417000 546000 593000
2020-07-09 22:00 20.92 307000 734000 (1993) 66000 (1988) 286000 99800 129000 157000 170000 244000 359000 417000 546000 593000
2020-07-09 21:30 21.06 310000 734000 (1993) 66000 (1988) 286000 99800 129000 157000 170000 244000 359000 417000 546000 593000
2020-07-09 21:00 20.88 307000 734000 (1993) 66000 (1988) 286000 99800 129000 157000 170000 244000 359000 417000 546000 593000
2020-07-09 20:30 21.08 310000 734000 (1993) 66000 (1988) 286000 99800 129000 157000 170000 244000 359000 417000 546000 593000
2020-07-09 20:00 21.04 309000 734000 (1993) 66000 (1988) 286000 99800 129000 157000 170000 244000 359000 417000 546000 593000
2020-07-09 19:30 21.16 312000 734000 (1993) 66000 (1988) 286000 99800 129000 157000 170000 244000 359000 417000 546000 593000
2020-07-09 19:00 21.13 311000 734000 (1993) 66000 (1988) 286000 99800 129000 157000 170000 244000 359000 417000 546000 593000
2020-07-09 18:30 21.15 311000 734000 (1993) 66000 (1988) 286000 99800 129000 157000 170000 244000 359000 417000 546000 593000
2020-07-09 18:00 21.17 312000 734000 (1993) 66000 (1988) 286000 99800 129000 157000 170000 244000 359000 417000 546000 593000
2020-07-09 17:30 21.11 311000 734000 (1993) 66000 (1988) 286000 99800 129000 157000 170000 244000 359000 417000 546000 593000
2020-07-09 17:00 21.29 314000 734000 (1993) 66000 (1988) 286000 99800 129000 157000 170000 244000 359000 417000 546000 593000
2020-07-09 16:30 21.07 310000 734000 (1993) 66000 (1988) 286000 99800 129000 157000 170000 244000 359000 417000 546000 593000
2020-07-09 16:00 21.28 314000 734000 (1993) 66000 (1988) 286000 99800 129000 157000 170000 244000 359000 417000 546000 593000
2020-07-09 15:30 21.24 313000 734000 (1993) 66000 (1988) 286000 99800 129000 157000 170000 244000 359000 417000 546000 593000
2020-07-09 15:00 21.25 313000 734000 (1993) 66000 (1988) 286000 99800 129000 157000 170000 244000 359000 417000 546000 593000
2020-07-09 14:30 21.29 314000 734000 (1993) 66000 (1988) 286000 99800 129000 157000 170000 244000 359000 417000 546000 593000
2020-07-09 14:00 21.24 313000 734000 (1993) 66000 (1988) 286000 99800 129000 157000 170000 244000 359000 417000 546000 593000
2020-07-09 13:30 21.37 315000 734000 (1993) 66000 (1988) 286000 99800 129000 157000 170000 244000 359000 417000 546000 593000
2020-07-09 13:00 21.33 315000 734000 (1993) 66000 (1988) 286000 99800 129000 157000 170000 244000 359000 417000 546000 593000
2020-07-09 12:30 21.36 315000 734000 (1993) 66000 (1988) 286000 99800 129000 157000 170000 244000 359000 417000 546000 593000
2020-07-09 12:00 21.42 316000 734000 (1993) 66000 (1988) 286000 99800 129000 157000 170000 244000 359000 417000 546000 593000
2020-07-09 11:30 21.39 316000 734000 (1993) 66000 (1988) 286000 99800 129000 157000 170000 244000 359000 417000 546000 593000
2020-07-09 11:00 21.35 315000 734000 (1993) 66000 (1988) 286000 99800 129000 157000 170000 244000 359000 417000 546000 593000
2020-07-09 10:30 21.38 315000 734000 (1993) 66000 (1988) 286000 99800 129000 157000 170000 244000 359000 417000 546000 593000
2020-07-09 10:00 21.41 316000 734000 (1993) 66000 (1988) 286000 99800 129000 157000 170000 244000 359000 417000 546000 593000
2020-07-09 09:30 21.32 314000 734000 (1993) 66000 (1988) 286000 99800 129000 157000 170000 244000 359000 417000 546000 593000
2020-07-09 09:00 21.55 318000 734000 (1993) 66000 (1988) 286000 99800 129000 157000 170000 244000 359000 417000 546000 593000
2020-07-09 08:30 21.37 315000 734000 (1993) 66000 (1988) 286000 99800 129000 157000 170000 244000 359000 417000 546000 593000
2020-07-09 08:00 21.46 317000 734000 (1993) 66000 (1988) 286000 99800 129000 157000 170000 244000 359000 417000 546000 593000
2020-07-09 07:30 21.34 315000 734000 (1993) 66000 (1988) 286000 99800 129000 157000 170000 244000 359000 417000 546000 593000
2020-07-09 07:00 21.57 319000 734000 (1993) 66000 (1988) 286000 99800 129000 157000 170000 244000 359000 417000 546000 593000
2020-07-09 06:30 21.47 317000 734000 (1993) 66000 (1988) 286000 99800 129000 157000 170000 244000 359000 417000 546000 593000
2020-07-09 06:00 21.58 319000 734000 (1993) 66000 (1988) 286000 99800 129000 157000 170000 244000 359000 417000 546000 593000
2020-07-09 05:30 21.55 318000 734000 (1993) 66000 (1988) 286000 99800 129000 157000 170000 244000 359000 417000 546000 593000
2020-07-09 05:00 21.60 319000 734000 (1993) 66000 (1988) 286000 99800 129000 157000 170000 244000 359000 417000 546000 593000
2020-07-09 04:30 21.59 319000 734000 (1993) 66000 (1988) 286000 99800 129000 157000 170000 244000 359000 417000 546000 593000
2020-07-09 04:00 21.52 318000 734000 (1993) 66000 (1988) 286000 99800 129000 157000 170000 244000 359000 417000 546000 593000
2020-07-09 03:30 21.62 320000 734000 (1993) 66000 (1988) 286000 99800 129000 157000 170000 244000 359000 417000 546000 593000
2020-07-09 03:00 21.69 321000 734000 (1993) 66000 (1988) 286000 99800 129000 157000 170000 244000 359000 417000 546000 593000
2020-07-09 02:30 21.42 316000 734000 (1993) 66000 (1988) 286000 99800 129000 157000 170000 244000 359000 417000 546000 593000
2020-07-09 02:00 21.68 321000 734000 (1993) 66000 (1988) 286000 99800 129000 157000 170000 244000 359000 417000 546000 593000
2020-07-09 01:30 21.80 323000 734000 (1993) 66000 (1988) 286000 99800 129000 157000 170000 244000 359000 417000 546000 593000
2020-07-09 01:00 21.86 324000 734000 (1993) 66000 (1988) 286000 99800 129000 157000 170000 244000 359000 417000 546000 593000
2020-07-09 00:30 21.86 324000 734000 (1993) 66000 (1988) 286000 99800 129000 157000 170000 244000 359000 417000 546000 593000
2020-07-09 00:00 21.95 326000 734000 (1993) 66000 (1988) 286000 99800 129000 157000 170000 244000 359000 417000 546000 593000
2020-07-08 23:30 21.83 324000 764000 (1947) 68100 (1988) 291000 98900 125000 160000 175000 246000 369000 417000 556000 614000
2020-07-08 23:00 21.98 326000 764000 (1947) 68100 (1988) 291000 98900 125000 160000 175000 246000 369000 417000 556000 614000
2020-07-08 22:30 21.90 325000 764000 (1947) 68100 (1988) 291000 98900 125000 160000 175000 246000 369000 417000 556000 614000
2020-07-08 22:00 21.97 326000 764000 (1947) 68100 (1988) 291000 98900 125000 160000 175000 246000 369000 417000 556000 614000
2020-07-08 21:30 21.97 326000 764000 (1947) 68100 (1988) 291000 98900 125000 160000 175000 246000 369000 417000 556000 614000
2020-07-08 21:00 22.00 327000 764000 (1947) 68100 (1988) 291000 98900 125000 160000 175000 246000 369000 417000 556000 614000
2020-07-08 20:30 22.04 327000 764000 (1947) 68100 (1988) 291000 98900 125000 160000 175000 246000 369000 417000 556000 614000
2020-07-08 20:00 22.17 330000 764000 (1947) 68100 (1988) 291000 98900 125000 160000 175000 246000 369000 417000 556000 614000
2020-07-08 19:30 22.03 327000 764000 (1947) 68100 (1988) 291000 98900 125000 160000 175000 246000 369000 417000 556000 614000
2020-07-08 19:00 22.09 328000 764000 (1947) 68100 (1988) 291000 98900 125000 160000 175000 246000 369000 417000 556000 614000
2020-07-08 18:30 22.19 330000 764000 (1947) 68100 (1988) 291000 98900 125000 160000 175000 246000 369000 417000 556000 614000
2020-07-08 18:00 22.22 331000 764000 (1947) 68100 (1988) 291000 98900 125000 160000 175000 246000 369000 417000 556000 614000
2020-07-08 17:30 22.31 332000 764000 (1947) 68100 (1988) 291000 98900 125000 160000 175000 246000 369000 417000 556000 614000
2020-07-08 17:00 22.35 333000 764000 (1947) 68100 (1988) 291000 98900 125000 160000 175000 246000 369000 417000 556000 614000
2020-07-08 16:30 22.49 336000 764000 (1947) 68100 (1988) 291000 98900 125000 160000 175000 246000 369000 417000 556000 614000
2020-07-08 16:00 22.51 336000 764000 (1947) 68100 (1988) 291000 98900 125000 160000 175000 246000 369000 417000 556000 614000
2020-07-08 15:30 22.48 335000 764000 (1947) 68100 (1988) 291000 98900 125000 160000 175000 246000 369000 417000 556000 614000
2020-07-08 15:00 22.48 335000 764000 (1947) 68100 (1988) 291000 98900 125000 160000 175000 246000 369000 417000 556000 614000
2020-07-08 14:30 22.60 338000 764000 (1947) 68100 (1988) 291000 98900 125000 160000 175000 246000 369000 417000 556000 614000
2020-07-08 14:00 22.57 337000 764000 (1947) 68100 (1988) 291000 98900 125000 160000 175000 246000 369000 417000 556000 614000
2020-07-08 13:30 22.49 336000 764000 (1947) 68100 (1988) 291000 98900 125000 160000 175000 246000 369000 417000 556000 614000
2020-07-08 13:00 22.68 339000 764000 (1947) 68100 (1988) 291000 98900 125000 160000 175000 246000 369000 417000 556000 614000
2020-07-08 12:30 22.60 338000 764000 (1947) 68100 (1988) 291000 98900 125000 160000 175000 246000 369000 417000 556000 614000
2020-07-08 12:00 22.73 340000 764000 (1947) 68100 (1988) 291000 98900 125000 160000 175000 246000 369000 417000 556000 614000
2020-07-08 11:30 22.67 339000 764000 (1947) 68100 (1988) 291000 98900 125000 160000 175000 246000 369000 417000 556000 614000
2020-07-08 11:00 22.74 340000 764000 (1947) 68100 (1988) 291000 98900 125000 160000 175000 246000 369000 417000 556000 614000
2020-07-08 10:30 22.79 341000 764000 (1947) 68100 (1988) 291000 98900 125000 160000 175000 246000 369000 417000 556000 614000
2020-07-08 10:00 22.79 341000 764000 (1947) 68100 (1988) 291000 98900 125000 160000 175000 246000 369000 417000 556000 614000
2020-07-08 09:30 22.83 342000 764000 (1947) 68100 (1988) 291000 98900 125000 160000 175000 246000 369000 417000 556000 614000
2020-07-08 09:00 22.90 343000 764000 (1947) 68100 (1988) 291000 98900 125000 160000 175000 246000 369000 417000 556000 614000
2020-07-08 08:30 22.87 343000 764000 (1947) 68100 (1988) 291000 98900 125000 160000 175000 246000 369000 417000 556000 614000
2020-07-08 08:00 22.81 342000 764000 (1947) 68100 (1988) 291000 98900 125000 160000 175000 246000 369000 417000 556000 614000
2020-07-08 07:30 22.95 344000 764000 (1947) 68100 (1988) 291000 98900 125000 160000 175000 246000 369000 417000 556000 614000
2020-07-08 07:00 22.84 342000 764000 (1947) 68100 (1988) 291000 98900 125000 160000 175000 246000 369000 417000 556000 614000
2020-07-08 06:30 22.99 345000 764000 (1947) 68100 (1988) 291000 98900 125000 160000 175000 246000 369000 417000 556000 614000
2020-07-08 06:00 22.75 341000 764000 (1947) 68100 (1988) 291000 98900 125000 160000 175000 246000 369000 417000 556000 614000
2020-07-08 05:30 22.98 345000 764000 (1947) 68100 (1988) 291000 98900 125000 160000 175000 246000 369000 417000 556000 614000
2020-07-08 05:00 22.94 344000 764000 (1947) 68100 (1988) 291000 98900 125000 160000 175000 246000 369000 417000 556000 614000
2020-07-08 04:30 23.04 346000 764000 (1947) 68100 (1988) 291000 98900 125000 160000 175000 246000 369000 417000 556000 614000
2020-07-08 04:00 23.08 347000 764000 (1947) 68100 (1988) 291000 98900 125000 160000 175000 246000 369000 417000 556000 614000
2020-07-08 03:30 23.16 348000 764000 (1947) 68100 (1988) 291000 98900 125000 160000 175000 246000 369000 417000 556000 614000
2020-07-08 03:00 23.23 350000 764000 (1947) 68100 (1988) 291000 98900 125000 160000 175000 246000 369000 417000 556000 614000
2020-07-08 02:30 23.02 346000 764000 (1947) 68100 (1988) 291000 98900 125000 160000 175000 246000 369000 417000 556000 614000
2020-07-08 02:00 23.26 350000 764000 (1947) 68100 (1988) 291000 98900 125000 160000 175000 246000 369000 417000 556000 614000
2020-07-08 01:30 23.43 353000 764000 (1947) 68100 (1988) 291000 98900 125000 160000 175000 246000 369000 417000 556000 614000
2020-07-08 01:00 23.37 352000 764000 (1947) 68100 (1988) 291000 98900 125000 160000 175000 246000 369000 417000 556000 614000
2020-07-08 00:30 23.33 351000 764000 (1947) 68100 (1988) 291000 98900 125000 160000 175000 246000 369000 417000 556000 614000
2020-07-08 00:00 23.33 351000 764000 (1947) 68100 (1988) 291000 98900 125000 160000 175000 246000 369000 417000 556000 614000
2020-07-07 23:30 23.50 354000 806000 (1947) 66700 (1988) 297000 101000 126000 159000 179000 263000 382000 413000 545000 627000
2020-07-07 23:00 23.58 356000 806000 (1947) 66700 (1988) 297000 101000 126000 159000 179000 263000 382000 413000 545000 627000
2020-07-07 22:30 23.56 355000 806000 (1947) 66700 (1988) 297000 101000 126000 159000 179000 263000 382000 413000 545000 627000
2020-07-07 22:00 23.69 357000 806000 (1947) 66700 (1988) 297000 101000 126000 159000 179000 263000 382000 413000 545000 627000
2020-07-07 21:30 23.64 357000 806000 (1947) 66700 (1988) 297000 101000 126000 159000 179000 263000 382000 413000 545000 627000
2020-07-07 21:00 23.64 357000 806000 (1947) 66700 (1988) 297000 101000 126000 159000 179000 263000 382000 413000 545000 627000
2020-07-07 20:30 23.59 356000 806000 (1947) 66700 (1988) 297000 101000 126000 159000 179000 263000 382000 413000 545000 627000
2020-07-07 20:00 23.76 359000 806000 (1947) 66700 (1988) 297000 101000 126000 159000 179000 263000 382000 413000 545000 627000
2020-07-07 19:30 23.91 361000 806000 (1947) 66700 (1988) 297000 101000 126000 159000 179000 263000 382000 413000 545000 627000
2020-07-07 19:00 23.87 361000 806000 (1947) 66700 (1988) 297000 101000 126000 159000 179000 263000 382000 413000 545000 627000
2020-07-07 18:30 24.07 364000 806000 (1947) 66700 (1988) 297000 101000 126000 159000 179000 263000 382000 413000 545000 627000
2020-07-07 18:00 23.91 361000 806000 (1947) 66700 (1988) 297000 101000 126000 159000 179000 263000 382000 413000 545000 627000
2020-07-07 17:30 24.18 366000 806000 (1947) 66700 (1988) 297000 101000 126000 159000 179000 263000 382000 413000 545000 627000
2020-07-07 17:00 24.19 366000 806000 (1947) 66700 (1988) 297000 101000 126000 159000 179000 263000 382000 413000 545000 627000
2020-07-07 16:30 23.87 361000 806000 (1947) 66700 (1988) 297000 101000 126000 159000 179000 263000 382000 413000 545000 627000
2020-07-07 16:00 24.19 366000 806000 (1947) 66700 (1988) 297000 101000 126000 159000 179000 263000 382000 413000 545000 627000
2020-07-07 15:30 24.21 366000 806000 (1947) 66700 (1988) 297000 101000 126000 159000 179000 263000 382000 413000 545000 627000
2020-07-07 15:00 24.15 365000 806000 (1947) 66700 (1988) 297000 101000 126000 159000 179000 263000 382000 413000 545000 627000
2020-07-07 14:30 24.40 370000 806000 (1947) 66700 (1988) 297000 101000 126000 159000 179000 263000 382000 413000 545000 627000
2020-07-07 14:00 24.42 370000 806000 (1947) 66700 (1988) 297000 101000 126000 159000 179000 263000 382000 413000 545000 627000
2020-07-07 13:30 24.40 370000 806000 (1947) 66700 (1988) 297000 101000 126000 159000 179000 263000 382000 413000 545000 627000
2020-07-07 13:00 24.31 368000 806000 (1947) 66700 (1988) 297000 101000 126000 159000 179000 263000 382000 413000 545000 627000
2020-07-07 12:30 24.41 370000 806000 (1947) 66700 (1988) 297000 101000 126000 159000 179000 263000 382000 413000 545000 627000
2020-07-07 12:00 24.41 370000 806000 (1947) 66700 (1988) 297000 101000 126000 159000 179000 263000 382000 413000 545000 627000
2020-07-07 11:30 24.53 372000 806000 (1947) 66700 (1988) 297000 101000 126000 159000 179000 263000 382000 413000 545000 627000
2020-07-07 11:00 24.46 371000 806000 (1947) 66700 (1988) 297000 101000 126000 159000 179000 263000 382000 413000 545000 627000
2020-07-07 10:30 24.40 370000 806000 (1947) 66700 (1988) 297000 101000 126000 159000 179000 263000 382000 413000 545000 627000
2020-07-07 10:00 24.58 373000 806000 (1947) 66700 (1988) 297000 101000 126000 159000 179000 263000 382000 413000 545000 627000
2020-07-07 09:30 24.64 374000 806000 (1947) 66700 (1988) 297000 101000 126000 159000 179000 263000 382000 413000 545000 627000
2020-07-07 09:00 24.51 372000 806000 (1947) 66700 (1988) 297000 101000 126000 159000 179000 263000 382000 413000 545000 627000
2020-07-07 08:30 24.65 374000 806000 (1947) 66700 (1988) 297000 101000 126000 159000 179000 263000 382000 413000 545000 627000
2020-07-07 08:00 24.57 373000 806000 (1947) 66700 (1988) 297000 101000 126000 159000 179000 263000 382000 413000 545000 627000
2020-07-07 07:30 24.56 373000 806000 (1947) 66700 (1988) 297000 101000 126000 159000 179000 263000 382000 413000 545000 627000
2020-07-07 07:00 24.59 373000 806000 (1947) 66700 (1988) 297000 101000 126000 159000 179000 263000 382000 413000 545000 627000
2020-07-07 06:30 24.33 369000 806000 (1947) 66700 (1988) 297000 101000 126000 159000 179000 263000 382000 413000 545000 627000
2020-07-07 06:00 24.72 375000 806000 (1947) 66700 (1988) 297000 101000 126000 159000 179000 263000 382000 413000 545000 627000
2020-07-07 05:30 24.80 377000 806000 (1947) 66700 (1988) 297000 101000 126000 159000 179000 263000 382000 413000 545000 627000
2020-07-07 05:00 24.81 377000 806000 (1947) 66700 (1988) 297000 101000 126000 159000 179000 263000 382000 413000 545000 627000
2020-07-07 04:30 24.81 377000 806000 (1947) 66700 (1988) 297000 101000 126000 159000 179000 263000 382000 413000 545000 627000
2020-07-07 04:00 24.89 378000 806000 (1947) 66700 (1988) 297000 101000 126000 159000 179000 263000 382000 413000 545000 627000
2020-07-07 03:30 24.82 377000 806000 (1947) 66700 (1988) 297000 101000 126000 159000 179000 263000 382000 413000 545000 627000
2020-07-07 03:00 25.01 381000 806000 (1947) 66700 (1988) 297000 101000 126000 159000 179000 263000 382000 413000 545000 627000
2020-07-07 02:30 24.95 379000 806000 (1947) 66700 (1988) 297000 101000 126000 159000 179000 263000 382000 413000 545000 627000
2020-07-07 02:00 24.87 378000 806000 (1947) 66700 (1988) 297000 101000 126000 159000 179000 263000 382000 413000 545000 627000
2020-07-07 01:30 24.81 377000 806000 (1947) 66700 (1988) 297000 101000 126000 159000 179000 263000 382000 413000 545000 627000
2020-07-07 01:00 25.12 382000 806000 (1947) 66700 (1988) 297000 101000 126000 159000 179000 263000 382000 413000 545000 627000
2020-07-07 00:30 25.12 382000 806000 (1947) 66700 (1988) 297000 101000 126000 159000 179000 263000 382000 413000 545000 627000
2020-07-07 00:00 25.02 381000 806000 (1947) 66700 (1988) 297000 101000 126000 159000 179000 263000 382000 413000 545000 627000
2020-07-06 23:30 25.22 384000 824000 (1947) 64100 (1988) 302000 103000 131000 163000 181000 259000 387000 419000 551000 634000
2020-07-06 23:00 25.19 384000 824000 (1947) 64100 (1988) 302000 103000 131000 163000 181000 259000 387000 419000 551000 634000
2020-07-06 22:30 24.92 379000 824000 (1947) 64100 (1988) 302000 103000 131000 163000 181000 259000 387000 419000 551000 634000
2020-07-06 22:00 25.28 385000 824000 (1947) 64100 (1988) 302000 103000 131000 163000 181000 259000 387000 419000 551000 634000
2020-07-06 21:30 25.34 386000 824000 (1947) 64100 (1988) 302000 103000 131000 163000 181000 259000 387000 419000 551000 634000
2020-07-06 21:00 25.39 387000 824000 (1947) 64100 (1988) 302000 103000 131000 163000 181000 259000 387000 419000 551000 634000
2020-07-06 20:30 25.34 386000 824000 (1947) 64100 (1988) 302000 103000 131000 163000 181000 259000 387000 419000 551000 634000
2020-07-06 20:00 25.42 388000 824000 (1947) 64100 (1988) 302000 103000 131000 163000 181000 259000 387000 419000 551000 634000
2020-07-06 19:30 25.51 389000 824000 (1947) 64100 (1988) 302000 103000 131000 163000 181000 259000 387000 419000 551000 634000
2020-07-06 19:00 25.41 388000 824000 (1947) 64100 (1988) 302000 103000 131000 163000 181000 259000 387000 419000 551000 634000
2020-07-06 18:30 25.50 389000 824000 (1947) 64100 (1988) 302000 103000 131000 163000 181000 259000 387000 419000 551000 634000
2020-07-06 18:00 25.48 389000 824000 (1947) 64100 (1988) 302000 103000 131000 163000 181000 259000 387000 419000 551000 634000
2020-07-06 17:30 25.57 391000 824000 (1947) 64100 (1988) 302000 103000 131000 163000 181000 259000 387000 419000 551000 634000
2020-07-06 17:00 25.51 389000 824000 (1947) 64100 (1988) 302000 103000 131000 163000 181000 259000 387000 419000 551000 634000
2020-07-06 16:30 25.64 392000 824000 (1947) 64100 (1988) 302000 103000 131000 163000 181000 259000 387000 419000 551000 634000
2020-07-06 16:00 25.62 391000 824000 (1947) 64100 (1988) 302000 103000 131000 163000 181000 259000 387000 419000 551000 634000
2020-07-06 15:30 25.57 391000 824000 (1947) 64100 (1988) 302000 103000 131000 163000 181000 259000 387000 419000 551000 634000
2020-07-06 15:00 25.64 392000 824000 (1947) 64100 (1988) 302000 103000 131000 163000 181000 259000 387000 419000 551000 634000
2020-07-06 14:30 25.74 394000 824000 (1947) 64100 (1988) 302000 103000 131000 163000 181000 259000 387000 419000 551000 634000
2020-07-06 14:00 25.66 392000 824000 (1947) 64100 (1988) 302000 103000 131000 163000 181000 259000 387000 419000 551000 634000
2020-07-06 13:30 25.75 394000 824000 (1947) 64100 (1988) 302000 103000 131000 163000 181000 259000 387000 419000 551000 634000
2020-07-06 13:00 25.52 390000 824000 (1947) 64100 (1988) 302000 103000 131000 163000 181000 259000 387000 419000 551000 634000
2020-07-06 12:30 25.55 390000 824000 (1947) 64100 (1988) 302000 103000 131000 163000 181000 259000 387000 419000 551000 634000
2020-07-06 12:00 25.63 392000 824000 (1947) 64100 (1988) 302000 103000 131000 163000 181000 259000 387000 419000 551000 634000
2020-07-06 11:30 25.79 395000 824000 (1947) 64100 (1988) 302000 103000 131000 163000 181000 259000 387000 419000 551000 634000
2020-07-06 11:00 25.60 391000 824000 (1947) 64100 (1988) 302000 103000 131000 163000 181000 259000 387000 419000 551000 634000
2020-07-06 10:30 25.77 394000 824000 (1947) 64100 (1988) 302000 103000 131000 163000 181000 259000 387000 419000 551000 634000
2020-07-06 10:00 25.80 395000 824000 (1947) 64100 (1988) 302000 103000 131000 163000 181000 259000 387000 419000 551000 634000
2020-07-06 09:30 25.70 393000 824000 (1947) 64100 (1988) 302000 103000 131000 163000 181000 259000 387000 419000 551000 634000
2020-07-06 09:00 25.67 392000 824000 (1947) 64100 (1988) 302000 103000 131000 163000 181000 259000 387000 419000 551000 634000
2020-07-06 08:30 25.55 390000 824000 (1947) 64100 (1988) 302000 103000 131000 163000 181000 259000 387000 419000 551000 634000
2020-07-06 08:00 25.61 391000 824000 (1947) 64100 (1988) 302000 103000 131000 163000 181000 259000 387000 419000 551000 634000
2020-07-06 07:30 25.82 395000 824000 (1947) 64100 (1988) 302000 103000 131000 163000 181000 259000 387000 419000 551000 634000
2020-07-06 07:00 25.65 392000 824000 (1947) 64100 (1988) 302000 103000 131000 163000 181000 259000 387000 419000 551000 634000
2020-07-06 06:30 25.71 393000 824000 (1947) 64100 (1988) 302000 103000 131000 163000 181000 259000 387000 419000 551000 634000
2020-07-06 06:00 25.54 390000 824000 (1947) 64100 (1988) 302000 103000 131000 163000 181000 259000 387000 419000 551000 634000
2020-07-06 05:30 25.78 394000 824000 (1947) 64100 (1988) 302000 103000 131000 163000 181000 259000 387000 419000 551000 634000
2020-07-06 05:00 25.86 396000 824000 (1947) 64100 (1988) 302000 103000 131000 163000 181000 259000 387000 419000 551000 634000
2020-07-06 04:30 25.72 393000 824000 (1947) 64100 (1988) 302000 103000 131000 163000 181000 259000 387000 419000 551000 634000
2020-07-06 04:00 25.73 393000 824000 (1947) 64100 (1988) 302000 103000 131000 163000 181000 259000 387000 419000 551000 634000
2020-07-06 03:30 25.88 396000 824000 (1947) 64100 (1988) 302000 103000 131000 163000 181000 259000 387000 419000 551000 634000
2020-07-06 03:00 25.62 391000 824000 (1947) 64100 (1988) 302000 103000 131000 163000 181000 259000 387000 419000 551000 634000
2020-07-06 02:30 25.93 397000 824000 (1947) 64100 (1988) 302000 103000 131000 163000 181000 259000 387000 419000 551000 634000
2020-07-06 02:00 25.65 392000 824000 (1947) 64100 (1988) 302000 103000 131000 163000 181000 259000 387000 419000 551000 634000
2020-07-06 01:30 25.73 393000 824000 (1947) 64100 (1988) 302000 103000 131000 163000 181000 259000 387000 419000 551000 634000
2020-07-06 01:00 25.80 395000 824000 (1947) 64100 (1988) 302000 103000 131000 163000 181000 259000 387000 419000 551000 634000
2020-07-06 00:30 25.78 394000 824000 (1947) 64100 (1988) 302000 103000 131000 163000 181000 259000 387000 419000 551000 634000
2020-07-06 00:00 25.93 397000 824000 (1947) 64100 (1988) 302000 103000 131000 163000 181000 259000 387000 419000 551000 634000
2020-07-05 23:30 25.93 397000 836000 (1947) 64000 (1988) 306000 105000 135000 163000 186000 271000 391000 420000 568000 650000
2020-07-05 23:00 25.67 392000 836000 (1947) 64000 (1988) 306000 105000 135000 163000 186000 271000 391000 420000 568000 650000
2020-07-05 22:30 25.75 394000 836000 (1947) 64000 (1988) 306000 105000 135000 163000 186000 271000 391000 420000 568000 650000
2020-07-05 22:00 25.74 394000 836000 (1947) 64000 (1988) 306000 105000 135000 163000 186000 271000 391000 420000 568000 650000
2020-07-05 21:30 25.91 397000 836000 (1947) 64000 (1988) 306000 105000 135000 163000 186000 271000 391000 420000 568000 650000
2020-07-05 21:00 25.94 397000 836000 (1947) 64000 (1988) 306000 105000 135000 163000 186000 271000 391000 420000 568000 650000
2020-07-05 20:30 25.95 397000 836000 (1947) 64000 (1988) 306000 105000 135000 163000 186000 271000 391000 420000 568000 650000
2020-07-05 20:00 26.01 399000 836000 (1947) 64000 (1988) 306000 105000 135000 163000 186000 271000 391000 420000 568000 650000
2020-07-05 19:30 25.96 398000 836000 (1947) 64000 (1988) 306000 105000 135000 163000 186000 271000 391000 420000 568000 650000
2020-07-05 19:00 26.01 399000 836000 (1947) 64000 (1988) 306000 105000 135000 163000 186000 271000 391000 420000 568000 650000
2020-07-05 18:30 26.01 399000 836000 (1947) 64000 (1988) 306000 105000 135000 163000 186000 271000 391000 420000 568000 650000
2020-07-05 18:00 26.16 401000 836000 (1947) 64000 (1988) 306000 105000 135000 163000 186000 271000 391000 420000 568000 650000
2020-07-05 17:30 25.84 395000 836000 (1947) 64000 (1988) 306000 105000 135000 163000 186000 271000 391000 420000 568000 650000
2020-07-05 17:00 26.10 400000 836000 (1947) 64000 (1988) 306000 105000 135000 163000 186000 271000 391000 420000 568000 650000
2020-07-05 16:30 26.03 399000 836000 (1947) 64000 (1988) 306000 105000 135000 163000 186000 271000 391000 420000 568000 650000
2020-07-05 16:00 26.01 399000 836000 (1947) 64000 (1988) 306000 105000 135000 163000 186000 271000 391000 420000 568000 650000
2020-07-05 15:30 26.05 399000 836000 (1947) 64000 (1988) 306000 105000 135000 163000 186000 271000 391000 420000 568000 650000
2020-07-05 15:00 26.00 398000 836000 (1947) 64000 (1988) 306000 105000 135000 163000 186000 271000 391000 420000 568000 650000
2020-07-05 14:30 25.91 397000 836000 (1947) 64000 (1988) 306000 105000 135000 163000 186000 271000 391000 420000 568000 650000
2020-07-05 14:00 26.00 398000 836000 (1947) 64000 (1988) 306000 105000 135000 163000 186000 271000 391000 420000 568000 650000
2020-07-05 13:30 25.95 397000 836000 (1947) 64000 (1988) 306000 105000 135000 163000 186000 271000 391000 420000 568000 650000
2020-07-05 13:00 25.92 397000 836000 (1947) 64000 (1988) 306000 105000 135000 163000 186000 271000 391000 420000 568000 650000
2020-07-05 12:30 25.92 397000 836000 (1947) 64000 (1988) 306000 105000 135000 163000 186000 271000 391000 420000 568000 650000
2020-07-05 12:00 25.72 393000 836000 (1947) 64000 (1988) 306000 105000 135000 163000 186000 271000 391000 420000 568000 650000
2020-07-05 11:30 25.73 393000 836000 (1947) 64000 (1988) 306000 105000 135000 163000 186000 271000 391000 420000 568000 650000
2020-07-05 11:00 25.96 398000 836000 (1947) 64000 (1988) 306000 105000 135000 163000 186000 271000 391000 420000 568000 650000
2020-07-05 10:30 25.74 394000 836000 (1947) 64000 (1988) 306000 105000 135000 163000 186000 271000 391000 420000 568000 650000
2020-07-05 10:00 25.88 396000 836000 (1947) 64000 (1988) 306000 105000 135000 163000 186000 271000 391000 420000 568000 650000
2020-07-05 09:30 25.92 397000 836000 (1947) 64000 (1988) 306000 105000 135000 163000 186000 271000 391000 420000 568000 650000
2020-07-05 09:00 25.79 395000 836000 (1947) 64000 (1988) 306000 105000 135000 163000 186000 271000 391000 420000 568000 650000
2020-07-05 08:30 25.72 393000 836000 (1947) 64000 (1988) 306000 105000 135000 163000 186000 271000 391000 420000 568000 650000
2020-07-05 08:00 25.80 395000 836000 (1947) 64000 (1988) 306000 105000 135000 163000 186000 271000 391000 420000 568000 650000
2020-07-05 07:30 25.93 397000 836000 (1947) 64000 (1988) 306000 105000 135000 163000 186000 271000 391000 420000 568000 650000
2020-07-05 07:00 25.94 397000 836000 (1947) 64000 (1988) 306000 105000 135000 163000 186000 271000 391000 420000 568000 650000
2020-07-05 06:30 25.95 397000 836000 (1947) 64000 (1988) 306000 105000 135000 163000 186000 271000 391000 420000 568000 650000
2020-07-05 06:00 25.69 393000 836000 (1947) 64000 (1988) 306000 105000 135000 163000 186000 271000 391000 420000 568000 650000
2020-07-05 05:30 25.84 395000 836000 (1947) 64000 (1988) 306000 105000 135000 163000 186000 271000 391000 420000 568000 650000
2020-07-05 05:00 25.75 394000 836000 (1947) 64000 (1988) 306000 105000 135000 163000 186000 271000 391000 420000 568000 650000
2020-07-05 04:30 25.94 397000 836000 (1947) 64000 (1988) 306000 105000 135000 163000 186000 271000 391000 420000 568000 650000
2020-07-05 04:00 25.83 395000 836000 (1947) 64000 (1988) 306000 105000 135000 163000 186000 271000 391000 420000 568000 650000
2020-07-05 03:30 25.74 394000 836000 (1947) 64000 (1988) 306000 105000 135000 163000 186000 271000 391000 420000 568000 650000
2020-07-05 03:00 25.78 394000 836000 (1947) 64000 (1988) 306000 105000 135000 163000 186000 271000 391000 420000 568000 650000
2020-07-05 02:30 25.76 394000 836000 (1947) 64000 (1988) 306000 105000 135000 163000 186000 271000 391000 420000 568000 650000
2020-07-05 02:00 25.77 394000 836000 (1947) 64000 (1988) 306000 105000 135000 163000 186000 271000 391000 420000 568000 650000
2020-07-05 01:30 25.74 394000 836000 (1947) 64000 (1988) 306000 105000 135000 163000 186000 271000 391000 420000 568000 650000
2020-07-05 01:00 25.79 395000 836000 (1947) 64000 (1988) 306000 105000 135000 163000 186000 271000 391000 420000 568000 650000
2020-07-05 00:30 25.77 394000 836000 (1947) 64000 (1988) 306000 105000 135000 163000 186000 271000 391000 420000 568000 650000
2020-07-05 00:00 25.75 394000 836000 (1947) 64000 (1988) 306000 105000 135000 163000 186000 271000 391000 420000 568000 650000
2020-07-04 23:30 25.55 390000 842000 (1947) 64600 (1988) 308000 106000 140000 166000 174000 264000 400000 424000 565000 665000
2020-07-04 23:00 25.85 396000 842000 (1947) 64600 (1988) 308000 106000 140000 166000 174000 264000 400000 424000 565000 665000
2020-07-04 22:30 25.80 395000 842000 (1947) 64600 (1988) 308000 106000 140000 166000 174000 264000 400000 424000 565000 665000
2020-07-04 22:00 25.70 393000 842000 (1947) 64600 (1988) 308000 106000 140000 166000 174000 264000 400000 424000 565000 665000
2020-07-04 21:30 25.81 395000 842000 (1947) 64600 (1988) 308000 106000 140000 166000 174000 264000 400000 424000 565000 665000
2020-07-04 21:00 25.63 392000 842000 (1947) 64600 (1988) 308000 106000 140000 166000 174000 264000 400000 424000 565000 665000
2020-07-04 20:30 25.63 392000 842000 (1947) 64600 (1988) 308000 106000 140000 166000 174000 264000 400000 424000 565000 665000
2020-07-04 20:00 25.78 394000 842000 (1947) 64600 (1988) 308000 106000 140000 166000 174000 264000 400000 424000 565000 665000
2020-07-04 19:30 25.81 395000 842000 (1947) 64600 (1988) 308000 106000 140000 166000 174000 264000 400000 424000 565000 665000
2020-07-04 19:00 25.77 394000 842000 (1947) 64600 (1988) 308000 106000 140000 166000 174000 264000 400000 424000 565000 665000
2020-07-04 18:30 25.91 397000 842000 (1947) 64600 (1988) 308000 106000 140000 166000 174000 264000 400000 424000 565000 665000
2020-07-04 18:00 26.00 398000 842000 (1947) 64600 (1988) 308000 106000 140000 166000 174000 264000 400000 424000 565000 665000
2020-07-04 17:30 25.89 396000 842000 (1947) 64600 (1988) 308000 106000 140000 166000 174000 264000 400000 424000 565000 665000
2020-07-04 17:00 25.71 393000 842000 (1947) 64600 (1988) 308000 106000 140000 166000 174000 264000 400000 424000 565000 665000
2020-07-04 16:30 25.91 397000 842000 (1947) 64600 (1988) 308000 106000 140000 166000 174000 264000 400000 424000 565000 665000
2020-07-04 16:00 25.79 395000 842000 (1947) 64600 (1988) 308000 106000 140000 166000 174000 264000 400000 424000 565000 665000
2020-07-04 15:30 25.81 395000 842000 (1947) 64600 (1988) 308000 106000 140000 166000 174000 264000 400000 424000 565000 665000
2020-07-04 15:00 25.75 394000 842000 (1947) 64600 (1988) 308000 106000 140000 166000 174000 264000 400000 424000 565000 665000
2020-07-04 14:30 25.86 396000 842000 (1947) 64600 (1988) 308000 106000 140000 166000 174000 264000 400000 424000 565000 665000
2020-07-04 14:00 25.78 394000 842000 (1947) 64600 (1988) 308000 106000 140000 166000 174000 264000 400000 424000 565000 665000
2020-07-04 13:30 25.79 395000 842000 (1947) 64600 (1988) 308000 106000 140000 166000 174000 264000 400000 424000 565000 665000
2020-07-04 13:00 25.77 394000 842000 (1947) 64600 (1988) 308000 106000 140000 166000 174000 264000 400000 424000 565000 665000
2020-07-04 12:30 25.66 392000 842000 (1947) 64600 (1988) 308000 106000 140000 166000 174000 264000 400000 424000 565000 665000
2020-07-04 12:00 25.76 394000 842000 (1947) 64600 (1988) 308000 106000 140000 166000 174000 264000 400000 424000 565000 665000
2020-07-04 11:30 25.84 395000 842000 (1947) 64600 (1988) 308000 106000 140000 166000 174000 264000 400000 424000 565000 665000
2020-07-04 11:00 25.87 396000 842000 (1947) 64600 (1988) 308000 106000 140000 166000 174000 264000 400000 424000 565000 665000
2020-07-04 10:30 25.79 395000 842000 (1947) 64600 (1988) 308000 106000 140000 166000 174000 264000 400000 424000 565000 665000
2020-07-04 10:00 25.53 390000 842000 (1947) 64600 (1988) 308000 106000 140000 166000 174000 264000 400000 424000 565000 665000
2020-07-04 09:30 25.78 394000 842000 (1947) 64600 (1988) 308000 106000 140000 166000 174000 264000 400000 424000 565000 665000
2020-07-04 09:00 25.66 392000 842000 (1947) 64600 (1988) 308000 106000 140000 166000 174000 264000 400000 424000 565000 665000
2020-07-04 08:30 25.88 396000 842000 (1947) 64600 (1988) 308000 106000 140000 166000 174000 264000 400000 424000 565000 665000
2020-07-04 08:00 25.74 394000 842000 (1947) 64600 (1988) 308000 106000 140000 166000 174000 264000 400000 424000 565000 665000
2020-07-04 07:30 25.85 396000 842000 (1947) 64600 (1988) 308000 106000 140000 166000 174000 264000 400000 424000 565000 665000
2020-07-04 07:00 25.71 393000 842000 (1947) 64600 (1988) 308000 106000 140000 166000 174000 264000 400000 424000 565000 665000
2020-07-04 06:30 25.70 393000 842000 (1947) 64600 (1988) 308000 106000 140000 166000 174000 264000 400000 424000 565000 665000
2020-07-04 06:00 25.46 389000 842000 (1947) 64600 (1988) 308000 106000 140000 166000 174000 264000 400000 424000 565000 665000
2020-07-04 05:30 25.56 390000 842000 (1947) 64600 (1988) 308000 106000 140000 166000 174000 264000 400000 424000 565000 665000
2020-07-04 05:00 25.70 393000 842000 (1947) 64600 (1988) 308000 106000 140000 166000 174000 264000 400000 424000 565000 665000
2020-07-04 04:30 25.77 394000 842000 (1947) 64600 (1988) 308000 106000 140000 166000 174000 264000 400000 424000 565000 665000
2020-07-04 04:00 25.73 393000 842000 (1947) 64600 (1988) 308000 106000 140000 166000 174000 264000 400000 424000 565000 665000
2020-07-04 03:30 25.79 395000 842000 (1947) 64600 (1988) 308000 106000 140000 166000 174000 264000 400000 424000 565000 665000
2020-07-04 03:00 25.75 394000 842000 (1947) 64600 (1988) 308000 106000 140000 166000 174000 264000 400000 424000 565000 665000
2020-07-04 02:30 25.46 389000 842000 (1947) 64600 (1988) 308000 106000 140000 166000 174000 264000 400000 424000 565000 665000
2020-07-04 02:00 25.70 393000 842000 (1947) 64600 (1988) 308000 106000 140000 166000 174000 264000 400000 424000 565000 665000
2020-07-04 01:30 25.80 395000 842000 (1947) 64600 (1988) 308000 106000 140000 166000 174000 264000 400000 424000 565000 665000
2020-07-04 01:00 25.83 395000 842000 (1947) 64600 (1988) 308000 106000 140000 166000 174000 264000 400000 424000 565000 665000
2020-07-04 00:30 25.84 395000 842000 (1947) 64600 (1988) 308000 106000 140000 166000 174000 264000 400000 424000 565000 665000
2020-07-04 00:00 25.85 396000 842000 (1947) 64600 (1988) 308000 106000 140000 166000 174000 264000 400000 424000 565000 665000
2020-07-03 23:30 25.75 394000 879000 (1947) 65600 (1988) 309000 116000 142000 162000 170000 265000 402000 421000 561000 676000
2020-07-03 23:00 25.62 391000 879000 (1947) 65600 (1988) 309000 116000 142000 162000 170000 265000 402000 421000 561000 676000
2020-07-03 22:30 25.70 393000 879000 (1947) 65600 (1988) 309000 116000 142000 162000 170000 265000 402000 421000 561000 676000
2020-07-03 22:00 25.90 397000 879000 (1947) 65600 (1988) 309000 116000 142000 162000 170000 265000 402000 421000 561000 676000
2020-07-03 21:30 25.86 396000 879000 (1947) 65600 (1988) 309000 116000 142000 162000 170000 265000 402000 421000 561000 676000
2020-07-03 21:00 25.80 395000 879000 (1947) 65600 (1988) 309000 116000 142000 162000 170000 265000 402000 421000 561000 676000
2020-07-03 20:30 25.69 393000 879000 (1947) 65600 (1988) 309000 116000 142000 162000 170000 265000 402000 421000 561000 676000
2020-07-03 20:00 25.76 394000 879000 (1947) 65600 (1988) 309000 116000 142000 162000 170000 265000 402000 421000 561000 676000
2020-07-03 19:30 25.97 398000 879000 (1947) 65600 (1988) 309000 116000 142000 162000 170000 265000 402000 421000 561000 676000
2020-07-03 19:00 25.83 395000 879000 (1947) 65600 (1988) 309000 116000 142000 162000 170000 265000 402000 421000 561000 676000
2020-07-03 18:30 25.83 395000 879000 (1947) 65600 (1988) 309000 116000 142000 162000 170000 265000 402000 421000 561000 676000
2020-07-03 18:00 25.95 397000 879000 (1947) 65600 (1988) 309000 116000 142000 162000 170000 265000 402000 421000 561000 676000
2020-07-03 17:30 25.87 396000 879000 (1947) 65600 (1988) 309000 116000 142000 162000 170000 265000 402000 421000 561000 676000
2020-07-03 17:00 26.07 400000 879000 (1947) 65600 (1988) 309000 116000 142000 162000 170000 265000 402000 421000 561000 676000
2020-07-03 16:30 25.79 395000 879000 (1947) 65600 (1988) 309000 116000 142000 162000 170000 265000 402000 421000 561000 676000
2020-07-03 16:00 25.93 397000 879000 (1947) 65600 (1988) 309000 116000 142000 162000 170000 265000 402000 421000 561000 676000
2020-07-03 15:30 25.88 396000 879000 (1947) 65600 (1988) 309000 116000 142000 162000 170000 265000 402000 421000 561000 676000
2020-07-03 15:00 25.89 396000 879000 (1947) 65600 (1988) 309000 116000 142000 162000 170000 265000 402000 421000 561000 676000
2020-07-03 14:30 25.82 395000 879000 (1947) 65600 (1988) 309000 116000 142000 162000 170000 265000 402000 421000 561000 676000
2020-07-03 14:00 25.86 396000 879000 (1947) 65600 (1988) 309000 116000 142000 162000 170000 265000 402000 421000 561000 676000
2020-07-03 13:30 25.83 395000 879000 (1947) 65600 (1988) 309000 116000 142000 162000 170000 265000 402000 421000 561000 676000
2020-07-03 13:00 25.77 394000 879000 (1947) 65600 (1988) 309000 116000 142000 162000 170000 265000 402000 421000 561000 676000
2020-07-03 12:30 25.83 395000 879000 (1947) 65600 (1988) 309000 116000 142000 162000 170000 265000 402000 421000 561000 676000
2020-07-03 12:00 25.86 396000 879000 (1947) 65600 (1988) 309000 116000 142000 162000 170000 265000 402000 421000 561000 676000
2020-07-03 11:30 25.71 393000 879000 (1947) 65600 (1988) 309000 116000 142000 162000 170000 265000 402000 421000 561000 676000
2020-07-03 11:00 25.76 394000 879000 (1947) 65600 (1988) 309000 116000 142000 162000 170000 265000 402000 421000 561000 676000
2020-07-03 10:30 25.91 397000 879000 (1947) 65600 (1988) 309000 116000 142000 162000 170000 265000 402000 421000 561000 676000
2020-07-03 10:00 25.85 396000 879000 (1947) 65600 (1988) 309000 116000 142000 162000 170000 265000 402000 421000 561000 676000
2020-07-03 09:30 25.67 392000 879000 (1947) 65600 (1988) 309000 116000 142000 162000 170000 265000 402000 421000 561000 676000
2020-07-03 09:00 25.81 395000 879000 (1947) 65600 (1988) 309000 116000 142000 162000 170000 265000 402000 421000 561000 676000
2020-07-03 08:30 25.83 395000 879000 (1947) 65600 (1988) 309000 116000 142000 162000 170000 265000 402000 421000 561000 676000
2020-07-03 08:00 25.82 395000 879000 (1947) 65600 (1988) 309000 116000 142000 162000 170000 265000 402000 421000 561000 676000
2020-07-03 07:30 25.90 397000 879000 (1947) 65600 (1988) 309000 116000 142000 162000 170000 265000 402000 421000 561000 676000
2020-07-03 07:00 25.90 397000 879000 (1947) 65600 (1988) 309000 116000 142000 162000 170000 265000 402000 421000 561000 676000
2020-07-03 06:30 25.63 392000 879000 (1947) 65600 (1988) 309000 116000 142000 162000 170000 265000 402000 421000 561000 676000
2020-07-03 06:00 25.58 391000 879000 (1947) 65600 (1988) 309000 116000 142000 162000 170000 265000 402000 421000 561000 676000
2020-07-03 05:30 25.78 394000 879000 (1947) 65600 (1988) 309000 116000 142000 162000 170000 265000 402000 421000 561000 676000
2020-07-03 05:00 25.73 393000 879000 (1947) 65600 (1988) 309000 116000 142000 162000 170000 265000 402000 421000 561000 676000
2020-07-03 04:30 25.85 396000 879000 (1947) 65600 (1988) 309000 116000 142000 162000 170000 265000 402000 421000 561000 676000
2020-07-03 04:00 25.84 395000 879000 (1947) 65600 (1988) 309000 116000 142000 162000 170000 265000 402000 421000 561000 676000
2020-07-03 03:30 25.77 394000 879000 (1947) 65600 (1988) 309000 116000 142000 162000 170000 265000 402000 421000 561000 676000
2020-07-03 03:00 25.86 396000 879000 (1947) 65600 (1988) 309000 116000 142000 162000 170000 265000 402000 421000 561000 676000
2020-07-03 02:30 25.79 395000 879000 (1947) 65600 (1988) 309000 116000 142000 162000 170000 265000 402000 421000 561000 676000
2020-07-03 02:00 25.82 395000 879000 (1947) 65600 (1988) 309000 116000 142000 162000 170000 265000 402000 421000 561000 676000
2020-07-03 01:30 25.83 395000 879000 (1947) 65600 (1988) 309000 116000 142000 162000 170000 265000 402000 421000 561000 676000
2020-07-03 01:00 25.81 395000 879000 (1947) 65600 (1988) 309000 116000 142000 162000 170000 265000 402000 421000 561000 676000
2020-07-03 00:30 25.68 393000 879000 (1947) 65600 (1988) 309000 116000 142000 162000 170000 265000 402000 421000 561000 676000
2020-07-03 00:00 25.71 393000 879000 (1947) 65600 (1988) 309000 116000 142000 162000 170000 265000 402000 421000 561000 676000
2020-07-02 23:30 25.74 394000 873000 (1947) 65900 (1988) 308000 119000 136000 164000 174000 260000 400000 413000 559000 684000
2020-07-02 23:00 25.75 394000 873000 (1947) 65900 (1988) 308000 119000 136000 164000 174000 260000 400000 413000 559000 684000
2020-07-02 22:30 25.76 394000 873000 (1947) 65900 (1988) 308000 119000 136000 164000 174000 260000 400000 413000 559000 684000
2020-07-02 22:00 25.69 393000 873000 (1947) 65900 (1988) 308000 119000 136000 164000 174000 260000 400000 413000 559000 684000
2020-07-02 21:30 25.57 391000 873000 (1947) 65900 (1988) 308000 119000 136000 164000 174000 260000 400000 413000 559000 684000
2020-07-02 21:00 25.74 394000 873000 (1947) 65900 (1988) 308000 119000 136000 164000 174000 260000 400000 413000 559000 684000
2020-07-02 20:30 25.80 395000 873000 (1947) 65900 (1988) 308000 119000 136000 164000 174000 260000 400000 413000 559000 684000
2020-07-02 20:00 25.76 394000 873000 (1947) 65900 (1988) 308000 119000 136000 164000 174000 260000 400000 413000 559000 684000
2020-07-02 19:30 25.77 394000 873000 (1947) 65900 (1988) 308000 119000 136000 164000 174000 260000 400000 413000 559000 684000
2020-07-02 19:00 25.76 394000 873000 (1947) 65900 (1988) 308000 119000 136000 164000 174000 260000 400000 413000 559000 684000
2020-07-02 18:30 25.72 393000 873000 (1947) 65900 (1988) 308000 119000 136000 164000 174000 260000 400000 413000 559000 684000
2020-07-02 18:00 25.71 393000 873000 (1947) 65900 (1988) 308000 119000 136000 164000 174000 260000 400000 413000 559000 684000
2020-07-02 17:30 25.66 392000 873000 (1947) 65900 (1988) 308000 119000 136000 164000 174000 260000 400000 413000 559000 684000
2020-07-02 17:00 25.42 388000 873000 (1947) 65900 (1988) 308000 119000 136000 164000 174000 260000 400000 413000 559000 684000
2020-07-02 16:30 25.44 388000 873000 (1947) 65900 (1988) 308000 119000 136000 164000 174000 260000 400000 413000 559000 684000
2020-07-02 16:00 25.55 390000 873000 (1947) 65900 (1988) 308000 119000 136000 164000 174000 260000 400000 413000 559000 684000
2020-07-02 15:30 25.50 389000 873000 (1947) 65900 (1988) 308000 119000 136000 164000 174000 260000 400000 413000 559000 684000
2020-07-02 15:00 25.51 389000 873000 (1947) 65900 (1988) 308000 119000 136000 164000 174000 260000 400000 413000 559000 684000
2020-07-02 14:30 25.54 390000 873000 (1947) 65900 (1988) 308000 119000 136000 164000 174000 260000 400000 413000 559000 684000
2020-07-02 14:00 25.61 391000 873000 (1947) 65900 (1988) 308000 119000 136000 164000 174000 260000 400000 413000 559000 684000
2020-07-02 13:30 25.47 389000 873000 (1947) 65900 (1988) 308000 119000 136000 164000 174000 260000 400000 413000 559000 684000
2020-07-02 13:00 25.56 390000 873000 (1947) 65900 (1988) 308000 119000 136000 164000 174000 260000 400000 413000 559000 684000
2020-07-02 12:30 25.43 388000 873000 (1947) 65900 (1988) 308000 119000 136000 164000 174000 260000 400000 413000 559000 684000
2020-07-02 12:00 25.42 388000 873000 (1947) 65900 (1988) 308000 119000 136000 164000 174000 260000 400000 413000 559000 684000
2020-07-02 11:30 25.44 388000 873000 (1947) 65900 (1988) 308000 119000 136000 164000 174000 260000 400000 413000 559000 684000
2020-07-02 11:00 25.40 387000 873000 (1947) 65900 (1988) 308000 119000 136000 164000 174000 260000 400000 413000 559000 684000
2020-07-02 10:30 25.26 385000 873000 (1947) 65900 (1988) 308000 119000 136000 164000 174000 260000 400000 413000 559000 684000
2020-07-02 10:00 25.40 387000 873000 (1947) 65900 (1988) 308000 119000 136000 164000 174000 260000 400000 413000 559000 684000
2020-07-02 09:30 25.18 384000 873000 (1947) 65900 (1988) 308000 119000 136000 164000 174000 260000 400000 413000 559000 684000
2020-07-02 09:00 25.29 386000 873000 (1947) 65900 (1988) 308000 119000 136000 164000 174000 260000 400000 413000 559000 684000
2020-07-02 08:30 25.20 384000 873000 (1947) 65900 (1988) 308000 119000 136000 164000 174000 260000 400000 413000 559000 684000
2020-07-02 08:00 25.18 384000 873000 (1947) 65900 (1988) 308000 119000 136000 164000 174000 260000 400000 413000 559000 684000
2020-07-02 07:30 25.20 384000 873000 (1947) 65900 (1988) 308000 119000 136000 164000 174000 260000 400000 413000 559000 684000
2020-07-02 07:00 25.18 384000 873000 (1947) 65900 (1988) 308000 119000 136000 164000 174000 260000 400000 413000 559000 684000
2020-07-02 06:30 25.11 382000 873000 (1947) 65900 (1988) 308000 119000 136000 164000 174000 260000 400000 413000 559000 684000
2020-07-02 06:00 25.04 381000 873000 (1947) 65900 (1988) 308000 119000 136000 164000 174000 260000 400000 413000 559000 684000
2020-07-02 05:30 25.00 380000 873000 (1947) 65900 (1988) 308000 119000 136000 164000 174000 260000 400000 413000 559000 684000
2020-07-02 05:00 24.95 379000 873000 (1947) 65900 (1988) 308000 119000 136000 164000 174000 260000 400000 413000 559000 684000
2020-07-02 04:30 24.86 378000 873000 (1947) 65900 (1988) 308000 119000 136000 164000 174000 260000 400000 413000 559000 684000
2020-07-02 04:00 24.88 378000 873000 (1947) 65900 (1988) 308000 119000 136000 164000 174000 260000 400000 413000 559000 684000
2020-07-02 03:30 24.81 377000 873000 (1947) 65900 (1988) 308000 119000 136000 164000 174000 260000 400000 413000 559000 684000
2020-07-02 03:00 24.98 380000 873000 (1947) 65900 (1988) 308000 119000 136000 164000 174000 260000 400000 413000 559000 684000
2020-07-02 02:30 24.90 379000 873000 (1947) 65900 (1988) 308000 119000 136000 164000 174000 260000 400000 413000 559000 684000
2020-07-02 02:00 24.85 378000 873000 (1947) 65900 (1988) 308000 119000 136000 164000 174000 260000 400000 413000 559000 684000
2020-07-02 01:30 24.71 375000 873000 (1947) 65900 (1988) 308000 119000 136000 164000 174000 260000 400000 413000 559000 684000
2020-07-02 01:00 24.64 374000 873000 (1947) 65900 (1988) 308000 119000 136000 164000 174000 260000 400000 413000 559000 684000
2020-07-02 00:30 24.66 374000 873000 (1947) 65900 (1988) 308000 119000 136000 164000 174000 260000 400000 413000 559000 684000
2020-07-02 00:00 24.69 375000 873000 (1947) 65900 (1988) 308000 119000 136000 164000 174000 260000 400000 413000 559000 684000
2020-07-01 23:30 24.73 376000 819000 (1947) 69100 (1988) 306000 119000 127000 170000 183000 268000 398000 416000 544000 691000
2020-07-01 23:00 24.67 375000 819000 (1947) 69100 (1988) 306000 119000 127000 170000 183000 268000 398000 416000 544000 691000
2020-07-01 22:30 24.69 375000 819000 (1947) 69100 (1988) 306000 119000 127000 170000 183000 268000 398000 416000 544000 691000
2020-07-01 22:00 24.69 375000 819000 (1947) 69100 (1988) 306000 119000 127000 170000 183000 268000 398000 416000 544000 691000
2020-07-01 21:30 24.40 370000 819000 (1947) 69100 (1988) 306000 119000 127000 170000 183000 268000 398000 416000 544000 691000
2020-07-01 21:00 24.11 365000 819000 (1947) 69100 (1988) 306000 119000 127000 170000 183000 268000 398000 416000 544000 691000
2020-07-01 20:30 24.52 372000 819000 (1947) 69100 (1988) 306000 119000 127000 170000 183000 268000 398000 416000 544000 691000
2020-07-01 20:00 24.34 369000 819000 (1947) 69100 (1988) 306000 119000 127000 170000 183000 268000 398000 416000 544000 691000
2020-07-01 19:30 24.41 370000 819000 (1947) 69100 (1988) 306000 119000 127000 170000 183000 268000 398000 416000 544000 691000
2020-07-01 19:00 24.15 365000 819000 (1947) 69100 (1988) 306000 119000 127000 170000 183000 268000 398000 416000 544000 691000
2020-07-01 18:30 24.43 370000 819000 (1947) 69100 (1988) 306000 119000 127000 170000 183000 268000 398000 416000 544000 691000
2020-07-01 18:00 24.36 369000 819000 (1947) 69100 (1988) 306000 119000 127000 170000 183000 268000 398000 416000 544000 691000
2020-07-01 17:30 24.38 369000 819000 (1947) 69100 (1988) 306000 119000 127000 170000 183000 268000 398000 416000 544000 691000
2020-07-01 17:00 24.23 367000 819000 (1947) 69100 (1988) 306000 119000 127000 170000 183000 268000 398000 416000 544000 691000
2020-07-01 16:30 24.21 366000 819000 (1947) 69100 (1988) 306000 119000 127000 170000 183000 268000 398000 416000 544000 691000
2020-07-01 16:00 24.07 364000 819000 (1947) 69100 (1988) 306000 119000 127000 170000 183000 268000 398000 416000 544000 691000
2020-07-01 15:30 24.10 365000 819000 (1947) 69100 (1988) 306000 119000 127000 170000 183000 268000 398000 416000 544000 691000
2020-07-01 15:00 24.09 364000 819000 (1947) 69100 (1988) 306000 119000 127000 170000 183000 268000 398000 416000 544000 691000
2020-07-01 14:30 24.07 364000 819000 (1947) 69100 (1988) 306000 119000 127000 170000 183000 268000 398000 416000 544000 691000
2020-07-01 14:00 23.91 361000 819000 (1947) 69100 (1988) 306000 119000 127000 170000 183000 268000 398000 416000 544000 691000
2020-07-01 13:30 23.98 362000 819000 (1947) 69100 (1988) 306000 119000 127000 170000 183000 268000 398000 416000 544000 691000
2020-07-01 13:00 23.91 361000 819000 (1947) 69100 (1988) 306000 119000 127000 170000 183000 268000 398000 416000 544000 691000
2020-07-01 12:30 23.90 361000 819000 (1947) 69100 (1988) 306000 119000 127000 170000 183000 268000 398000 416000 544000 691000
2020-07-01 12:00 23.82 360000 819000 (1947) 69100 (1988) 306000 119000 127000 170000 183000 268000 398000 416000 544000 691000
2020-07-01 11:30 23.95 362000 819000 (1947) 69100 (1988) 306000 119000 127000 170000 183000 268000 398000 416000 544000 691000
2020-07-01 11:00 23.82 360000 819000 (1947) 69100 (1988) 306000 119000 127000 170000 183000 268000 398000 416000 544000 691000
2020-07-01 10:30 23.75 359000 819000 (1947) 69100 (1988) 306000 119000 127000 170000 183000 268000 398000 416000 544000 691000
2020-07-01 10:00 23.78 359000 819000 (1947) 69100 (1988) 306000 119000 127000 170000 183000 268000 398000 416000 544000 691000
2020-07-01 09:30 23.70 358000 819000 (1947) 69100 (1988) 306000 119000 127000 170000 183000 268000 398000 416000 544000 691000
2020-07-01 09:00 23.46 354000 819000 (1947) 69100 (1988) 306000 119000 127000 170000 183000 268000 398000 416000 544000 691000
2020-07-01 08:30 23.45 353000 819000 (1947) 69100 (1988) 306000 119000 127000 170000 183000 268000 398000 416000 544000 691000
2020-07-01 08:00 23.52 355000 819000 (1947) 69100 (1988) 306000 119000 127000 170000 183000 268000 398000 416000 544000 691000
2020-07-01 07:30 23.54 355000 819000 (1947) 69100 (1988) 306000 119000 127000 170000 183000 268000 398000 416000 544000 691000
2020-07-01 07:00 23.55 355000 819000 (1947) 69100 (1988) 306000 119000 127000 170000 183000 268000 398000 416000 544000 691000
2020-07-01 06:30 23.42 353000 819000 (1947) 69100 (1988) 306000 119000 127000 170000 183000 268000 398000 416000 544000 691000
2020-07-01 06:00 23.38 352000 819000 (1947) 69100 (1988) 306000 119000 127000 170000 183000 268000 398000 416000 544000 691000
2020-07-01 05:30 23.42 353000 819000 (1947) 69100 (1988) 306000 119000 127000 170000 183000 268000 398000 416000 544000 691000
2020-07-01 05:00 23.25 350000 819000 (1947) 69100 (1988) 306000 119000 127000 170000 183000 268000 398000 416000 544000 691000
2020-07-01 04:30 23.29 351000 819000 (1947) 69100 (1988) 306000 119000 127000 170000 183000 268000 398000 416000 544000 691000
2020-07-01 04:00 23.32 351000 819000 (1947) 69100 (1988) 306000 119000 127000 170000 183000 268000 398000 416000 544000 691000
2020-07-01 03:30 23.24 350000 819000 (1947) 69100 (1988) 306000 119000 127000 170000 183000 268000 398000 416000 544000 691000
2020-07-01 03:00 23.20 349000 819000 (1947) 69100 (1988) 306000 119000 127000 170000 183000 268000 398000 416000 544000 691000
2020-07-01 02:30 23.06 346000 819000 (1947) 69100 (1988) 306000 119000 127000 170000 183000 268000 398000 416000 544000 691000
2020-07-01 02:00 22.89 343000 819000 (1947) 69100 (1988) 306000 119000 127000 170000 183000 268000 398000 416000 544000 691000
2020-07-01 01:30 23.10 347000 819000 (1947) 69100 (1988) 306000 119000 127000 170000 183000 268000 398000 416000 544000 691000
2020-07-01 01:00 22.84 342000 819000 (1947) 69100 (1988) 306000 119000 127000 170000 183000 268000 398000 416000 544000 691000
2020-07-01 00:30 22.99 345000 819000 (1947) 69100 (1988) 306000 119000 127000 170000 183000 268000 398000 416000 544000 691000
2020-07-01 00:00 22.88 343000 819000 (1947) 69100 (1988) 306000 119000 127000 170000 183000 268000 398000 416000 544000 691000
2020-06-30 23:30 22.65 339000 782000 (1947) 70100 (1988) 305000 115000 130000 176000 183000 269000 397000 411000 526000 687000
2020-06-30 23:00 22.77 341000 782000 (1947) 70100 (1988) 305000 115000 130000 176000 183000 269000 397000 411000 526000 687000
2020-06-30 22:30 22.72 340000 782000 (1947) 70100 (1988) 305000 115000 130000 176000 183000 269000 397000 411000 526000 687000
2020-06-30 22:00 22.71 340000 782000 (1947) 70100 (1988) 305000 115000 130000 176000 183000 269000 397000 411000 526000 687000
2020-06-30 21:30 22.72 340000 782000 (1947) 70100 (1988) 305000 115000 130000 176000 183000 269000 397000 411000 526000 687000
2020-06-30 21:00 22.66 339000 782000 (1947) 70100 (1988) 305000 115000 130000 176000 183000 269000 397000 411000 526000 687000
2020-06-30 20:30 22.58 337000 782000 (1947) 70100 (1988) 305000 115000 130000 176000 183000 269000 397000 411000 526000 687000
2020-06-30 20:00 22.60 338000 782000 (1947) 70100 (1988) 305000 115000 130000 176000 183000 269000 397000 411000 526000 687000
2020-06-30 19:30 22.44 335000 782000 (1947) 70100 (1988) 305000 115000 130000 176000 183000 269000 397000 411000 526000 687000
2020-06-30 19:00 22.24 331000 782000 (1947) 70100 (1988) 305000 115000 130000 176000 183000 269000 397000 411000 526000 687000
2020-06-30 18:30 22.30 332000 782000 (1947) 70100 (1988) 305000 115000 130000 176000 183000 269000 397000 411000 526000 687000
2020-06-30 18:00 22.13 329000 782000 (1947) 70100 (1988) 305000 115000 130000 176000 183000 269000 397000 411000 526000 687000
2020-06-30 17:30 22.35 333000 782000 (1947) 70100 (1988) 305000 115000 130000 176000 183000 269000 397000 411000 526000 687000
2020-06-30 17:00 22.10 328000 782000 (1947) 70100 (1988) 305000 115000 130000 176000 183000 269000 397000 411000 526000 687000
2020-06-30 16:30 22.08 328000 782000 (1947) 70100 (1988) 305000 115000 130000 176000 183000 269000 397000 411000 526000 687000
2020-06-30 16:00 22.03 327000 782000 (1947) 70100 (1988) 305000 115000 130000 176000 183000 269000 397000 411000 526000 687000
2020-06-30 15:30 22.14 329000 782000 (1947) 70100 (1988) 305000 115000 130000 176000 183000 269000 397000 411000 526000 687000
2020-06-30 15:00 22.12 329000 782000 (1947) 70100 (1988) 305000 115000 130000 176000 183000 269000 397000 411000 526000 687000
2020-06-30 14:30 22.14 329000 782000 (1947) 70100 (1988) 305000 115000 130000 176000 183000 269000 397000 411000 526000 687000
2020-06-30 14:00 22.02 327000 782000 (1947) 70100 (1988) 305000 115000 130000 176000 183000 269000 397000 411000 526000 687000
2020-06-30 13:30 22.06 328000 782000 (1947) 70100 (1988) 305000 115000 130000 176000 183000 269000 397000 411000 526000 687000
2020-06-30 13:00 21.93 325000 782000 (1947) 70100 (1988) 305000 115000 130000 176000 183000 269000 397000 411000 526000 687000
2020-06-30 12:30 22.05 328000 782000 (1947) 70100 (1988) 305000 115000 130000 176000 183000 269000 397000 411000 526000 687000
2020-06-30 12:00 22.04 327000 782000 (1947) 70100 (1988) 305000 115000 130000 176000 183000 269000 397000 411000 526000 687000
2020-06-30 11:30 22.03 327000 782000 (1947) 70100 (1988) 305000 115000 130000 176000 183000 269000 397000 411000 526000 687000
2020-06-30 11:00 21.92 325000 782000 (1947) 70100 (1988) 305000 115000 130000 176000 183000 269000 397000 411000 526000 687000
2020-06-30 10:30 21.84 324000 782000 (1947) 70100 (1988) 305000 115000 130000 176000 183000 269000 397000 411000 526000 687000
2020-06-30 10:00 21.95 326000 782000 (1947) 70100 (1988) 305000 115000 130000 176000 183000 269000 397000 411000 526000 687000
2020-06-30 09:30 21.89 325000 782000 (1947) 70100 (1988) 305000 115000 130000 176000 183000 269000 397000 411000 526000 687000
2020-06-30 09:00 21.84 324000 782000 (1947) 70100 (1988) 305000 115000 130000 176000 183000 269000 397000 411000 526000 687000
2020-06-30 08:30 21.81 323000 782000 (1947) 70100 (1988) 305000 115000 130000 176000 183000 269000 397000 411000 526000 687000
2020-06-30 08:00 21.87 324000 782000 (1947) 70100 (1988) 305000 115000 130000 176000 183000 269000 397000 411000 526000 687000
2020-06-30 07:30 21.88 324000 782000 (1947) 70100 (1988) 305000 115000 130000 176000 183000 269000 397000 411000 526000 687000
2020-06-30 07:00 21.81 323000 782000 (1947) 70100 (1988) 305000 115000 130000 176000 183000 269000 397000 411000 526000 687000
2020-06-30 06:30 21.84 324000 782000 (1947) 70100 (1988) 305000 115000 130000 176000 183000 269000 397000 411000 526000 687000
2020-06-30 06:00 21.70 321000 782000 (1947) 70100 (1988) 305000 115000 130000 176000 183000 269000 397000 411000 526000 687000
2020-06-30 05:30 21.52 318000 782000 (1947) 70100 (1988) 305000 115000 130000 176000 183000 269000 397000 411000 526000 687000
2020-06-30 05:00 21.71 321000 782000 (1947) 70100 (1988) 305000 115000 130000 176000 183000 269000 397000 411000 526000 687000
2020-06-30 04:30 21.76 322000 782000 (1947) 70100 (1988) 305000 115000 130000 176000 183000 269000 397000 411000 526000 687000
2020-06-30 04:00 21.84 324000 782000 (1947) 70100 (1988) 305000 115000 130000 176000 183000 269000 397000 411000 526000 687000
2020-06-30 03:30 21.95 326000 782000 (1947) 70100 (1988) 305000 115000 130000 176000 183000 269000 397000 411000 526000 687000
2020-06-30 03:00 21.87 324000 782000 (1947) 70100 (1988) 305000 115000 130000 176000 183000 269000 397000 411000 526000 687000
2020-06-30 02:30 21.85 324000 782000 (1947) 70100 (1988) 305000 115000 130000 176000 183000 269000 397000 411000 526000 687000
2020-06-30 02:00 21.93 325000 782000 (1947) 70100 (1988) 305000 115000 130000 176000 183000 269000 397000 411000 526000 687000
2020-06-30 01:30 21.94 326000 782000 (1947) 70100 (1988) 305000 115000 130000 176000 183000 269000 397000 411000 526000 687000
2020-06-30 01:00 21.87 324000 782000 (1947) 70100 (1988) 305000 115000 130000 176000 183000 269000 397000 411000 526000 687000
2020-06-30 00:30 22.01 327000 782000 (1947) 70100 (1988) 305000 115000 130000 176000 183000 269000 397000 411000 526000 687000
2020-06-30 00:00 21.93 325000 782000 (1947) 70100 (1988) 305000 115000 130000 176000 183000 269000 397000 411000 526000 687000
2020-06-29 23:30 21.96 326000 767000 (1947) 70100 (1988) 309000 112000 127000 175000 197000 271000 400000 418000 525000 677000
2020-06-29 23:00 21.92 325000 767000 (1947) 70100 (1988) 309000 112000 127000 175000 197000 271000 400000 418000 525000 677000
2020-06-29 22:30 21.93 325000 767000 (1947) 70100 (1988) 309000 112000 127000 175000 197000 271000 400000 418000 525000 677000
2020-06-29 22:00 21.88 324000 767000 (1947) 70100 (1988) 309000 112000 127000 175000 197000 271000 400000 418000 525000 677000
2020-06-29 21:30 21.78 323000 767000 (1947) 70100 (1988) 309000 112000 127000 175000 197000 271000 400000 418000 525000 677000
2020-06-29 21:00 22.02 327000 767000 (1947) 70100 (1988) 309000 112000 127000 175000 197000 271000 400000 418000 525000 677000
2020-06-29 20:30 21.79 323000 767000 (1947) 70100 (1988) 309000 112000 127000 175000 197000 271000 400000 418000 525000 677000
2020-06-29 20:00 21.97 326000 767000 (1947) 70100 (1988) 309000 112000 127000 175000 197000 271000 400000 418000 525000 677000
2020-06-29 19:30 21.95 326000 767000 (1947) 70100 (1988) 309000 112000 127000 175000 197000 271000 400000 418000 525000 677000
2020-06-29 19:00 22.03 327000 767000 (1947) 70100 (1988) 309000 112000 127000 175000 197000 271000 400000 418000 525000 677000
2020-06-29 18:30 22.03 327000 767000 (1947) 70100 (1988) 309000 112000 127000 175000 197000 271000 400000 418000 525000 677000
2020-06-29 18:00 21.95 326000 767000 (1947) 70100 (1988) 309000 112000 127000 175000 197000 271000 400000 418000 525000 677000
2020-06-29 17:30 22.09 328000 767000 (1947) 70100 (1988) 309000 112000 127000 175000 197000 271000 400000 418000 525000 677000
2020-06-29 17:00 22.18 330000 767000 (1947) 70100 (1988) 309000 112000 127000 175000 197000 271000 400000 418000 525000 677000
2020-06-29 16:30 22.17 330000 767000 (1947) 70100 (1988) 309000 112000 127000 175000 197000 271000 400000 418000 525000 677000
2020-06-29 16:00 22.04 327000 767000 (1947) 70100 (1988) 309000 112000 127000 175000 197000 271000 400000 418000 525000 677000
2020-06-29 15:30 22.21 331000 767000 (1947) 70100 (1988) 309000 112000 127000 175000 197000 271000 400000 418000 525000 677000
2020-06-29 15:00 22.16 330000 767000 (1947) 70100 (1988) 309000 112000 127000 175000 197000 271000 400000 418000 525000 677000
2020-06-29 14:30 22.06 328000 767000 (1947) 70100 (1988) 309000 112000 127000 175000 197000 271000 400000 418000 525000 677000
2020-06-29 14:00 22.19 330000 767000 (1947) 70100 (1988) 309000 112000 127000 175000 197000 271000 400000 418000 525000 677000
2020-06-29 13:30 22.18 330000 767000 (1947) 70100 (1988) 309000 112000 127000 175000 197000 271000 400000 418000 525000 677000
2020-06-29 13:00 22.24 331000 767000 (1947) 70100 (1988) 309000 112000 127000 175000 197000 271000 400000 418000 525000 677000
2020-06-29 12:30 22.13 329000 767000 (1947) 70100 (1988) 309000 112000 127000 175000 197000 271000 400000 418000 525000 677000
2020-06-29 12:00 22.21 331000 767000 (1947) 70100 (1988) 309000 112000 127000 175000 197000 271000 400000 418000 525000 677000
2020-06-29 11:30 22.18 330000 767000 (1947) 70100 (1988) 309000 112000 127000 175000 197000 271000 400000 418000 525000 677000
2020-06-29 11:00 22.21 331000 767000 (1947) 70100 (1988) 309000 112000 127000 175000 197000 271000 400000 418000 525000 677000
2020-06-29 10:30 22.18 330000 767000 (1947) 70100 (1988) 309000 112000 127000 175000 197000 271000 400000 418000 525000 677000
2020-06-29 10:00 22.18 330000 767000 (1947) 70100 (1988) 309000 112000 127000 175000 197000 271000 400000 418000 525000 677000
2020-06-29 09:30 22.12 329000 767000 (1947) 70100 (1988) 309000 112000 127000 175000 197000 271000 400000 418000 525000 677000
2020-06-29 09:00 22.26 331000 767000 (1947) 70100 (1988) 309000 112000 127000 175000 197000 271000 400000 418000 525000 677000
2020-06-29 08:30 22.12 329000 767000 (1947) 70100 (1988) 309000 112000 127000 175000 197000 271000 400000 418000 525000 677000
2020-06-29 08:00 22.32 333000 767000 (1947) 70100 (1988) 309000 112000 127000 175000 197000 271000 400000 418000 525000 677000
2020-06-29 07:30 22.28 332000 767000 (1947) 70100 (1988) 309000 112000 127000 175000 197000 271000 400000 418000 525000 677000
2020-06-29 07:00 22.26 331000 767000 (1947) 70100 (1988) 309000 112000 127000 175000 197000 271000 400000 418000 525000 677000
2020-06-29 06:30 22.31 332000 767000 (1947) 70100 (1988) 309000 112000 127000 175000 197000 271000 400000 418000 525000 677000
2020-06-29 06:00 22.30 332000 767000 (1947) 70100 (1988) 309000 112000 127000 175000 197000 271000 400000 418000 525000 677000
2020-06-29 05:30 22.18 330000 767000 (1947) 70100 (1988) 309000 112000 127000 175000 197000 271000 400000 418000 525000 677000
2020-06-29 05:00 22.29 332000 767000 (1947) 70100 (1988) 309000 112000 127000 175000 197000 271000 400000 418000 525000 677000
2020-06-29 04:30 22.37 333000 767000 (1947) 70100 (1988) 309000 112000 127000 175000 197000 271000 400000 418000 525000 677000
2020-06-29 04:00 22.41 334000 767000 (1947) 70100 (1988) 309000 112000 127000 175000 197000 271000 400000 418000 525000 677000
2020-06-29 03:30 22.38 334000 767000 (1947) 70100 (1988) 309000 112000 127000 175000 197000 271000 400000 418000 525000 677000
2020-06-29 03:00 22.40 334000 767000 (1947) 70100 (1988) 309000 112000 127000 175000 197000 271000 400000 418000 525000 677000
2020-06-29 02:30 22.34 333000 767000 (1947) 70100 (1988) 309000 112000 127000 175000 197000 271000 400000 418000 525000 677000
2020-06-29 02:00 22.21 331000 767000 (1947) 70100 (1988) 309000 112000 127000 175000 197000 271000 400000 418000 525000 677000
2020-06-29 01:30 22.26 331000 767000 (1947) 70100 (1988) 309000 112000 127000 175000 197000 271000 400000 418000 525000 677000
2020-06-29 01:00 22.33 333000 767000 (1947) 70100 (1988) 309000 112000 127000 175000 197000 271000 400000 418000 525000 677000
2020-06-29 00:30 22.45 335000 767000 (1947) 70100 (1988) 309000 112000 127000 175000 197000 271000 400000 418000 525000 677000
2020-06-29 00:00 22.35 333000 767000 (1947) 70100 (1988) 309000 112000 127000 175000 197000 271000 400000 418000 525000 677000
2020-06-28 23:30 22.33 333000 767000 (1947) 69900 (1988) 312000 114000 132000 177000 206000 277000 402000 427000 523000 666000
2020-06-28 23:00 22.35 333000 767000 (1947) 69900 (1988) 312000 114000 132000 177000 206000 277000 402000 427000 523000 666000
2020-06-28 22:30 22.38 334000 767000 (1947) 69900 (1988) 312000 114000 132000 177000 206000 277000 402000 427000 523000 666000
2020-06-28 22:00 22.48 335000 767000 (1947) 69900 (1988) 312000 114000 132000 177000 206000 277000 402000 427000 523000 666000
2020-06-28 21:30 22.40 334000 767000 (1947) 69900 (1988) 312000 114000 132000 177000 206000 277000 402000 427000 523000 666000
2020-06-28 21:00 22.38 334000 767000 (1947) 69900 (1988) 312000 114000 132000 177000 206000 277000 402000 427000 523000 666000
2020-06-28 20:30 22.48 335000 767000 (1947) 69900 (1988) 312000 114000 132000 177000 206000 277000 402000 427000 523000 666000
2020-06-28 20:00 22.44 335000 767000 (1947) 69900 (1988) 312000 114000 132000 177000 206000 277000 402000 427000 523000 666000
2020-06-28 19:30 22.51 336000 767000 (1947) 69900 (1988) 312000 114000 132000 177000 206000 277000 402000 427000 523000 666000
2020-06-28 19:00 22.58 337000 767000 (1947) 69900 (1988) 312000 114000 132000 177000 206000 277000 402000 427000 523000 666000
2020-06-28 18:30 22.51 336000 767000 (1947) 69900 (1988) 312000 114000 132000 177000 206000 277000 402000 427000 523000 666000
2020-06-28 18:00 22.51 336000 767000 (1947) 69900 (1988) 312000 114000 132000 177000 206000 277000 402000 427000 523000 666000
2020-06-28 17:30 22.66 339000 767000 (1947) 69900 (1988) 312000 114000 132000 177000 206000 277000 402000 427000 523000 666000
2020-06-28 17:00 22.57 337000 767000 (1947) 69900 (1988) 312000 114000 132000 177000 206000 277000 402000 427000 523000 666000
2020-06-28 16:30 22.65 339000 767000 (1947) 69900 (1988) 312000 114000 132000 177000 206000 277000 402000 427000 523000 666000
2020-06-28 16:00 22.65 339000 767000 (1947) 69900 (1988) 312000 114000 132000 177000 206000 277000 402000 427000 523000 666000
2020-06-28 15:30 22.43 335000 767000 (1947) 69900 (1988) 312000 114000 132000 177000 206000 277000 402000 427000 523000 666000
2020-06-28 15:00 22.75 341000 767000 (1947) 69900 (1988) 312000 114000 132000 177000 206000 277000 402000 427000 523000 666000
2020-06-28 14:30 22.76 341000 767000 (1947) 69900 (1988) 312000 114000 132000 177000 206000 277000 402000 427000 523000 666000
2020-06-28 14:00 22.78 341000 767000 (1947) 69900 (1988) 312000 114000 132000 177000 206000 277000 402000 427000 523000 666000
2020-06-28 13:30 22.71 340000 767000 (1947) 69900 (1988) 312000 114000 132000 177000 206000 277000 402000 427000 523000 666000
2020-06-28 13:00 22.35 333000 767000 (1947) 69900 (1988) 312000 114000 132000 177000 206000 277000 402000 427000 523000 666000
2020-06-28 12:30 22.71 340000 767000 (1947) 69900 (1988) 312000 114000 132000 177000 206000 277000 402000 427000 523000 666000
2020-06-28 12:00 22.76 341000 767000 (1947) 69900 (1988) 312000 114000 132000 177000 206000 277000 402000 427000 523000 666000
2020-06-28 11:30 22.72 340000 767000 (1947) 69900 (1988) 312000 114000 132000 177000 206000 277000 402000 427000 523000 666000
2020-06-28 11:00 22.72 340000 767000 (1947) 69900 (1988) 312000 114000 132000 177000 206000 277000 402000 427000 523000 666000
2020-06-28 10:30 22.58 337000 767000 (1947) 69900 (1988) 312000 114000 132000 177000 206000 277000 402000 427000 523000 666000
2020-06-28 10:00 22.68 339000 767000 (1947) 69900 (1988) 312000 114000 132000 177000 206000 277000 402000 427000 523000 666000
2020-06-28 09:30 22.60 338000 767000 (1947) 69900 (1988) 312000 114000 132000 177000 206000 277000 402000 427000 523000 666000
2020-06-28 09:00 22.67 339000 767000 (1947) 69900 (1988) 312000 114000 132000 177000 206000 277000 402000 427000 523000 666000
2020-06-28 08:30 22.68 339000 767000 (1947) 69900 (1988) 312000 114000 132000 177000 206000 277000 402000 427000 523000 666000
2020-06-28 08:00 22.66 339000 767000 (1947) 69900 (1988) 312000 114000 132000 177000 206000 277000 402000 427000 523000 666000
2020-06-28 07:30 22.61 338000 767000 (1947) 69900 (1988) 312000 114000 132000 177000 206000 277000 402000 427000 523000 666000
2020-06-28 07:00 22.70 340000 767000 (1947) 69900 (1988) 312000 114000 132000 177000 206000 277000 402000 427000 523000 666000
2020-06-28 06:30 22.57 337000 767000 (1947) 69900 (1988) 312000 114000 132000 177000 206000 277000 402000 427000 523000 666000
2020-06-28 06:00 22.65 339000 767000 (1947) 69900 (1988) 312000 114000 132000 177000 206000 277000 402000 427000 523000 666000
2020-06-28 05:30 22.54 337000 767000 (1947) 69900 (1988) 312000 114000 132000 177000 206000 277000 402000 427000 523000 666000
2020-06-28 05:00 22.69 339000 767000 (1947) 69900 (1988) 312000 114000 132000 177000 206000 277000 402000 427000 523000 666000
2020-06-28 04:30 22.66 339000 767000 (1947) 69900 (1988) 312000 114000 132000 177000 206000 277000 402000 427000 523000 666000
2020-06-28 04:00 22.81 342000 767000 (1947) 69900 (1988) 312000 114000 132000 177000 206000 277000 402000 427000 523000 666000
2020-06-28 03:30 22.69 339000 767000 (1947) 69900 (1988) 312000 114000 132000 177000 206000 277000 402000 427000 523000 666000
2020-06-28 03:00 22.67 339000 767000 (1947) 69900 (1988) 312000 114000 132000 177000 206000 277000 402000 427000 523000 666000
2020-06-28 02:30 22.80 341000 767000 (1947) 69900 (1988) 312000 114000 132000 177000 206000 277000 402000 427000 523000 666000
2020-06-28 02:00 22.82 342000 767000 (1947) 69900 (1988) 312000 114000 132000 177000 206000 277000 402000 427000 523000 666000
2020-06-28 01:30 22.91 344000 767000 (1947) 69900 (1988) 312000 114000 132000 177000 206000 277000 402000 427000 523000 666000
2020-06-28 01:00 22.85 342000 767000 (1947) 69900 (1988) 312000 114000 132000 177000 206000 277000 402000 427000 523000 666000
2020-06-28 00:30 22.87 343000 767000 (1947) 69900 (1988) 312000 114000 132000 177000 206000 277000 402000 427000 523000 666000
2020-06-28 00:00 22.91 344000 767000 (1947) 69900 (1988) 312000 114000 132000 177000 206000 277000 402000 427000 523000 666000
2020-06-27 23:30 22.91 344000 763000 (1947) 70800 (1988) 314000 117000 129000 183000 203000 279000 392000 432000 545000 664000
2020-06-27 23:00 22.83 342000 763000 (1947) 70800 (1988) 314000 117000 129000 183000 203000 279000 392000 432000 545000 664000
2020-06-27 22:30 22.79 341000 763000 (1947) 70800 (1988) 314000 117000 129000 183000 203000 279000 392000 432000 545000 664000
2020-06-27 22:00 22.72 340000 763000 (1947) 70800 (1988) 314000 117000 129000 183000 203000 279000 392000 432000 545000 664000
2020-06-27 21:30 22.96 344000 763000 (1947) 70800 (1988) 314000 117000 129000 183000 203000 279000 392000 432000 545000 664000
2020-06-27 21:00 22.89 343000 763000 (1947) 70800 (1988) 314000 117000 129000 183000 203000 279000 392000 432000 545000 664000
2020-06-27 20:30 22.93 344000 763000 (1947) 70800 (1988) 314000 117000 129000 183000 203000 279000 392000 432000 545000 664000
2020-06-27 20:00 22.99 345000 763000 (1947) 70800 (1988) 314000 117000 129000 183000 203000 279000 392000 432000 545000 664000
2020-06-27 19:30 22.90 343000 763000 (1947) 70800 (1988) 314000 117000 129000 183000 203000 279000 392000 432000 545000 664000
2020-06-27 19:00 23.03 346000 763000 (1947) 70800 (1988) 314000 117000 129000 183000 203000 279000 392000 432000 545000 664000
2020-06-27 18:30 23.09 347000 763000 (1947) 70800 (1988) 314000 117000 129000 183000 203000 279000 392000 432000 545000 664000
2020-06-27 18:00 23.08 347000 763000 (1947) 70800 (1988) 314000 117000 129000 183000 203000 279000 392000 432000 545000 664000
2020-06-27 17:30 23.16 348000 763000 (1947) 70800 (1988) 314000 117000 129000 183000 203000 279000 392000 432000 545000 664000
2020-06-27 17:00 23.19 349000 763000 (1947) 70800 (1988) 314000 117000 129000 183000 203000 279000 392000 432000 545000 664000
2020-06-27 16:30 23.13 348000 763000 (1947) 70800 (1988) 314000 117000 129000 183000 203000 279000 392000 432000 545000 664000
2020-06-27 16:00 23.18 349000 763000 (1947) 70800 (1988) 314000 117000 129000 183000 203000 279000 392000 432000 545000 664000
2020-06-27 15:30 22.98 345000 763000 (1947) 70800 (1988) 314000 117000 129000 183000 203000 279000 392000 432000 545000 664000
2020-06-27 15:00 23.07 347000 763000 (1947) 70800 (1988) 314000 117000 129000 183000 203000 279000 392000 432000 545000 664000
2020-06-27 14:30 23.16 348000 763000 (1947) 70800 (1988) 314000 117000 129000 183000 203000 279000 392000 432000 545000 664000
2020-06-27 14:00 23.07 347000 763000 (1947) 70800 (1988) 314000 117000 129000 183000 203000 279000 392000 432000 545000 664000
2020-06-27 13:30 23.25 350000 763000 (1947) 70800 (1988) 314000 117000 129000 183000 203000 279000 392000 432000 545000 664000
2020-06-27 13:00 23.26 350000 763000 (1947) 70800 (1988) 314000 117000 129000 183000 203000 279000 392000 432000 545000 664000
2020-06-27 12:30 23.19 349000 763000 (1947) 70800 (1988) 314000 117000 129000 183000 203000 279000 392000 432000 545000 664000
2020-06-27 12:00 23.23 350000 763000 (1947) 70800 (1988) 314000 117000 129000 183000 203000 279000 392000 432000 545000 664000
2020-06-27 11:30 23.10 347000 763000 (1947) 70800 (1988) 314000 117000 129000 183000 203000 279000 392000 432000 545000 664000
2020-06-27 11:00 23.28 351000 763000 (1947) 70800 (1988) 314000 117000 129000 183000 203000 279000 392000 432000 545000 664000
2020-06-27 10:30 23.18 349000 763000 (1947) 70800 (1988) 314000 117000 129000 183000 203000 279000 392000 432000 545000 664000
2020-06-27 10:00 23.19 349000 763000 (1947) 70800 (1988) 314000 117000 129000 183000 203000 279000 392000 432000 545000 664000
2020-06-27 09:30 23.30 351000 763000 (1947) 70800 (1988) 314000 117000 129000 183000 203000 279000 392000 432000 545000 664000
2020-06-27 09:00 23.01 345000 763000 (1947) 70800 (1988) 314000 117000 129000 183000 203000 279000 392000 432000 545000 664000
2020-06-27 08:30 23.25 350000 763000 (1947) 70800 (1988) 314000 117000 129000 183000 203000 279000 392000 432000 545000 664000
2020-06-27 08:00 22.91 344000 763000 (1947) 70800 (1988) 314000 117000 129000 183000 203000 279000 392000 432000 545000 664000
2020-06-27 07:30 23.23 350000 763000 (1947) 70800 (1988) 314000 117000 129000 183000 203000 279000 392000 432000 545000 664000
2020-06-27 07:00 23.19 349000 763000 (1947) 70800 (1988) 314000 117000 129000 183000 203000 279000 392000 432000 545000 664000
2020-06-27 06:30 23.07 347000 763000 (1947) 70800 (1988) 314000 117000 129000 183000 203000 279000 392000 432000 545000 664000
2020-06-27 06:00 23.20 349000 763000 (1947) 70800 (1988) 314000 117000 129000 183000 203000 279000 392000 432000 545000 664000
2020-06-27 05:30 23.12 348000 763000 (1947) 70800 (1988) 314000 117000 129000 183000 203000 279000 392000 432000 545000 664000
2020-06-27 05:00 23.16 348000 763000 (1947) 70800 (1988) 314000 117000 129000 183000 203000 279000 392000 432000 545000 664000
2020-06-27 04:30 23.30 351000 763000 (1947) 70800 (1988) 314000 117000 129000 183000 203000 279000 392000 432000 545000 664000
2020-06-27 04:00 23.21 349000 763000 (1947) 70800 (1988) 314000 117000 129000 183000 203000 279000 392000 432000 545000 664000
2020-06-27 03:30 23.06 346000 763000 (1947) 70800 (1988) 314000 117000 129000 183000 203000 279000 392000 432000 545000 664000
2020-06-27 03:00 23.22 349000 763000 (1947) 70800 (1988) 314000 117000 129000 183000 203000 279000 392000 432000 545000 664000
2020-06-27 02:30 23.38 352000 763000 (1947) 70800 (1988) 314000 117000 129000 183000 203000 279000 392000 432000 545000 664000
2020-06-27 02:00 23.29 351000 763000 (1947) 70800 (1988) 314000 117000 129000 183000 203000 279000 392000 432000 545000 664000
2020-06-27 01:30 23.35 352000 763000 (1947) 70800 (1988) 314000 117000 129000 183000 203000 279000 392000 432000 545000 664000
2020-06-27 01:00 23.29 351000 763000 (1947) 70800 (1988) 314000 117000 129000 183000 203000 279000 392000 432000 545000 664000
2020-06-27 00:30 23.28 351000 763000 (1947) 70800 (1988) 314000 117000 129000 183000 203000 279000 392000 432000 545000 664000
2020-06-27 00:00 23.36 352000 763000 (1947) 70800 (1988) 314000 117000 129000 183000 203000 279000 392000 432000 545000 664000
2020-06-26 23:30 23.30 351000 731000 (1947) 69600 (1988) 313000 118000 127000 171000 192000 286000 399000 434000 561000 665000
2020-06-26 23:00 23.36 352000 731000 (1947) 69600 (1988) 313000 118000 127000 171000 192000 286000 399000 434000 561000 665000
2020-06-26 22:30 23.28 351000 731000 (1947) 69600 (1988) 313000 118000 127000 171000 192000 286000 399000 434000 561000 665000
2020-06-26 22:00 23.42 353000 731000 (1947) 69600 (1988) 313000 118000 127000 171000 192000 286000 399000 434000 561000 665000
2020-06-26 21:30 23.27 350000 731000 (1947) 69600 (1988) 313000 118000 127000 171000 192000 286000 399000 434000 561000 665000
2020-06-26 21:00 23.50 354000 731000 (1947) 69600 (1988) 313000 118000 127000 171000 192000 286000 399000 434000 561000 665000
2020-06-26 20:30 23.44 353000 731000 (1947) 69600 (1988) 313000 118000 127000 171000 192000 286000 399000 434000 561000 665000
2020-06-26 20:00 23.50 354000 731000 (1947) 69600 (1988) 313000 118000 127000 171000 192000 286000 399000 434000 561000 665000
2020-06-26 19:30 23.31 351000 731000 (1947) 69600 (1988) 313000 118000 127000 171000 192000 286000 399000 434000 561000 665000
2020-06-26 19:00 23.44 353000 731000 (1947) 69600 (1988) 313000 118000 127000 171000 192000 286000 399000 434000 561000 665000
2020-06-26 18:30 23.46 354000 731000 (1947) 69600 (1988) 313000 118000 127000 171000 192000 286000 399000 434000 561000 665000
2020-06-26 18:00 23.52 355000 731000 (1947) 69600 (1988) 313000 118000 127000 171000 192000 286000 399000 434000 561000 665000
2020-06-26 17:30 23.38 352000 731000 (1947) 69600 (1988) 313000 118000 127000 171000 192000 286000 399000 434000 561000 665000
2020-06-26 17:00 23.59 356000 731000 (1947) 69600 (1988) 313000 118000 127000 171000 192000 286000 399000 434000 561000 665000
2020-06-26 16:30 23.52 355000 731000 (1947) 69600 (1988) 313000 118000 127000 171000 192000 286000 399000 434000 561000 665000
2020-06-26 16:00 23.26 350000 731000 (1947) 69600 (1988) 313000 118000 127000 171000 192000 286000 399000 434000 561000 665000
2020-06-26 15:30 23.60 356000 731000 (1947) 69600 (1988) 313000 118000 127000 171000 192000 286000 399000 434000 561000 665000
2020-06-26 15:00 23.62 356000 731000 (1947) 69600 (1988) 313000 118000 127000 171000 192000 286000 399000 434000 561000 665000
2020-06-26 14:30 23.61 356000 731000 (1947) 69600 (1988) 313000 118000 127000 171000 192000 286000 399000 434000 561000 665000
2020-06-26 14:00 23.55 355000 731000 (1947) 69600 (1988) 313000 118000 127000 171000 192000 286000 399000 434000 561000 665000
2020-06-26 13:30 23.57 355000 731000 (1947) 69600 (1988) 313000 118000 127000 171000 192000 286000 399000 434000 561000 665000
2020-06-26 13:00 23.60 356000 731000 (1947) 69600 (1988) 313000 118000 127000 171000 192000 286000 399000 434000 561000 665000
2020-06-26 12:30 23.53 355000 731000 (1947) 69600 (1988) 313000 118000 127000 171000 192000 286000 399000 434000 561000 665000
2020-06-26 12:00 23.61 356000 731000 (1947) 69600 (1988) 313000 118000 127000 171000 192000 286000 399000 434000 561000 665000
2020-06-26 11:30 23.57 355000 731000 (1947) 69600 (1988) 313000 118000 127000 171000 192000 286000 399000 434000 561000 665000
2020-06-26 11:00 23.61 356000 731000 (1947) 69600 (1988) 313000 118000 127000 171000 192000 286000 399000 434000 561000 665000
2020-06-26 10:30 23.46 354000 731000 (1947) 69600 (1988) 313000 118000 127000 171000 192000 286000 399000 434000 561000 665000
2020-06-26 10:00 23.62 356000 731000 (1947) 69600 (1988) 313000 118000 127000 171000 192000 286000 399000 434000 561000 665000
2020-06-26 09:30 23.56 355000 731000 (1947) 69600 (1988) 313000 118000 127000 171000 192000 286000 399000 434000 561000 665000
2020-06-26 09:00 23.66 357000 731000 (1947) 69600 (1988) 313000 118000 127000 171000 192000 286000 399000 434000 561000 665000
2020-06-26 08:30 23.45 353000 731000 (1947) 69600 (1988) 313000 118000 127000 171000 192000 286000 399000 434000 561000 665000
2020-06-26 08:00 23.49 354000 731000 (1947) 69600 (1988) 313000 118000 127000 171000 192000 286000 399000 434000 561000 665000
2020-06-26 07:30 23.56 355000 731000 (1947) 69600 (1988) 313000 118000 127000 171000 192000 286000 399000 434000 561000 665000
2020-06-26 07:00 23.59 356000 731000 (1947) 69600 (1988) 313000 118000 127000 171000 192000 286000 399000 434000 561000 665000
2020-06-26 06:30 23.58 356000 731000 (1947) 69600 (1988) 313000 118000 127000 171000 192000 286000 399000 434000 561000 665000
2020-06-26 06:00 23.52 355000 731000 (1947) 69600 (1988) 313000 118000 127000 171000 192000 286000 399000 434000 561000 665000
2020-06-26 05:30 23.62 356000 731000 (1947) 69600 (1988) 313000 118000 127000 171000 192000 286000 399000 434000 561000 665000
2020-06-26 05:00 23.56 355000 731000 (1947) 69600 (1988) 313000 118000 127000 171000 192000 286000 399000 434000 561000 665000
2020-06-26 04:30 23.62 356000 731000 (1947) 69600 (1988) 313000 118000 127000 171000 192000 286000 399000 434000 561000 665000
2020-06-26 04:00 23.61 356000 731000 (1947) 69600 (1988) 313000 118000 127000 171000 192000 286000 399000 434000 561000 665000
2020-06-26 03:30 23.62 356000 731000 (1947) 69600 (1988) 313000 118000 127000 171000 192000 286000 399000 434000 561000 665000
2020-06-26 03:00 23.65 357000 731000 (1947) 69600 (1988) 313000 118000 127000 171000 192000 286000 399000 434000 561000 665000
2020-06-26 02:30 23.62 356000 731000 (1947) 69600 (1988) 313000 118000 127000 171000 192000 286000 399000 434000 561000 665000
2020-06-26 02:00 23.71 358000 731000 (1947) 69600 (1988) 313000 118000 127000 171000 192000 286000 399000 434000 561000 665000
2020-06-26 01:30 23.60 356000 731000 (1947) 69600 (1988) 313000 118000 127000 171000 192000 286000 399000 434000 561000 665000
2020-06-26 01:00 23.55 355000 731000 (1947) 69600 (1988) 313000 118000 127000 171000 192000 286000 399000 434000 561000 665000
2020-06-26 00:30 23.75 359000 731000 (1947) 69600 (1988) 313000 118000 127000 171000 192000 286000 399000 434000 561000 665000
2020-06-26 00:00 23.58 356000 731000 (1947) 69600 (1988) 313000 118000 127000 171000 192000 286000 399000 434000 561000 665000
2020-06-25 23:30 23.65 357000 730000 (2019) 68200 (1988) 313000 117000 131000 168000 192000 291000 407000 428000 562000 665000
2020-06-25 23:00 23.59 356000 730000 (2019) 68200 (1988) 313000 117000 131000 168000 192000 291000 407000 428000 562000 665000
2020-06-25 22:30 23.71 358000 730000 (2019) 68200 (1988) 313000 117000 131000 168000 192000 291000 407000 428000 562000 665000
2020-06-25 22:00 23.63 356000 730000 (2019) 68200 (1988) 313000 117000 131000 168000 192000 291000 407000 428000 562000 665000
2020-06-25 21:30 23.68 357000 730000 (2019) 68200 (1988) 313000 117000 131000 168000 192000 291000 407000 428000 562000 665000
2020-06-25 21:00 23.81 360000 730000 (2019) 68200 (1988) 313000 117000 131000 168000 192000 291000 407000 428000 562000 665000
2020-06-25 20:30 23.59 356000 730000 (2019) 68200 (1988) 313000 117000 131000 168000 192000 291000 407000 428000 562000 665000
2020-06-25 20:00 23.69 357000 730000 (2019) 68200 (1988) 313000 117000 131000 168000 192000 291000 407000 428000 562000 665000
2020-06-25 19:30 23.71 358000 730000 (2019) 68200 (1988) 313000 117000 131000 168000 192000 291000 407000 428000 562000 665000
2020-06-25 19:00 23.71 358000 730000 (2019) 68200 (1988) 313000 117000 131000 168000 192000 291000 407000 428000 562000 665000
2020-06-25 18:30 23.82 360000 730000 (2019) 68200 (1988) 313000 117000 131000 168000 192000 291000 407000 428000 562000 665000
2020-06-25 18:00 23.71 358000 730000 (2019) 68200 (1988) 313000 117000 131000 168000 192000 291000 407000 428000 562000 665000
2020-06-25 17:30 23.83 360000 730000 (2019) 68200 (1988) 313000 117000 131000 168000 192000 291000 407000 428000 562000 665000
2020-06-25 17:00 23.96 362000 730000 (2019) 68200 (1988) 313000 117000 131000 168000 192000 291000 407000 428000 562000 665000
2020-06-25 16:30 23.99 363000 730000 (2019) 68200 (1988) 313000 117000 131000 168000 192000 291000 407000 428000 562000 665000
2020-06-25 16:00 23.91 361000 730000 (2019) 68200 (1988) 313000 117000 131000 168000 192000 291000 407000 428000 562000 665000
2020-06-25 15:30 23.83 360000 730000 (2019) 68200 (1988) 313000 117000 131000 168000 192000 291000 407000 428000 562000 665000
2020-06-25 15:00 24.02 363000 730000 (2019) 68200 (1988) 313000 117000 131000 168000 192000 291000 407000 428000 562000 665000
2020-06-25 14:30 23.82 360000 730000 (2019) 68200 (1988) 313000 117000 131000 168000 192000 291000 407000 428000 562000 665000
2020-06-25 14:00 23.96 362000 730000 (2019) 68200 (1988) 313000 117000 131000 168000 192000 291000 407000 428000 562000 665000
2020-06-25 13:30 23.83 360000 730000 (2019) 68200 (1988) 313000 117000 131000 168000 192000 291000 407000 428000 562000 665000
2020-06-25 13:00 24.11 365000 730000 (2019) 68200 (1988) 313000 117000 131000 168000 192000 291000 407000 428000 562000 665000
2020-06-25 12:30 24.01 363000 730000 (2019) 68200 (1988) 313000 117000 131000 168000 192000 291000 407000 428000 562000 665000
2020-06-25 12:00 23.99 363000 730000 (2019) 68200 (1988) 313000 117000 131000 168000 192000 291000 407000 428000 562000 665000
2020-06-25 11:30 24.09 364000 730000 (2019) 68200 (1988) 313000 117000 131000 168000 192000 291000 407000 428000 562000 665000
2020-06-25 11:00 23.67 357000 730000 (2019) 68200 (1988) 313000 117000 131000 168000 192000 291000 407000 428000 562000 665000
2020-06-25 10:30 23.91 361000 730000 (2019) 68200 (1988) 313000 117000 131000 168000 192000 291000 407000 428000 562000 665000
2020-06-25 10:00 23.83 360000 730000 (2019) 68200 (1988) 313000 117000 131000 168000 192000 291000 407000 428000 562000 665000
2020-06-25 09:30 24.04 364000 730000 (2019) 68200 (1988) 313000 117000 131000 168000 192000 291000 407000 428000 562000 665000
2020-06-25 09:00 23.96 362000 730000 (2019) 68200 (1988) 313000 117000 131000 168000 192000 291000 407000 428000 562000 665000
2020-06-25 08:30 23.99 363000 730000 (2019) 68200 (1988) 313000 117000 131000 168000 192000 291000 407000 428000 562000 665000
2020-06-25 08:00 24.01 363000 730000 (2019) 68200 (1988) 313000 117000 131000 168000 192000 291000 407000 428000 562000 665000
2020-06-25 07:30 24.02 363000 730000 (2019) 68200 (1988) 313000 117000 131000 168000 192000 291000 407000 428000 562000 665000
2020-06-25 07:00 23.91 361000 730000 (2019) 68200 (1988) 313000 117000 131000 168000 192000 291000 407000 428000 562000 665000
2020-06-25 06:30 23.95 362000 730000 (2019) 68200 (1988) 313000 117000 131000 168000 192000 291000 407000 428000 562000 665000
2020-06-25 06:00 23.88 361000 730000 (2019) 68200 (1988) 313000 117000 131000 168000 192000 291000 407000 428000 562000 665000
2020-06-25 05:30 23.90 361000 730000 (2019) 68200 (1988) 313000 117000 131000 168000 192000 291000 407000 428000 562000 665000
2020-06-25 05:00 24.01 363000 730000 (2019) 68200 (1988) 313000 117000 131000 168000 192000 291000 407000 428000 562000 665000
2020-06-25 04:30 23.85 360000 730000 (2019) 68200 (1988) 313000 117000 131000 168000 192000 291000 407000 428000 562000 665000
2020-06-25 04:00 23.94 362000 730000 (2019) 68200 (1988) 313000 117000 131000 168000 192000 291000 407000 428000 562000 665000
2020-06-25 03:30 24.01 363000 730000 (2019) 68200 (1988) 313000 117000 131000 168000 192000 291000 407000 428000 562000 665000
2020-06-25 03:00 24.13 365000 730000 (2019) 68200 (1988) 313000 117000 131000 168000 192000 291000 407000 428000 562000 665000
2020-06-25 02:30 24.05 364000 730000 (2019) 68200 (1988) 313000 117000 131000 168000 192000 291000 407000 428000 562000 665000
2020-06-25 02:00 24.12 365000 730000 (2019) 68200 (1988) 313000 117000 131000 168000 192000 291000 407000 428000 562000 665000
2020-06-25 01:30 24.01 363000 730000 (2019) 68200 (1988) 313000 117000 131000 168000 192000 291000 407000 428000 562000 665000
2020-06-25 01:00 24.13 365000 730000 (2019) 68200 (1988) 313000 117000 131000 168000 192000 291000 407000 428000 562000 665000
2020-06-25 00:30 23.79 359000 730000 (2019) 68200 (1988) 313000 117000 131000 168000 192000 291000 407000 428000 562000 665000
2020-06-25 00:00 24.08 364000 730000 (2019) 68200 (1988) 313000 117000 131000 168000 192000 291000 407000 428000 562000 665000
2020-06-24 23:30 24.15 365000 733000 (2019) 66600 (1988) 311000 120000 137000 173000 188000 288000 401000 430000 569000 663000
2020-06-24 23:00 23.96 362000 733000 (2019) 66600 (1988) 311000 120000 137000 173000 188000 288000 401000 430000 569000 663000
2020-06-24 22:30 24.17 366000 733000 (2019) 66600 (1988) 311000 120000 137000 173000 188000 288000 401000 430000 569000 663000
2020-06-24 22:00 24.14 365000 733000 (2019) 66600 (1988) 311000 120000 137000 173000 188000 288000 401000 430000 569000 663000
2020-06-24 21:30 24.10 365000 733000 (2019) 66600 (1988) 311000 120000 137000 173000 188000 288000 401000 430000 569000 663000
2020-06-24 21:00 24.15 365000 733000 (2019) 66600 (1988) 311000 120000 137000 173000 188000 288000 401000 430000 569000 663000
2020-06-24 20:30 24.27 368000 733000 (2019) 66600 (1988) 311000 120000 137000 173000 188000 288000 401000 430000 569000 663000
2020-06-24 20:00 24.29 368000 733000 (2019) 66600 (1988) 311000 120000 137000 173000 188000 288000 401000 430000 569000 663000
2020-06-24 19:30 24.29 368000 733000 (2019) 66600 (1988) 311000 120000 137000 173000 188000 288000 401000 430000 569000 663000
2020-06-24 19:00 24.27 368000 733000 (2019) 66600 (1988) 311000 120000 137000 173000 188000 288000 401000 430000 569000 663000
2020-06-24 18:30 24.20 366000 733000 (2019) 66600 (1988) 311000 120000 137000 173000 188000 288000 401000 430000 569000 663000
2020-06-24 18:00 24.40 370000 733000 (2019) 66600 (1988) 311000 120000 137000 173000 188000 288000 401000 430000 569000 663000
2020-06-24 17:30 24.40 370000 733000 (2019) 66600 (1988) 311000 120000 137000 173000 188000 288000 401000 430000 569000 663000
2020-06-24 17:00 24.32 368000 733000 (2019) 66600 (1988) 311000 120000 137000 173000 188000 288000 401000 430000 569000 663000
2020-06-24 16:30 24.43 370000 733000 (2019) 66600 (1988) 311000 120000 137000 173000 188000 288000 401000 430000 569000 663000
2020-06-24 16:00 24.42 370000 733000 (2019) 66600 (1988) 311000 120000 137000 173000 188000 288000 401000 430000 569000 663000
2020-06-24 15:30 24.41 370000 733000 (2019) 66600 (1988) 311000 120000 137000 173000 188000 288000 401000 430000 569000 663000
2020-06-24 15:00 24.40 370000 733000 (2019) 66600 (1988) 311000 120000 137000 173000 188000 288000 401000 430000 569000 663000
2020-06-24 14:30 24.39 370000 733000 (2019) 66600 (1988) 311000 120000 137000 173000 188000 288000 401000 430000 569000 663000
2020-06-24 14:00 24.37 369000 733000 (2019) 66600 (1988) 311000 120000 137000 173000 188000 288000 401000 430000 569000 663000
2020-06-24 13:30 24.33 369000 733000 (2019) 66600 (1988) 311000 120000 137000 173000 188000 288000 401000 430000 569000 663000
2020-06-24 13:00 24.24 367000 733000 (2019) 66600 (1988) 311000 120000 137000 173000 188000 288000 401000 430000 569000 663000
2020-06-24 12:30 24.32 368000 733000 (2019) 66600 (1988) 311000 120000 137000 173000 188000 288000 401000 430000 569000 663000
2020-06-24 12:00 24.36 369000 733000 (2019) 66600 (1988) 311000 120000 137000 173000 188000 288000 401000 430000 569000 663000
2020-06-24 11:30 24.34 369000 733000 (2019) 66600 (1988) 311000 120000 137000 173000 188000 288000 401000 430000 569000 663000
2020-06-24 11:00 24.34 369000 733000 (2019) 66600 (1988) 311000 120000 137000 173000 188000 288000 401000 430000 569000 663000
2020-06-24 10:30 24.34 369000 733000 (2019) 66600 (1988) 311000 120000 137000 173000 188000 288000 401000 430000 569000 663000
2020-06-24 10:00 24.34 369000 733000 (2019) 66600 (1988) 311000 120000 137000 173000